| time (UTC) | temp C | wind direction | speed KPH | gust KPH | rain 1hr cm | rain 24hr cm | rain mn cm | humidity % | barometer mb |
| 20260905082047 | 13 | 155 | 0.0 | 3.2 | 0.00 | 0.00 | 0.00 | 82 | 1014.0 |
| 20260905081946 | 13 | 155 | 0.0 | 3.2 | 0.00 | 0.00 | 0.00 | 82 | 1013.9 |
| 20260905081845 | 13 | 155 | 0.0 | 3.2 | 0.00 | 0.00 | 0.00 | 82 | 1013.9 |
| 20260905081743 | 13 | 155 | 0.0 | 3.2 | 0.00 | 0.00 | 0.00 | 82 | 1013.9 |
| 20260905081712 | 13 | 155 | 0.0 | 3.2 | 0.00 | 0.00 | 0.00 | 82 | 1014.0 |
| 20260905081641 | 13 | 155 | 0.0 | 3.2 | 0.00 | 0.00 | 0.00 | 82 | 1014.0 |
| 20260905081538 | 13 | 155 | 0.0 | 3.2 | 0.00 | 0.00 | 0.00 | 82 | 1014.0 |
| 20260905081438 | 13 | 155 | 0.0 | 3.2 | 0.00 | 0.00 | 0.00 | 82 | 1014.0 |
| 20260905081338 | 13 | 155 | 0.0 | 3.2 | 0.00 | 0.00 | 0.00 | 81 | 1014.0 |
| 20260905081237 | 13 | 155 | 0.0 | 3.2 | 0.00 | 0.00 | 0.00 | 81 | 1013.9 |
| 20260905081211 | 13 | 155 | 0.0 | 1.6 | 0.00 | 0.00 | 0.00 | 81 | 1014.0 |
| 20260905081135 | 13 | 155 | 0.0 | 1.6 | 0.00 | 0.00 | 0.00 | 81 | 1014.0 |
| 20260905081036 | 13 | 155 | 0.0 | 1.6 | 0.00 | 0.00 | 0.00 | 81 | 1014.0 |
| 20260905080936 | 13 | 155 | 0.0 | 1.6 | 0.00 | 0.00 | 0.00 | 81 | 1014.0 |
| 20260905080833 | 13 | 155 | 0.0 | 1.6 | 0.00 | 0.00 | 0.00 | 81 | 1013.9 |
| 20260905080711 | 13 | 155 | 0.0 | 1.6 | 0.00 | 0.00 | 0.00 | 81 | 1013.9 |
| 20260905080629 | 13 | 155 | 0.0 | 1.6 | 0.00 | 0.00 | 0.00 | 81 | 1013.9 |
| 20260905080530 | 13 | 155 | 0.0 | 1.6 | 0.00 | 0.00 | 0.00 | 81 | 1013.9 |
| 20260905080428 | 14 | 155 | 0.0 | 3.2 | 0.00 | 0.00 | 0.00 | 80 | 1013.9 |
| 20260905080327 | 14 | 155 | 0.0 | 3.2 | 0.00 | 0.00 | 0.00 | 81 | 1013.9 |
| 20260905080225 | 14 | 156 | 0.0 | 3.2 | 0.00 | 0.00 | 0.00 | 80 | 1013.9 |
| 20260905080123 | 14 | 108 | 0.0 | 3.2 | 0.00 | 0.00 | 0.00 | 80 | 1013.9 |
| 20260905080017 | 14 | 108 | 0.0 | 3.2 | 0.00 | 0.00 | 0.00 | 80 | 1013.9 |
| 20260905075917 | 14 | 108 | 0.0 | 3.2 | 0.00 | 0.00 | 0.00 | 80 | 1013.9 |
| 20260905075817 | 14 | 108 | 0.0 | 3.2 | 0.00 | 0.00 | 0.00 | 80 | 1013.9 |
| 20260905075711 | 14 | 108 | 1.6 | 3.2 | 0.00 | 0.00 | 0.00 | 80 | 1013.9 |
| 20260905075618 | 14 | 108 | 1.6 | 3.2 | 0.00 | 0.00 | 0.00 | 80 | 1013.9 |
| 20260905075512 | 14 | 117 | 1.6 | 4.8 | 0.00 | 0.00 | 0.00 | 80 | 1013.9 |
| 20260905075411 | 14 | 117 | 1.6 | 4.8 | 0.00 | 0.00 | 0.00 | 80 | 1013.8 |
| 20260905075311 | 14 | 117 | 1.6 | 4.8 | 0.00 | 0.00 | 0.00 | 80 | 1013.8 |
| 20260905075211 | 14 | 117 | 1.6 | 4.8 | 0.00 | 0.00 | 0.00 | 80 | 1013.8 |
| 20260905075111 | 14 | 116 | 1.6 | 4.8 | 0.00 | 0.00 | 0.00 | 80 | 1013.8 |
| 20260905075005 | 14 | 115 | 1.6 | 4.8 | 0.00 | 0.00 | 0.00 | 80 | 1013.8 |
| 20260905074905 | 14 | 103 | 1.6 | 4.8 | 0.00 | 0.00 | 0.00 | 80 | 1013.8 |
| 20260905074806 | 14 | 103 | 1.6 | 4.8 | 0.00 | 0.00 | 0.00 | 80 | 1013.8 |
| 20260905074706 | 14 | 103 | 1.6 | 4.8 | 0.00 | 0.00 | 0.00 | 80 | 1013.8 |
| 20260905074605 | 14 | 103 | 1.6 | 4.8 | 0.00 | 0.00 | 0.00 | 80 | 1013.8 |
| 20260905074459 | 14 | 100 | 1.6 | 4.8 | 0.00 | 0.00 | 0.00 | 80 | 1013.8 |
| 20260905074359 | 14 | 112 | 1.6 | 6.4 | 0.00 | 0.00 | 0.00 | 80 | 1013.8 |
| 20260905074259 | 14 | 71 | 1.6 | 6.4 | 0.00 | 0.00 | 0.00 | 80 | 1013.8 |
| 20260905074211 | 14 | 173 | 1.6 | 6.4 | 0.00 | 0.00 | 0.00 | 80 | 1013.7 |
| 20260905074201 | 14 | 173 | 1.6 | 6.4 | 0.00 | 0.00 | 0.00 | 79 | 1013.7 |
| 20260905074100 | 14 | 174 | 1.6 | 6.4 | 0.00 | 0.00 | 0.00 | 79 | 1013.7 |
| 20260905073953 | 14 | 174 | 3.2 | 6.4 | 0.00 | 0.00 | 0.00 | 79 | 1013.7 |
| 20260905073854 | 14 | 174 | 3.2 | 6.4 | 0.00 | 0.00 | 0.00 | 79 | 1013.7 |
| 20260905073753 | 14 | 173 | 3.2 | 6.4 | 0.00 | 0.00 | 0.00 | 79 | 1013.7 |
| 20260905073710 | 14 | 103 | 3.2 | 6.4 | 0.00 | 0.00 | 0.00 | 79 | 1013.7 |
| 20260905073656 | 14 | 103 | 3.2 | 6.4 | 0.00 | 0.00 | 0.00 | 79 | 1013.7 |
| 20260905073554 | 14 | 103 | 3.2 | 6.4 | 0.00 | 0.00 | 0.00 | 79 | 1013.6 |
| 20260905073447 | 14 | 100 | 3.2 | 6.4 | 0.00 | 0.00 | 0.00 | 79 | 1013.7 |
| 20260905073348 | 14 | 98 | 1.6 | 6.4 | 0.00 | 0.00 | 0.00 | 79 | 1013.6 |
| 20260905073247 | 14 | 88 | 1.6 | 6.4 | 0.00 | 0.00 | 0.00 | 79 | 1013.6 |
| 20260905073211 | 14 | 110 | 1.6 | 6.4 | 0.00 | 0.00 | 0.00 | 79 | 1013.6 |
| 20260905073146 | 14 | 113 | 1.6 | 6.4 | 0.00 | 0.00 | 0.00 | 79 | 1013.6 |
| 20260905073046 | 14 | 110 | 1.6 | 6.4 | 0.00 | 0.00 | 0.00 | 79 | 1013.6 |
| 20260905072940 | 14 | 107 | 1.6 | 6.4 | 0.00 | 0.00 | 0.00 | 79 | 1013.6 |
| 20260905072839 | 14 | 109 | 1.6 | 4.8 | 0.00 | 0.00 | 0.00 | 78 | 1013.6 |
| 20260905072739 | 14 | 103 | 1.6 | 4.8 | 0.00 | 0.03 | 0.00 | 78 | 1013.6 |
| 20260905072711 | 14 | 115 | 1.6 | 4.8 | 0.00 | 0.03 | 0.00 | 78 | 1013.6 |
| 20260905072639 | 14 | 102 | 1.6 | 4.8 | 0.00 | 0.03 | 0.00 | 78 | 1013.6 |
| 20260905072539 | 14 | 79 | 1.6 | 4.8 | 0.00 | 0.03 | 0.00 | 78 | 1013.6 |
| 20260905072435 | 14 | 79 | 1.6 | 4.8 | 0.00 | 0.03 | 0.00 | 78 | 1013.6 |
| 20260905072336 | 14 | 78 | 1.6 | 4.8 | 0.00 | 0.03 | 0.00 | 78 | 1013.7 |
| 20260905072234 | 15 | 77 | 3.2 | 6.4 | 0.00 | 0.03 | 0.00 | 78 | 1013.7 |
| 20260905072223 | 15 | 60 | 3.2 | 6.4 | 0.00 | 0.03 | 0.00 | 78 | 1013.6 |
| 20260905072133 | 15 | 117 | 3.2 | 6.4 | 0.00 | 0.03 | 0.00 | 78 | 1013.6 |
| 20260905072031 | 15 | 111 | 3.2 | 6.4 | 0.00 | 0.03 | 0.00 | 77 | 1013.6 |
| 20260905071926 | 15 | 110 | 3.2 | 6.4 | 0.00 | 0.03 | 0.00 | 77 | 1013.6 |
| 20260905071825 | 15 | 118 | 3.2 | 6.4 | 0.00 | 0.03 | 0.00 | 77 | 1013.6 |
| 20260905071725 | 15 | 99 | 3.2 | 6.4 | 0.00 | 0.03 | 0.00 | 77 | 1013.6 |
| 20260905071706 | 15 | 115 | 3.2 | 6.4 | 0.00 | 0.03 | 0.00 | 77 | 1013.6 |
| 20260905071626 | 15 | 103 | 3.2 | 6.4 | 0.00 | 0.03 | 0.00 | 77 | 1013.6 |
| 20260905071525 | 15 | 100 | 3.2 | 6.4 | 0.00 | 0.03 | 0.00 | 77 | 1013.6 |
| 20260905071432 | 15 | 113 | 1.6 | 4.8 | 0.00 | 0.05 | 0.00 | 77 | 1013.5 |
| 20260905071425 | 15 | 95 | 3.2 | 6.4 | 0.00 | 0.03 | 0.00 | 77 | 1013.6 |
| 20260905071324 | 15 | 96 | 3.2 | 4.8 | 0.00 | 0.05 | 0.00 | 77 | 1013.6 |
| 20260905071309 | 15 | 113 | 3.2 | 4.8 | 0.00 | 0.05 | 0.00 | 77 | 1013.6 |
| 20260905071122 | 15 | 113 | 1.6 | 4.8 | 0.00 | 0.05 | 0.00 | 77 | 1013.5 |
| 20260905071020 | 15 | 88 | 1.6 | 4.8 | 0.00 | 0.05 | 0.00 | 77 | 1013.6 |
| 20260905070916 | 15 | 113 | 1.6 | 4.8 | 0.00 | 0.05 | 0.00 | 77 | 1013.6 |
| 20260905070813 | 15 | 167 | 1.6 | 4.8 | 0.00 | 0.05 | 0.00 | 77 | 1013.6 |
| 20260905070713 | 15 | 83 | 1.6 | 4.8 | 0.00 | 0.05 | 0.00 | 77 | 1013.5 |
| 20260905070654 | 15 | 103 | 1.6 | 4.8 | 0.00 | 0.05 | 0.00 | 77 | 1013.5 |
| 20260905070629 | 15 | 113 | 1.6 | 4.8 | 0.00 | 0.05 | 0.00 | 77 | 1013.4 |
| 20260905070613 | 15 | 115 | 1.6 | 4.8 | 0.00 | 0.05 | 0.00 | 77 | 1013.5 |
| 20260905070522 | 15 | 75 | 1.6 | 4.8 | 0.00 | 0.05 | 0.00 | 77 | 1013.5 |
| 20260905070410 | 15 | 68 | 1.6 | 4.8 | 0.00 | 0.05 | 0.00 | 77 | 1013.5 |
| 20260905070307 | 15 | 104 | 1.6 | 4.8 | 0.00 | 0.05 | 0.00 | 77 | 1013.4 |
| 20260905070257 | 15 | 107 | 1.6 | 4.8 | 0.00 | 0.05 | 0.00 | 77 | 1013.4 |
| 20260905070108 | 15 | 111 | 1.6 | 4.8 | 0.00 | 0.08 | 0.00 | 77 | 1013.4 |
| 20260905070008 | 15 | 115 | 1.6 | 4.8 | 0.00 | 0.08 | 0.00 | 76 | 1013.3 |
| 20260905065910 | 15 | 150 | 1.6 | 9.7 | 0.00 | 0.08 | 0.08 | 76 | 1013.3 |
| 20260905065906 | 15 | 139 | 1.6 | 6.4 | 0.00 | 0.08 | 0.08 | 76 | 1013.3 |
| 20260905065806 | 15 | 153 | 1.6 | 6.4 | 0.00 | 0.08 | 0.08 | 76 | 1013.3 |
| 20260905065758 | 15 | 149 | 1.6 | 6.4 | 0.00 | 0.08 | 0.08 | 76 | 1013.3 |
| 20260905065604 | 15 | 157 | 3.2 | 9.7 | 0.00 | 0.08 | 0.08 | 76 | 1013.3 |
| 20260905065501 | 15 | 139 | 3.2 | 9.7 | 0.00 | 0.08 | 0.08 | 76 | 1013.3 |
| 20260905065357 | 15 | 139 | 3.2 | 9.7 | 0.00 | 0.08 | 0.08 | 76 | 1013.3 |
| 20260905065255 | 15 | 233 | 3.2 | 9.7 | 0.00 | 0.08 | 0.08 | 76 | 1013.2 |
| 20260905065201 | 15 | 233 | 3.2 | 9.7 | 0.00 | 0.08 | 0.08 | 76 | 1013.2 |
| 20260905065147 | 15 | 183 | 3.2 | 9.7 | 0.00 | 0.08 | 0.08 | 76 | 1013.2 |
| 20260905065054 | 15 | 210 | 3.2 | 9.7 | 0.00 | 0.08 | 0.08 | 76 | 1013.2 |
| 20260905064951 | 15 | 219 | 1.6 | 9.7 | 0.00 | 0.08 | 0.08 | 76 | 1013.2 |
| 20260905064846 | 15 | 235 | 3.2 | 9.7 | 0.00 | 0.08 | 0.08 | 76 | 1013.2 |
| 20260905064746 | 15 | 235 | 3.2 | 9.7 | 0.00 | 0.08 | 0.08 | 76 | 1013.2 |
| 20260905064646 | 15 | 224 | 3.2 | 9.7 | 0.00 | 0.08 | 0.08 | 75 | 1013.1 |
| 20260905064546 | 15 | 146 | 3.2 | 9.7 | 0.00 | 0.08 | 0.08 | 75 | 1013.2 |
| 20260905064446 | 15 | 194 | 3.2 | 9.7 | 0.00 | 0.08 | 0.08 | 75 | 1013.1 |
| 20260905064346 | 15 | 201 | 3.2 | 9.7 | 0.00 | 0.08 | 0.08 | 75 | 1013.2 |
| 20260905064244 | 15 | 229 | 3.2 | 9.7 | 0.00 | 0.08 | 0.08 | 75 | 1013.1 |
| 20260905064144 | 15 | 186 | 3.2 | 9.7 | 0.00 | 0.08 | 0.08 | 75 | 1013.1 |
| 20260905064042 | 15 | 186 | 3.2 | 9.7 | 0.00 | 0.08 | 0.08 | 75 | 1013.1 |
| 20260905063939 | 15 | 231 | 3.2 | 9.7 | 0.00 | 0.08 | 0.08 | 75 | 1013.2 |
| 20260905063838 | 15 | 145 | 3.2 | 9.7 | 0.00 | 0.08 | 0.08 | 75 | 1013.2 |
| 20260905063737 | 15 | 215 | 3.2 | 9.7 | 0.00 | 0.08 | 0.08 | 75 | 1013.1 |
| 20260905063645 | 15 | 210 | 3.2 | 8.0 | 0.00 | 0.08 | 0.08 | 75 | 1013.1 |
| 20260905063638 | 15 | 226 | 3.2 | 8.0 | 0.00 | 0.08 | 0.08 | 75 | 1013.1 |
| 20260905063536 | 15 | 217 | 3.2 | 8.0 | 0.00 | 0.08 | 0.08 | 75 | 1013.2 |
| 20260905063433 | 15 | 240 | 3.2 | 8.0 | 0.00 | 0.08 | 0.08 | 74 | 1013.2 |
| 20260905063327 | 15 | 183 | 3.2 | 8.0 | 0.00 | 0.08 | 0.08 | 74 | 1013.2 |
| 20260905063229 | 15 | 210 | 3.2 | 8.0 | 0.00 | 0.08 | 0.08 | 74 | 1013.2 |
| 20260905063145 | 15 | 231 | 3.2 | 8.0 | 0.00 | 0.08 | 0.08 | 74 | 1013.2 |
| 20260905063127 | 15 | 225 | 3.2 | 8.0 | 0.00 | 0.08 | 0.08 | 74 | 1013.2 |
| 20260905063028 | 15 | 226 | 3.2 | 8.0 | 0.00 | 0.08 | 0.08 | 74 | 1013.2 |
| 20260905062927 | 15 | 163 | 1.6 | 8.0 | 0.00 | 0.08 | 0.08 | 74 | 1013.2 |
| 20260905062823 | 15 | 212 | 1.6 | 6.4 | 0.00 | 0.08 | 0.08 | 74 | 1013.2 |
| 20260905062723 | 15 | 228 | 1.6 | 6.4 | 0.00 | 0.08 | 0.08 | 74 | 1013.2 |
| 20260905062657 | 15 | 228 | 1.6 | 6.4 | 0.00 | 0.08 | 0.08 | 74 | 1013.2 |
| 20260905062624 | 15 | 229 | 1.6 | 6.4 | 0.00 | 0.08 | 0.08 | 74 | 1013.2 |
| 20260905062524 | 16 | 221 | 3.2 | 6.4 | 0.00 | 0.08 | 0.08 | 74 | 1013.2 |
| 20260905062420 | 16 | 228 | 1.6 | 6.4 | 0.00 | 0.08 | 0.08 | 74 | 1013.2 |
| 20260905062316 | 16 | 223 | 1.6 | 4.8 | 0.00 | 0.08 | 0.08 | 74 | 1013.2 |
| 20260905062216 | 16 | 222 | 1.6 | 4.8 | 0.00 | 0.08 | 0.08 | 74 | 1013.3 |
| 20260905062143 | 16 | 223 | 1.6 | 4.8 | 0.00 | 0.08 | 0.08 | 74 | 1013.3 |
| 20260905062116 | 16 | 222 | 1.6 | 6.4 | 0.00 | 0.08 | 0.08 | 74 | 1013.2 |
| 20260905062016 | 16 | 214 | 3.2 | 8.0 | 0.00 | 0.08 | 0.08 | 74 | 1013.2 |
| 20260905061915 | 16 | 174 | 3.2 | 8.0 | 0.00 | 0.08 | 0.08 | 74 | 1013.2 |
| 20260905061859 | 16 | 214 | 3.2 | 8.0 | 0.00 | 0.08 | 0.08 | 74 | 1013.2 |
| 20260905061816 | 16 | 216 | 3.2 | 8.0 | 0.00 | 0.08 | 0.08 | 74 | 1013.2 |
| 20260905061715 | 16 | 212 | 3.2 | 8.0 | 0.00 | 0.08 | 0.08 | 74 | 1013.2 |
| 20260905061613 | 16 | 163 | 3.2 | 8.0 | 0.00 | 0.08 | 0.08 | 74 | 1013.3 |
| 20260905061511 | 16 | 226 | 3.2 | 8.0 | 0.00 | 0.08 | 0.08 | 74 | 1013.2 |
| 20260905061410 | 16 | 225 | 3.2 | 8.0 | 0.00 | 0.08 | 0.08 | 73 | 1013.3 |
| 20260905061303 | 16 | 221 | 3.2 | 8.0 | 0.00 | 0.08 | 0.08 | 73 | 1013.2 |
| 20260905061204 | 16 | 221 | 3.2 | 8.0 | 0.00 | 0.08 | 0.08 | 73 | 1013.2 |
| 20260905061141 | 16 | 212 | 3.2 | 8.0 | 0.00 | 0.08 | 0.08 | 73 | 1013.2 |
| 20260905061103 | 16 | 193 | 3.2 | 8.0 | 0.00 | 0.08 | 0.08 | 73 | 1013.3 |
| 20260905061004 | 16 | 232 | 3.2 | 8.0 | 0.00 | 0.08 | 0.08 | 73 | 1013.3 |
| 20260905060907 | 16 | 243 | 3.2 | 8.0 | 0.00 | 0.08 | 0.08 | 73 | 1013.3 |
| 20260905060858 | 16 | 221 | 3.2 | 8.0 | 0.00 | 0.08 | 0.08 | 73 | 1013.3 |
| 20260905060759 | 16 | 242 | 3.2 | 8.0 | 0.00 | 0.08 | 0.08 | 73 | 1013.3 |
| 20260905060751 | 16 | 221 | 3.2 | 8.0 | 0.00 | 0.08 | 0.08 | 73 | 1013.3 |
| 20260905060558 | 16 | 198 | 3.2 | 8.0 | 0.00 | 0.08 | 0.08 | 73 | 1013.2 |
| 20260905060458 | 16 | 229 | 3.2 | 8.0 | 0.00 | 0.08 | 0.08 | 73 | 1013.3 |
| 20260905060357 | 16 | 207 | 3.2 | 8.0 | 0.00 | 0.08 | 0.08 | 73 | 1013.2 |
| 20260905060252 | 16 | 226 | 3.2 | 9.7 | 0.00 | 0.08 | 0.08 | 73 | 1013.2 |
| 20260905060154 | 16 | 235 | 3.2 | 9.7 | 0.00 | 0.08 | 0.08 | 73 | 1013.2 |
| 20260905060052 | 16 | 239 | 3.2 | 9.7 | 0.00 | 0.08 | 0.08 | 73 | 1013.3 |
| 20260905055951 | 16 | 241 | 3.2 | 9.7 | 0.00 | 0.08 | 0.08 | 73 | 1013.2 |
| 20260905055851 | 16 | 231 | 3.2 | 9.7 | 0.00 | 0.08 | 0.08 | 73 | 1013.2 |
| 20260905055746 | 16 | 230 | 3.2 | 9.7 | 0.00 | 0.08 | 0.08 | 73 | 1013.3 |
| 20260905055649 | 16 | 230 | 3.2 | 9.7 | 0.00 | 0.08 | 0.08 | 73 | 1013.3 |
| 20260905055638 | 16 | 229 | 3.2 | 9.7 | 0.00 | 0.08 | 0.08 | 73 | 1013.3 |
| 20260905055546 | 16 | 229 | 3.2 | 9.7 | 0.00 | 0.08 | 0.08 | 73 | 1013.3 |
| 20260905055445 | 16 | 239 | 3.2 | 9.7 | 0.00 | 0.08 | 0.08 | 73 | 1013.3 |
| 20260905055346 | 16 | 231 | 3.2 | 9.7 | 0.00 | 0.08 | 0.08 | 73 | 1013.3 |
| 20260905055242 | 16 | 243 | 3.2 | 9.7 | 0.00 | 0.08 | 0.08 | 73 | 1013.3 |
| 20260905055145 | 16 | 232 | 3.2 | 9.7 | 0.00 | 0.08 | 0.08 | 73 | 1013.3 |
| 20260905055139 | 16 | 233 | 3.2 | 9.7 | 0.00 | 0.08 | 0.08 | 73 | 1013.3 |
| 20260905055040 | 16 | 226 | 3.2 | 9.7 | 0.00 | 0.08 | 0.08 | 73 | 1013.3 |
| 20260905054940 | 16 | 211 | 3.2 | 9.7 | 0.00 | 0.08 | 0.08 | 73 | 1013.3 |
| 20260905054840 | 16 | 236 | 3.2 | 9.7 | 0.00 | 0.08 | 0.08 | 73 | 1013.3 |
| 20260905054735 | 16 | 238 | 3.2 | 9.7 | 0.00 | 0.08 | 0.08 | 73 | 1013.3 |
| 20260905054640 | 16 | 186 | 3.2 | 9.7 | 0.00 | 0.08 | 0.08 | 73 | 1013.3 |
| 20260905054634 | 16 | 240 | 3.2 | 9.7 | 0.00 | 0.08 | 0.08 | 73 | 1013.3 |
| 20260905054533 | 16 | 236 | 3.2 | 9.7 | 0.00 | 0.08 | 0.08 | 73 | 1013.2 |
| 20260905054434 | 16 | 239 | 3.2 | 9.7 | 0.00 | 0.08 | 0.08 | 73 | 1013.3 |
| 20260905054333 | 16 | 218 | 4.8 | 11.3 | 0.00 | 0.08 | 0.08 | 73 | 1013.2 |
| 20260905054228 | 16 | 259 | 4.8 | 11.3 | 0.00 | 0.08 | 0.08 | 73 | 1013.2 |
| 20260905054128 | 16 | 229 | 4.8 | 11.3 | 0.00 | 0.08 | 0.08 | 73 | 1013.2 |
| 20260905054027 | 16 | 211 | 4.8 | 11.3 | 0.00 | 0.08 | 0.08 | 73 | 1013.3 |
| 20260905053928 | 16 | 141 | 3.2 | 11.3 | 0.00 | 0.08 | 0.08 | 73 | 1013.2 |
| 20260905053827 | 16 | 239 | 4.8 | 11.3 | 0.00 | 0.08 | 0.08 | 73 | 1013.3 |
| 20260905053720 | 16 | 255 | 4.8 | 12.9 | 0.00 | 0.08 | 0.08 | 73 | 1013.3 |
| 20260905053638 | 16 | 233 | 4.8 | 12.9 | 0.00 | 0.08 | 0.08 | 73 | 1013.3 |
| 20260905053619 | 16 | 193 | 4.8 | 12.9 | 0.00 | 0.08 | 0.08 | 73 | 1013.3 |
| 20260905053520 | 16 | 173 | 4.8 | 12.9 | 0.00 | 0.08 | 0.08 | 73 | 1013.3 |
| 20260905053420 | 16 | 215 | 4.8 | 12.9 | 0.00 | 0.08 | 0.08 | 73 | 1013.3 |
| 20260905053317 | 16 | 207 | 3.2 | 12.9 | 0.00 | 0.08 | 0.08 | 72 | 1013.3 |
| 20260905053212 | 16 | 229 | 3.2 | 12.9 | 0.00 | 0.08 | 0.08 | 72 | 1013.3 |
| 20260905053132 | 16 | 210 | 3.2 | 12.9 | 0.00 | 0.08 | 0.08 | 72 | 1013.3 |
| 20260905053112 | 16 | 235 | 3.2 | 12.9 | 0.00 | 0.08 | 0.08 | 72 | 1013.3 |
| 20260905053012 | 16 | 203 | 4.8 | 12.9 | 0.00 | 0.08 | 0.08 | 72 | 1013.3 |
| 20260905052911 | 16 | 235 | 4.8 | 12.9 | 0.00 | 0.08 | 0.08 | 72 | 1013.3 |
| 20260905052812 | 16 | 234 | 4.8 | 11.3 | 0.00 | 0.08 | 0.08 | 72 | 1013.3 |
| 20260905052714 | 16 | 158 | 4.8 | 11.3 | 0.00 | 0.08 | 0.08 | 72 | 1013.3 |
| 20260905052627 | 16 | 218 | 4.8 | 11.3 | 0.00 | 0.08 | 0.08 | 72 | 1013.3 |
| 20260905052607 | 16 | 186 | 4.8 | 11.3 | 0.00 | 0.08 | 0.08 | 72 | 1013.3 |
| 20260905052508 | 16 | 239 | 4.8 | 11.3 | 0.00 | 0.08 | 0.08 | 72 | 1013.3 |
| 20260905052408 | 16 | 241 | 4.8 | 11.3 | 0.00 | 0.08 | 0.08 | 72 | 1013.3 |
| 20260905052306 | 16 | 242 | 4.8 | 11.3 | 0.00 | 0.08 | 0.08 | 72 | 1013.3 |
| 20260905052203 | 17 | 241 | 4.8 | 11.3 | 0.00 | 0.08 | 0.08 | 72 | 1013.3 |
| 20260905052121 | 17 | 224 | 4.8 | 11.3 | 0.00 | 0.08 | 0.08 | 72 | 1013.3 |
| 20260905052101 | 17 | 224 | 4.8 | 11.3 | 0.00 | 0.08 | 0.08 | 72 | 1013.3 |
| 20260905052002 | 17 | 201 | 4.8 | 11.3 | 0.00 | 0.08 | 0.08 | 72 | 1013.3 |
| 20260905051902 | 17 | 217 | 4.8 | 9.7 | 0.00 | 0.08 | 0.08 | 71 | 1013.3 |
| 20260905051800 | 17 | 241 | 4.8 | 9.7 | 0.00 | 0.08 | 0.08 | 71 | 1013.3 |
| 20260905051658 | 17 | 228 | 4.8 | 11.3 | 0.00 | 0.08 | 0.08 | 71 | 1013.3 |
| 20260905051614 | 17 | 228 | 6.4 | 11.3 | 0.00 | 0.08 | 0.08 | 71 | 1013.4 |
| 20260905051554 | 17 | 229 | 6.4 | 12.9 | 0.00 | 0.08 | 0.08 | 71 | 1013.4 |
| 20260905051454 | 17 | 248 | 6.4 | 12.9 | 0.00 | 0.08 | 0.08 | 71 | 1013.3 |
| 20260905051354 | 17 | 235 | 6.4 | 12.9 | 0.00 | 0.08 | 0.08 | 71 | 1013.3 |
| 20260905051253 | 17 | 231 | 6.4 | 14.5 | 0.00 | 0.08 | 0.08 | 71 | 1013.3 |
| 20260905051150 | 17 | 226 | 6.4 | 14.5 | 0.00 | 0.08 | 0.08 | 71 | 1013.4 |
| 20260905051108 | 17 | 245 | 6.4 | 14.5 | 0.00 | 0.08 | 0.08 | 71 | 1013.3 |
| 20260905051047 | 17 | 238 | 6.4 | 14.5 | 0.00 | 0.08 | 0.08 | 70 | 1013.3 |
| 20260905050948 | 17 | 245 | 6.4 | 14.5 | 0.00 | 0.08 | 0.08 | 70 | 1013.3 |
| 20260905050847 | 17 | 217 | 6.4 | 14.5 | 0.00 | 0.08 | 0.08 | 70 | 1013.3 |
| 20260905050748 | 17 | 239 | 6.4 | 14.5 | 0.00 | 0.08 | 0.08 | 70 | 1013.3 |
| 20260905050644 | 17 | 228 | 6.4 | 14.5 | 0.00 | 0.08 | 0.08 | 70 | 1013.3 |
| 20260905050602 | 17 | 212 | 6.4 | 14.5 | 0.00 | 0.08 | 0.08 | 70 | 1013.4 |
| 20260905050542 | 17 | 226 | 6.4 | 14.5 | 0.00 | 0.08 | 0.08 | 70 | 1013.4 |
| 20260905050442 | 17 | 238 | 6.4 | 14.5 | 0.00 | 0.08 | 0.08 | 70 | 1013.4 |
| 20260905050341 | 17 | 223 | 6.4 | 14.5 | 0.00 | 0.08 | 0.08 | 70 | 1013.4 |
| 20260905050242 | 17 | 194 | 6.4 | 14.5 | 0.00 | 0.08 | 0.08 | 69 | 1013.3 |
| 20260905050137 | 17 | 226 | 6.4 | 14.5 | 0.00 | 0.08 | 0.08 | 69 | 1013.3 |
| 20260905050109 | 17 | 262 | 6.4 | 14.5 | 0.00 | 0.08 | 0.08 | 69 | 1013.4 |
| 20260905050036 | 17 | 232 | 6.4 | 14.5 | 0.00 | 0.08 | 0.08 | 69 | 1013.4 |
| 20260905045935 | 17 | 215 | 4.8 | 14.5 | 0.00 | 0.08 | 0.08 | 69 | 1013.3 |
| 20260905045836 | 17 | 256 | 4.8 | 14.5 | 0.00 | 0.08 | 0.08 | 69 | 1013.3 |
| 20260905045735 | 17 | 250 | 4.8 | 14.5 | 0.00 | 0.08 | 0.08 | 69 | 1013.4 |
| 20260905045635 | 17 | 235 | 4.8 | 14.5 | 0.00 | 0.08 | 0.08 | 69 | 1013.3 |
| 20260905045550 | 17 | 218 | 4.8 | 14.5 | 0.00 | 0.08 | 0.08 | 69 | 1013.3 |
| 20260905045533 | 17 | 229 | 4.8 | 14.5 | 0.00 | 0.08 | 0.08 | 69 | 1013.3 |
| 20260905045434 | 17 | 248 | 4.8 | 14.5 | 0.00 | 0.08 | 0.08 | 68 | 1013.3 |
| 20260905045332 | 17 | 238 | 4.8 | 14.5 | 0.00 | 0.08 | 0.08 | 68 | 1013.4 |
| 20260905045230 | 17 | 226 | 4.8 | 14.5 | 0.00 | 0.08 | 0.08 | 68 | 1013.4 |
| 20260905045127 | 17 | 238 | 4.8 | 12.9 | 0.00 | 0.08 | 0.08 | 68 | 1013.4 |
| 20260905045044 | 17 | 283 | 4.8 | 12.9 | 0.00 | 0.08 | 0.08 | 68 | 1013.4 |
| 20260905045028 | 17 | 253 | 4.8 | 12.9 | 0.00 | 0.08 | 0.08 | 68 | 1013.4 |
| 20260905044928 | 17 | 228 | 4.8 | 16.1 | 0.00 | 0.08 | 0.08 | 67 | 1013.4 |
| 20260905044825 | 17 | 228 | 6.4 | 16.1 | 0.00 | 0.08 | 0.08 | 67 | 1013.4 |
| 20260905044724 | 18 | 231 | 6.4 | 16.1 | 0.00 | 0.08 | 0.08 | 67 | 1013.4 |
| 20260905044620 | 18 | 219 | 6.4 | 16.1 | 0.00 | 0.08 | 0.08 | 67 | 1013.4 |
| 20260905044538 | 18 | 210 | 4.8 | 16.1 | 0.00 | 0.08 | 0.08 | 67 | 1013.3 |
| 20260905044520 | 18 | 235 | 4.8 | 16.1 | 0.00 | 0.08 | 0.08 | 67 | 1013.3 |
| 20260905044419 | 18 | 231 | 6.4 | 16.1 | 0.00 | 0.08 | 0.08 | 66 | 1013.4 |
| 20260905044320 | 18 | 231 | 6.4 | 16.1 | 0.00 | 0.08 | 0.08 | 66 | 1013.3 |
| 20260905044218 | 18 | 242 | 6.4 | 16.1 | 0.00 | 0.08 | 0.08 | 66 | 1013.3 |
| 20260905044111 | 18 | 238 | 4.8 | 16.1 | 0.00 | 0.08 | 0.08 | 66 | 1013.2 |
| 20260905044032 | 18 | 238 | 4.8 | 16.1 | 0.00 | 0.08 | 0.08 | 66 | 1013.2 |
| 20260905044012 | 18 | 231 | 4.8 | 11.3 | 0.00 | 0.08 | 0.08 | 66 | 1013.2 |
| 20260905043911 | 18 | 231 | 4.8 | 11.3 | 0.00 | 0.08 | 0.08 | 65 | 1013.3 |
| 20260905043811 | 18 | 246 | 4.8 | 9.7 | 0.00 | 0.08 | 0.08 | 65 | 1013.2 |
| 20260905043747 | 18 | 241 | 4.8 | 9.7 | 0.00 | 0.08 | 0.08 | 64 | 1013.2 |
| 20260905043713 | 18 | 224 | 4.8 | 9.7 | 0.00 | 0.08 | 0.08 | 65 | 1013.3 |
| 20260905043637 | 18 | 228 | 4.8 | 9.7 | 0.00 | 0.08 | 0.08 | 64 | 1013.2 |
| 20260905043505 | 18 | 241 | 4.8 | 12.9 | 0.00 | 0.08 | 0.08 | 64 | 1013.2 |
| 20260905043406 | 18 | 240 | 4.8 | 12.9 | 0.00 | 0.08 | 0.08 | 63 | 1013.3 |
| 20260905043305 | 18 | 200 | 4.8 | 12.9 | 0.00 | 0.08 | 0.08 | 63 | 1013.2 |
| 20260905043206 | 18 | 240 | 4.8 | 12.9 | 0.00 | 0.08 | 0.08 | 63 | 1013.3 |
| 20260905043108 | 18 | 219 | 4.8 | 12.9 | 0.00 | 0.08 | 0.08 | 63 | 1013.2 |
| 20260905043022 | 18 | 226 | 4.8 | 12.9 | 0.00 | 0.08 | 0.08 | 63 | 1013.2 |
| 20260905043005 | 18 | 221 | 4.8 | 12.9 | 0.00 | 0.08 | 0.08 | 63 | 1013.2 |
| 20260905042903 | 18 | 228 | 4.8 | 12.9 | 0.00 | 0.08 | 0.08 | 62 | 1013.2 |
| 20260905042801 | 18 | 248 | 4.8 | 12.9 | 0.00 | 0.08 | 0.08 | 62 | 1013.1 |
| 20260905042700 | 18 | 236 | 4.8 | 12.9 | 0.00 | 0.08 | 0.08 | 62 | 1013.1 |
| 20260905042556 | 18 | 230 | 4.8 | 12.9 | 0.00 | 0.08 | 0.08 | 62 | 1013.1 |
| 20260905042514 | 18 | 257 | 4.8 | 12.9 | 0.00 | 0.08 | 0.08 | 62 | 1013.1 |
| 20260905042454 | 18 | 236 | 4.8 | 12.9 | 0.00 | 0.08 | 0.08 | 62 | 1013.1 |
| 20260905042354 | 18 | 246 | 3.2 | 12.9 | 0.00 | 0.08 | 0.08 | 62 | 1013.1 |
| 20260905042253 | 18 | 231 | 3.2 | 12.9 | 0.00 | 0.08 | 0.08 | 62 | 1013.1 |
| 20260905042157 | 18 | 211 | 3.2 | 12.9 | 0.00 | 0.08 | 0.08 | 61 | 1013.1 |
| 20260905042048 | 18 | 203 | 4.8 | 16.1 | 0.00 | 0.08 | 0.08 | 61 | 1013.1 |
| 20260905042008 | 18 | 239 | 4.8 | 16.1 | 0.00 | 0.08 | 0.08 | 61 | 1013.1 |
| 20260905041948 | 18 | 238 | 4.8 | 16.1 | 0.00 | 0.08 | 0.08 | 61 | 1013.1 |
| 20260905041848 | 18 | 260 | 4.8 | 16.1 | 0.00 | 0.08 | 0.08 | 61 | 1013.0 |
| 20260905041748 | 18 | 243 | 4.8 | 16.1 | 0.00 | 0.08 | 0.08 | 61 | 1013.0 |
| 20260905041648 | 18 | 238 | 4.8 | 16.1 | 0.00 | 0.08 | 0.08 | 61 | 1013.0 |
| 20260905041546 | 18 | 219 | 4.8 | 16.1 | 0.00 | 0.08 | 0.08 | 61 | 1013.0 |
| 20260905041503 | 18 | 219 | 4.8 | 16.1 | 0.00 | 0.08 | 0.08 | 61 | 1013.0 |
| 20260905041445 | 18 | 235 | 4.8 | 16.1 | 0.00 | 0.08 | 0.08 | 61 | 1013.0 |
| 20260905041346 | 18 | 235 | 4.8 | 16.1 | 0.00 | 0.08 | 0.08 | 61 | 1013.0 |
| 20260905041244 | 19 | 210 | 4.8 | 16.1 | 0.00 | 0.08 | 0.08 | 61 | 1013.0 |
| 20260905041141 | 19 | 235 | 4.8 | 16.1 | 0.00 | 0.08 | 0.08 | 61 | 1013.0 |
| 20260905041037 | 19 | 239 | 4.8 | 16.1 | 0.00 | 0.08 | 0.08 | 61 | 1013.0 |
| 20260905040956 | 19 | 240 | 4.8 | 16.1 | 0.00 | 0.08 | 0.08 | 61 | 1013.0 |
| 20260905040937 | 19 | 218 | 4.8 | 16.1 | 0.00 | 0.08 | 0.08 | 61 | 1013.0 |
| 20260905040838 | 19 | 231 | 4.8 | 14.5 | 0.00 | 0.08 | 0.08 | 61 | 1012.9 |
| 20260905040739 | 19 | 212 | 4.8 | 14.5 | 0.00 | 0.08 | 0.08 | 61 | 1012.9 |
| 20260905040636 | 19 | 246 | 4.8 | 14.5 | 0.00 | 0.08 | 0.08 | 61 | 1012.9 |
| 20260905040532 | 19 | 208 | 4.8 | 14.5 | 0.00 | 0.08 | 0.08 | 61 | 1012.9 |
| 20260905040449 | 19 | 235 | 3.2 | 12.9 | 0.00 | 0.08 | 0.08 | 61 | 1012.9 |
| 20260905040433 | 19 | 231 | 3.2 | 14.5 | 0.00 | 0.08 | 0.08 | 61 | 1012.9 |
| 20260905040429 | 19 | 198 | 3.2 | 9.7 | 0.00 | 0.08 | 0.08 | 61 | 1012.9 |
| 20260905040330 | 19 | 224 | 3.2 | 9.7 | 0.00 | 0.08 | 0.08 | 61 | 1012.9 |
| 20260905040311 | 19 | 233 | 3.2 | 9.7 | 0.00 | 0.08 | 0.08 | 61 | 1012.9 |
| 20260905040129 | 19 | 200 | 3.2 | 9.7 | 0.00 | 0.08 | 0.08 | 61 | 1012.9 |
| 20260905040055 | 19 | 250 | 3.2 | 9.7 | 0.00 | 0.08 | 0.08 | 61 | 1012.9 |
| 20260905035927 | 19 | 228 | 3.2 | 14.5 | 0.00 | 0.08 | 0.08 | 61 | 1012.9 |
| 20260905035824 | 19 | 221 | 4.8 | 14.5 | 0.00 | 0.08 | 0.08 | 61 | 1012.9 |
| 20260905035723 | 19 | 221 | 4.8 | 14.5 | 0.00 | 0.08 | 0.08 | 61 | 1012.9 |
| 20260905035658 | 19 | 231 | 4.8 | 17.7 | 0.00 | 0.08 | 0.08 | 60 | 1012.8 |
| 20260905035624 | 19 | 235 | 4.8 | 14.5 | 0.00 | 0.08 | 0.08 | 60 | 1012.9 |
| 20260905035549 | 19 | 231 | 4.8 | 14.5 | 0.00 | 0.08 | 0.08 | 60 | 1012.9 |
| 20260905035418 | 19 | 231 | 4.8 | 17.7 | 0.00 | 0.08 | 0.08 | 60 | 1012.8 |
| 20260905035318 | 19 | 232 | 4.8 | 17.7 | 0.00 | 0.08 | 0.08 | 60 | 1012.8 |
| 20260905035218 | 19 | 294 | 4.8 | 17.7 | 0.00 | 0.08 | 0.08 | 60 | 1012.8 |
| 20260905035122 | 19 | 238 | 4.8 | 17.7 | 0.00 | 0.08 | 0.08 | 60 | 1012.7 |
| 20260905035011 | 19 | 242 | 4.8 | 17.7 | 0.00 | 0.08 | 0.08 | 60 | 1012.7 |
| 20260905034932 | 19 | 240 | 4.8 | 17.7 | 0.00 | 0.08 | 0.08 | 60 | 1012.7 |
| 20260905034912 | 19 | 212 | 4.8 | 17.7 | 0.00 | 0.08 | 0.08 | 60 | 1012.8 |
| 20260905034811 | 19 | 242 | 4.8 | 17.7 | 0.00 | 0.08 | 0.08 | 60 | 1012.7 |
| 20260905034712 | 19 | 255 | 4.8 | 17.7 | 0.00 | 0.08 | 0.08 | 60 | 1012.8 |
| 20260905034611 | 19 | 226 | 4.8 | 17.7 | 0.00 | 0.08 | 0.08 | 60 | 1012.8 |
| 20260905034506 | 19 | 248 | 3.2 | 17.7 | 0.00 | 0.08 | 0.08 | 60 | 1012.8 |
| 20260905034427 | 19 | 250 | 3.2 | 16.1 | 0.00 | 0.08 | 0.08 | 60 | 1012.8 |
| 20260905034406 | 19 | 230 | 3.2 | 16.1 | 0.00 | 0.08 | 0.08 | 60 | 1012.7 |
| 20260905034305 | 20 | 252 | 3.2 | 16.1 | 0.00 | 0.08 | 0.08 | 60 | 1012.7 |
| 20260905034207 | 20 | 276 | 3.2 | 16.1 | 0.00 | 0.08 | 0.08 | 60 | 1012.7 |
| 20260905034105 | 20 | 240 | 3.2 | 16.1 | 0.00 | 0.08 | 0.08 | 60 | 1012.7 |
| 20260905034001 | 20 | 163 | 3.2 | 16.1 | 0.00 | 0.08 | 0.08 | 60 | 1012.7 |
| 20260905033924 | 20 | 253 | 3.2 | 16.1 | 0.00 | 0.08 | 0.08 | 60 | 1012.7 |
| 20260905033859 | 20 | 233 | 3.2 | 16.1 | 0.00 | 0.08 | 0.08 | 60 | 1012.7 |
| 20260905033800 | 20 | 253 | 3.2 | 11.3 | 0.00 | 0.08 | 0.08 | 60 | 1012.7 |
| 20260905033700 | 20 | 228 | 4.8 | 11.3 | 0.00 | 0.08 | 0.08 | 60 | 1012.7 |
| 20260905033559 | 20 | 242 | 4.8 | 11.3 | 0.00 | 0.08 | 0.08 | 60 | 1012.7 |
| 20260905033500 | 20 | 253 | 4.8 | 12.9 | 0.00 | 0.08 | 0.08 | 59 | 1012.6 |
| 20260905033414 | 20 | 245 | 4.8 | 14.5 | 0.00 | 0.08 | 0.08 | 59 | 1012.7 |
| 20260905033358 | 20 | 245 | 4.8 | 14.5 | 0.00 | 0.08 | 0.08 | 59 | 1012.7 |
| 20260905033256 | 20 | 236 | 6.4 | 14.5 | 0.00 | 0.08 | 0.08 | 59 | 1012.6 |
| 20260905033156 | 20 | 259 | 6.4 | 14.5 | 0.00 | 0.08 | 0.08 | 59 | 1012.7 |
| 20260905033054 | 20 | 232 | 6.4 | 14.5 | 0.00 | 0.08 | 0.08 | 59 | 1012.6 |
| 20260905032952 | 20 | 248 | 4.8 | 14.5 | 0.00 | 0.08 | 0.08 | 59 | 1012.6 |
| 20260905032908 | 20 | 274 | 4.8 | 14.5 | 0.00 | 0.08 | 0.08 | 59 | 1012.5 |
| 20260905032851 | 20 | 239 | 4.8 | 14.5 | 0.00 | 0.08 | 0.08 | 59 | 1012.5 |
| 20260905032752 | 20 | 239 | 4.8 | 14.5 | 0.00 | 0.08 | 0.08 | 59 | 1012.5 |
| 20260905032653 | 20 | 245 | 4.8 | 14.5 | 0.00 | 0.08 | 0.08 | 59 | 1012.5 |
| 20260905032547 | 20 | 235 | 4.8 | 14.5 | 0.00 | 0.08 | 0.08 | 59 | 1012.4 |
| 20260905032444 | 20 | 239 | 3.2 | 14.5 | 0.00 | 0.08 | 0.08 | 59 | 1012.5 |
| 20260905032403 | 20 | 268 | 3.2 | 12.9 | 0.00 | 0.08 | 0.08 | 59 | 1012.5 |
| 20260905032342 | 20 | 238 | 3.2 | 12.9 | 0.00 | 0.08 | 0.08 | 59 | 1012.5 |
| 20260905032242 | 20 | 232 | 3.2 | 9.7 | 0.00 | 0.08 | 0.08 | 59 | 1012.4 |
| 20260905032142 | 20 | 229 | 3.2 | 9.7 | 0.00 | 0.08 | 0.08 | 59 | 1012.4 |
| 20260905032041 | 20 | 287 | 3.2 | 9.7 | 0.00 | 0.08 | 0.08 | 59 | 1012.4 |
| 20260905031939 | 20 | 231 | 3.2 | 11.3 | 0.00 | 0.08 | 0.08 | 59 | 1012.4 |
| 20260905031857 | 20 | 221 | 3.2 | 11.3 | 0.00 | 0.08 | 0.08 | 59 | 1012.4 |
| 20260905031839 | 20 | 283 | 3.2 | 11.3 | 0.00 | 0.08 | 0.08 | 58 | 1012.4 |
| 20260905031740 | 20 | 203 | 3.2 | 11.3 | 0.00 | 0.08 | 0.08 | 58 | 1012.4 |
| 20260905031637 | 20 | 269 | 3.2 | 11.3 | 0.00 | 0.08 | 0.08 | 58 | 1012.4 |
| 20260905031536 | 20 | 271 | 3.2 | 11.3 | 0.00 | 0.08 | 0.08 | 58 | 1012.3 |
| 20260905031429 | 20 | 238 | 3.2 | 11.3 | 0.00 | 0.08 | 0.08 | 58 | 1012.3 |
| 20260905031350 | 20 | 194 | 3.2 | 11.3 | 0.00 | 0.08 | 0.08 | 58 | 1012.3 |
| 20260905031329 | 20 | 201 | 3.2 | 11.3 | 0.00 | 0.08 | 0.08 | 58 | 1012.3 |
| 20260905031231 | 20 | 281 | 3.2 | 14.5 | 0.00 | 0.08 | 0.08 | 58 | 1012.3 |
| 20260905031130 | 20 | 236 | 3.2 | 14.5 | 0.00 | 0.08 | 0.08 | 58 | 1012.3 |
| 20260905031029 | 20 | 257 | 3.2 | 14.5 | 0.00 | 0.08 | 0.08 | 58 | 1012.3 |
| 20260905030924 | 20 | 238 | 3.2 | 14.5 | 0.00 | 0.08 | 0.08 | 58 | 1012.3 |
| 20260905030845 | 20 | 214 | 3.2 | 14.5 | 0.00 | 0.08 | 0.08 | 58 | 1012.3 |
| 20260905030823 | 20 | 214 | 3.2 | 14.5 | 0.00 | 0.08 | 0.08 | 57 | 1012.3 |
| 20260905030724 | 20 | 239 | 3.2 | 14.5 | 0.00 | 0.08 | 0.08 | 57 | 1012.3 |
| 20260905030623 | 21 | 239 | 3.2 | 14.5 | 0.00 | 0.08 | 0.08 | 57 | 1012.3 |
| 20260905030524 | 21 | 217 | 3.2 | 14.5 | 0.00 | 0.08 | 0.08 | 57 | 1012.3 |
| 20260905030419 | 21 | 238 | 3.2 | 14.5 | 0.00 | 0.08 | 0.08 | 57 | 1012.3 |
| 20260905030318 | 21 | 287 | 4.8 | 14.5 | 0.00 | 0.08 | 0.08 | 57 | 1012.3 |
| 20260905030219 | 21 | 288 | 4.8 | 14.5 | 0.00 | 0.08 | 0.08 | 56 | 1012.3 |
| 20260905030118 | 21 | 246 | 4.8 | 14.5 | 0.00 | 0.08 | 0.08 | 56 | 1012.3 |
| 20260905030054 | 21 | 232 | 4.8 | 14.5 | 0.00 | 0.08 | 0.08 | 56 | 1012.3 |
| 20260905030017 | 21 | 277 | 4.8 | 14.5 | 0.00 | 0.08 | 0.08 | 56 | 1012.3 |
| 20260905025943 | 21 | 233 | 4.8 | 14.5 | 0.00 | 0.08 | 0.08 | 56 | 1012.3 |
| 20260905025812 | 21 | 245 | 4.8 | 14.5 | 0.00 | 0.08 | 0.08 | 56 | 1012.3 |
| 20260905025713 | 21 | 235 | 4.8 | 14.5 | 0.00 | 0.08 | 0.08 | 56 | 1012.2 |
| 20260905025611 | 21 | 273 | 4.8 | 14.5 | 0.00 | 0.08 | 0.08 | 56 | 1012.3 |
| 20260905025511 | 21 | 256 | 4.8 | 14.5 | 0.00 | 0.08 | 0.08 | 56 | 1012.2 |
| 20260905025407 | 21 | 289 | 3.2 | 14.5 | 0.00 | 0.08 | 0.08 | 55 | 1012.2 |
| 20260905025327 | 21 | 255 | 3.2 | 12.9 | 0.00 | 0.08 | 0.08 | 55 | 1012.2 |
| 20260905025308 | 21 | 270 | 3.2 | 12.9 | 0.00 | 0.08 | 0.08 | 55 | 1012.2 |
| 20260905025209 | 21 | 278 | 3.2 | 11.3 | 0.00 | 0.08 | 0.08 | 55 | 1012.2 |
| 20260905025108 | 21 | 229 | 3.2 | 11.3 | 0.00 | 0.08 | 0.08 | 55 | 1012.2 |
| 20260905025038 | 21 | 225 | 3.2 | 16.1 | 0.00 | 0.08 | 0.08 | 55 | 1012.1 |
| 20260905025006 | 21 | 219 | 4.8 | 12.9 | 0.00 | 0.08 | 0.08 | 55 | 1012.2 |
| 20260905024930 | 21 | 273 | 3.2 | 16.1 | 0.00 | 0.08 | 0.08 | 55 | 1012.1 |
| 20260905024800 | 21 | 225 | 4.8 | 16.1 | 0.00 | 0.08 | 0.08 | 55 | 1012.1 |
| 20260905024700 | 21 | 210 | 4.8 | 16.1 | 0.00 | 0.08 | 0.08 | 54 | 1012.1 |
| 20260905024600 | 21 | 277 | 4.8 | 16.1 | 0.00 | 0.08 | 0.08 | 54 | 1012.1 |
| 20260905024500 | 21 | 284 | 4.8 | 16.1 | 0.00 | 0.08 | 0.08 | 54 | 1012.1 |
| 20260905024400 | 21 | 229 | 4.8 | 16.1 | 0.00 | 0.08 | 0.08 | 54 | 1012.1 |
| 20260905024314 | 21 | 270 | 3.2 | 16.1 | 0.00 | 0.08 | 0.08 | 54 | 1012.1 |
| 20260905024257 | 21 | 263 | 3.2 | 16.1 | 0.00 | 0.08 | 0.08 | 54 | 1012.1 |
| 20260905024159 | 21 | 263 | 4.8 | 16.1 | 0.00 | 0.08 | 0.08 | 54 | 1012.1 |
| 20260905024055 | 21 | 248 | 4.8 | 16.1 | 0.00 | 0.08 | 0.08 | 54 | 1012.0 |
| 20260905023954 | 21 | 250 | 3.2 | 16.1 | 0.00 | 0.08 | 0.08 | 53 | 1012.0 |
| 20260905023849 | 21 | 278 | 3.2 | 16.1 | 0.00 | 0.08 | 0.08 | 53 | 1012.0 |
| 20260905023808 | 21 | 246 | 3.2 | 16.1 | 0.00 | 0.08 | 0.08 | 53 | 1012.0 |
| 20260905023748 | 22 | 248 | 3.2 | 16.1 | 0.00 | 0.08 | 0.08 | 53 | 1012.0 |
| 20260905023653 | 22 | 271 | 3.2 | 16.1 | 0.00 | 0.08 | 0.08 | 53 | 1012.1 |
| 20260905023548 | 22 | 212 | 4.8 | 16.1 | 0.00 | 0.08 | 0.08 | 53 | 1012.0 |
| 20260905023447 | 22 | 257 | 4.8 | 16.1 | 0.00 | 0.08 | 0.08 | 52 | 1012.1 |
| 20260905023341 | 22 | 271 | 4.8 | 16.1 | 0.00 | 0.08 | 0.08 | 52 | 1012.1 |
| 20260905023303 | 22 | 235 | 4.8 | 16.1 | 0.00 | 0.08 | 0.08 | 52 | 1012.1 |
| 20260905023242 | 22 | 233 | 4.8 | 16.1 | 0.00 | 0.08 | 0.08 | 52 | 1012.1 |
| 20260905023141 | 22 | 239 | 4.8 | 19.3 | 0.00 | 0.08 | 0.08 | 52 | 1012.1 |
| 20260905023042 | 22 | 200 | 6.4 | 19.3 | 0.00 | 0.08 | 0.08 | 52 | 1012.1 |
| 20260905022941 | 22 | 264 | 6.4 | 19.3 | 0.00 | 0.08 | 0.08 | 52 | 1012.0 |
| 20260905022838 | 22 | 302 | 6.4 | 19.3 | 0.00 | 0.08 | 0.08 | 52 | 1012.0 |
| 20260905022758 | 22 | 223 | 6.4 | 19.3 | 0.00 | 0.08 | 0.08 | 52 | 1012.1 |
| 20260905022737 | 22 | 222 | 6.4 | 19.3 | 0.00 | 0.08 | 0.08 | 52 | 1012.1 |
| 20260905022638 | 22 | 250 | 6.4 | 19.3 | 0.00 | 0.08 | 0.08 | 52 | 1012.1 |
| 20260905022538 | 22 | 235 | 6.4 | 19.3 | 0.00 | 0.08 | 0.08 | 52 | 1012.1 |
| 20260905022517 | 22 | 238 | 4.8 | 19.3 | 0.00 | 0.08 | 0.08 | 51 | 1012.0 |
| 20260905022436 | 22 | 221 | 6.4 | 19.3 | 0.00 | 0.08 | 0.08 | 51 | 1012.1 |
| 20260905022401 | 22 | 226 | 6.4 | 19.3 | 0.00 | 0.08 | 0.08 | 51 | 1012.1 |
| 20260905022230 | 22 | 249 | 4.8 | 19.3 | 0.00 | 0.08 | 0.08 | 50 | 1012.0 |
| 20260905022130 | 22 | 235 | 4.8 | 19.3 | 0.00 | 0.08 | 0.08 | 49 | 1012.0 |
| 20260905022030 | 22 | 240 | 3.2 | 19.3 | 0.00 | 0.08 | 0.08 | 49 | 1012.1 |
| 20260905021929 | 23 | 229 | 3.2 | 19.3 | 0.00 | 0.08 | 0.08 | 48 | 1012.0 |
| 20260905021826 | 23 | 136 | 3.2 | 9.7 | 0.00 | 0.08 | 0.08 | 46 | 1012.0 |
| 20260905021744 | 23 | 157 | 3.2 | 8.0 | 0.00 | 0.08 | 0.08 | 45 | 1012.0 |
| 20260905021726 | 23 | 228 | 3.2 | 8.0 | 0.00 | 0.08 | 0.08 | 45 | 1012.0 |
| 20260905021625 | 23 | 235 | 3.2 | 8.0 | 0.00 | 0.08 | 0.08 | 45 | 1012.0 |
| 20260905021526 | 23 | 170 | 3.2 | 8.0 | 0.00 | 0.08 | 0.08 | 44 | 1012.0 |
| 20260905021500 | 23 | 243 | 3.2 | 6.4 | 0.00 | 0.08 | 0.08 | 44 | 1011.9 |
| 20260905021423 | 23 | 226 | 3.2 | 8.0 | 0.00 | 0.08 | 0.08 | 44 | 1011.9 |
| 20260905021349 | 23 | 198 | 3.2 | 8.0 | 0.00 | 0.08 | 0.08 | 44 | 1011.9 |
| 20260905021228 | 23 | 193 | 3.2 | 6.4 | 0.00 | 0.08 | 0.08 | 44 | 1011.9 |
| 20260905021219 | 23 | 229 | 3.2 | 6.4 | 0.00 | 0.08 | 0.08 | 44 | 1011.9 |
| 20260905021119 | 23 | 229 | 3.2 | 6.4 | 0.00 | 0.08 | 0.08 | 44 | 1012.0 |
| 20260905021109 | 23 | 229 | 3.2 | 6.4 | 0.00 | 0.08 | 0.08 | 44 | 1012.0 |
| 20260905020923 | 23 | 229 | 3.2 | 6.4 | 0.00 | 0.08 | 0.08 | 44 | 1011.9 |
| 20260905020843 | 23 | 141 | 3.2 | 6.4 | 0.00 | 0.08 | 0.08 | 44 | 1011.9 |
| 20260905020712 | 23 | 203 | 3.2 | 6.4 | 0.00 | 0.08 | 0.08 | 44 | 1011.9 |
| 20260905020612 | 23 | 207 | 3.2 | 8.0 | 0.00 | 0.08 | 0.08 | 44 | 1011.9 |
| 20260905020512 | 23 | 233 | 3.2 | 8.0 | 0.00 | 0.08 | 0.08 | 43 | 1011.9 |
| 20260905020411 | 23 | 229 | 3.2 | 11.3 | 0.00 | 0.08 | 0.08 | 44 | 1011.9 |
| 20260905020306 | 23 | 229 | 3.2 | 11.3 | 0.00 | 0.08 | 0.08 | 44 | 1012.0 |
| 20260905020240 | 23 | 200 | 3.2 | 11.3 | 0.00 | 0.08 | 0.08 | 44 | 1012.0 |
| 20260905020206 | 23 | 200 | 3.2 | 11.3 | 0.00 | 0.08 | 0.08 | 43 | 1011.9 |
| 20260905020106 | 23 | 200 | 3.2 | 11.3 | 0.00 | 0.08 | 0.08 | 43 | 1012.0 |
| 20260905020006 | 23 | 188 | 3.2 | 11.3 | 0.00 | 0.08 | 0.08 | 43 | 1012.0 |
| 20260905015906 | 23 | 228 | 3.2 | 11.3 | 0.00 | 0.08 | 0.08 | 43 | 1012.0 |
| 20260905015800 | 23 | 235 | 3.2 | 11.3 | 0.00 | 0.08 | 0.08 | 43 | 1012.0 |
| 20260905015720 | 23 | 215 | 3.2 | 11.3 | 0.00 | 0.08 | 0.08 | 43 | 1012.0 |
| 20260905015701 | 23 | 246 | 3.2 | 11.3 | 0.00 | 0.08 | 0.08 | 43 | 1012.0 |
| 20260905015559 | 23 | 226 | 1.6 | 11.3 | 0.00 | 0.08 | 0.08 | 43 | 1012.1 |
| 20260905015459 | 23 | 211 | 1.6 | 11.3 | 0.00 | 0.08 | 0.08 | 43 | 1012.0 |
| 20260905015400 | 23 | 226 | 1.6 | 6.4 | 0.00 | 0.08 | 0.08 | 43 | 1012.0 |
| 20260905015300 | 23 | 246 | 1.6 | 6.4 | 0.00 | 0.08 | 0.08 | 43 | 1012.0 |
| 20260905015214 | 23 | 246 | 1.6 | 6.4 | 0.00 | 0.08 | 0.08 | 43 | 1012.0 |
| 20260905015158 | 23 | 246 | 1.6 | 6.4 | 0.00 | 0.08 | 0.08 | 43 | 1012.0 |
| 20260905015055 | 23 | 246 | 3.2 | 6.4 | 0.00 | 0.08 | 0.08 | 43 | 1012.1 |
| 20260905014956 | 23 | 246 | 3.2 | 9.7 | 0.00 | 0.08 | 0.08 | 43 | 1012.0 |
| 20260905014853 | 23 | 231 | 3.2 | 9.7 | 0.00 | 0.08 | 0.08 | 43 | 1012.0 |
| 20260905014750 | 23 | 231 | 3.2 | 9.7 | 0.00 | 0.08 | 0.08 | 43 | 1012.1 |
| 20260905014708 | 23 | 231 | 3.2 | 9.7 | 0.00 | 0.08 | 0.08 | 43 | 1012.1 |
| 20260905014651 | 23 | 230 | 4.8 | 9.7 | 0.00 | 0.08 | 0.08 | 43 | 1012.1 |
| 20260905014548 | 23 | 240 | 4.8 | 12.9 | 0.00 | 0.08 | 0.08 | 43 | 1012.0 |
| 20260905014447 | 23 | 267 | 4.8 | 12.9 | 0.00 | 0.08 | 0.08 | 43 | 1012.0 |
| 20260905014347 | 23 | 231 | 4.8 | 12.9 | 0.00 | 0.08 | 0.08 | 42 | 1012.0 |
| 20260905014241 | 23 | 207 | 4.8 | 12.9 | 0.00 | 0.08 | 0.08 | 42 | 1012.0 |
| 20260905014203 | 23 | 214 | 4.8 | 12.9 | 0.00 | 0.08 | 0.08 | 42 | 1012.0 |
| 20260905014142 | 23 | 215 | 4.8 | 12.9 | 0.00 | 0.08 | 0.08 | 42 | 1012.0 |
| 20260905014042 | 23 | 240 | 4.8 | 12.9 | 0.00 | 0.08 | 0.08 | 42 | 1012.0 |
| 20260905013942 | 23 | 262 | 4.8 | 12.9 | 0.00 | 0.08 | 0.08 | 42 | 1012.0 |
| 20260905013841 | 23 | 200 | 4.8 | 12.9 | 0.00 | 0.08 | 0.08 | 41 | 1012.0 |
| 20260905013737 | 23 | 198 | 4.8 | 12.9 | 0.00 | 0.08 | 0.08 | 41 | 1012.0 |
| 20260905013701 | 23 | 242 | 4.8 | 12.9 | 0.00 | 0.08 | 0.08 | 41 | 1012.0 |
| 20260905013636 | 23 | 201 | 4.8 | 12.9 | 0.00 | 0.08 | 0.08 | 41 | 1012.0 |
| 20260905013536 | 23 | 188 | 3.2 | 11.3 | 0.00 | 0.08 | 0.08 | 42 | 1012.0 |
| 20260905013435 | 23 | 143 | 4.8 | 11.3 | 0.00 | 0.08 | 0.08 | 42 | 1012.0 |
| 20260905013335 | 23 | 121 | 4.8 | 11.3 | 0.00 | 0.08 | 0.08 | 41 | 1012.0 |
| 20260905013232 | 23 | 217 | 4.8 | 11.3 | 0.00 | 0.08 | 0.08 | 41 | 1012.0 |
| 20260905013151 | 23 | 226 | 4.8 | 11.3 | 0.00 | 0.08 | 0.08 | 41 | 1012.0 |
| 20260905013130 | 23 | 212 | 4.8 | 11.3 | 0.00 | 0.08 | 0.08 | 41 | 1012.0 |
| 20260905013030 | 23 | 238 | 4.8 | 11.3 | 0.00 | 0.08 | 0.08 | 41 | 1012.0 |
| 20260905012929 | 23 | 160 | 4.8 | 11.3 | 0.00 | 0.08 | 0.08 | 41 | 1011.9 |
| 20260905012830 | 23 | 210 | 4.8 | 11.3 | 0.00 | 0.08 | 0.08 | 41 | 1012.0 |
| 20260905012724 | 23 | 138 | 4.8 | 11.3 | 0.00 | 0.08 | 0.08 | 41 | 1012.0 |
| 20260905012645 | 23 | 201 | 4.8 | 11.3 | 0.00 | 0.08 | 0.08 | 41 | 1011.9 |
| 20260905012624 | 23 | 226 | 4.8 | 11.3 | 0.00 | 0.08 | 0.08 | 41 | 1011.9 |
| 20260905012523 | 23 | 186 | 4.8 | 12.9 | 0.00 | 0.08 | 0.08 | 41 | 1011.9 |
| 20260905012423 | 23 | 158 | 4.8 | 12.9 | 0.00 | 0.08 | 0.08 | 41 | 1012.0 |
| 20260905012323 | 23 | 177 | 4.8 | 12.9 | 0.00 | 0.08 | 0.08 | 41 | 1011.9 |
| 20260905012218 | 23 | 253 | 4.8 | 12.9 | 0.00 | 0.08 | 0.08 | 40 | 1011.9 |
| 20260905012138 | 23 | 212 | 4.8 | 12.9 | 0.00 | 0.08 | 0.08 | 40 | 1012.0 |
| 20260905012118 | 23 | 203 | 4.8 | 12.9 | 0.00 | 0.08 | 0.08 | 40 | 1012.0 |
| 20260905012017 | 23 | 231 | 4.8 | 12.9 | 0.00 | 0.08 | 0.08 | 40 | 1011.9 |
| 20260905011918 | 23 | 231 | 4.8 | 12.9 | 0.00 | 0.08 | 0.08 | 40 | 1011.9 |
| 20260905011817 | 23 | 217 | 4.8 | 12.9 | 0.00 | 0.08 | 0.08 | 40 | 1011.9 |
| 20260905011712 | 23 | 273 | 6.4 | 12.9 | 0.00 | 0.08 | 0.08 | 39 | 1011.9 |
| 20260905011636 | 23 | 233 | 6.4 | 12.9 | 0.00 | 0.08 | 0.08 | 39 | 1011.9 |
| 20260905011612 | 23 | 240 | 4.8 | 14.5 | 0.00 | 0.08 | 0.08 | 39 | 1011.9 |
| 20260905011512 | 23 | 212 | 4.8 | 14.5 | 0.00 | 0.08 | 0.08 | 39 | 1011.8 |
| 20260905011412 | 23 | 252 | 4.8 | 14.5 | 0.00 | 0.08 | 0.08 | 39 | 1011.9 |
| 20260905011311 | 23 | 246 | 4.8 | 14.5 | 0.00 | 0.08 | 0.08 | 39 | 1011.8 |
| 20260905011206 | 23 | 223 | 4.8 | 14.5 | 0.00 | 0.08 | 0.08 | 39 | 1011.8 |
| 20260905011138 | 23 | 204 | 4.8 | 14.5 | 0.00 | 0.08 | 0.08 | 39 | 1011.8 |
| 20260905011106 | 23 | 138 | 4.8 | 14.5 | 0.00 | 0.08 | 0.08 | 39 | 1011.8 |
| 20260905011005 | 23 | 154 | 3.2 | 14.5 | 0.00 | 0.08 | 0.08 | 39 | 1011.9 |
| 20260905010906 | 23 | 219 | 3.2 | 14.5 | 0.00 | 0.08 | 0.08 | 39 | 1011.9 |
| 20260905010805 | 23 | 243 | 3.2 | 14.5 | 0.00 | 0.08 | 0.08 | 38 | 1011.9 |
| 20260905010659 | 23 | 253 | 3.2 | 14.5 | 0.00 | 0.08 | 0.08 | 39 | 1011.9 |
| 20260905010634 | 23 | 229 | 3.2 | 14.5 | 0.00 | 0.08 | 0.08 | 39 | 1011.9 |
| 20260905010559 | 23 | 236 | 3.2 | 9.7 | 0.00 | 0.08 | 0.08 | 39 | 1011.9 |
| 20260905010459 | 23 | 170 | 4.8 | 9.7 | 0.00 | 0.08 | 0.08 | 39 | 1011.9 |
| 20260905010400 | 23 | 210 | 4.8 | 12.9 | 0.00 | 0.08 | 0.08 | 38 | 1011.9 |
| 20260905010259 | 23 | 167 | 4.8 | 12.9 | 0.00 | 0.08 | 0.08 | 39 | 1011.9 |
| 20260905010156 | 23 | 211 | 4.8 | 12.9 | 0.00 | 0.08 | 0.08 | 39 | 1011.9 |
| 20260905010135 | 23 | 228 | 4.8 | 12.9 | 0.00 | 0.08 | 0.08 | 39 | 1011.9 |
| 20260905010053 | 23 | 197 | 4.8 | 12.9 | 0.00 | 0.08 | 0.08 | 39 | 1011.9 |
| 20260905005954 | 23 | 197 | 4.8 | 12.9 | 0.00 | 0.08 | 0.08 | 38 | 1011.9 |
| 20260905005854 | 23 | 212 | 4.8 | 12.9 | 0.00 | 0.08 | 0.08 | 38 | 1011.9 |
| 20260905005753 | 23 | 225 | 4.8 | 12.9 | 0.00 | 0.08 | 0.08 | 38 | 1011.9 |
| 20260905005650 | 23 | 262 | 4.8 | 12.9 | 0.00 | 0.08 | 0.08 | 38 | 1011.9 |
| 20260905005634 | 23 | 238 | 4.8 | 12.9 | 0.00 | 0.08 | 0.08 | 38 | 1011.9 |
| 20260905005548 | 23 | 250 | 4.8 | 12.9 | 0.00 | 0.08 | 0.08 | 37 | 1011.9 |
| 20260905005448 | 23 | 226 | 4.8 | 12.9 | 0.00 | 0.08 | 0.08 | 37 | 1011.8 |
| 20260905005348 | 24 | 226 | 3.2 | 11.3 | 0.00 | 0.08 | 0.08 | 37 | 1011.8 |
| 20260905005247 | 24 | 240 | 3.2 | 11.3 | 0.00 | 0.08 | 0.08 | 37 | 1011.9 |
| 20260905005149 | 24 | 239 | 3.2 | 11.3 | 0.00 | 0.08 | 0.08 | 38 | 1011.8 |
| 20260905005134 | 24 | 230 | 3.2 | 11.3 | 0.00 | 0.08 | 0.08 | 38 | 1011.8 |
| 20260905005045 | 24 | 168 | 3.2 | 11.3 | 0.00 | 0.08 | 0.08 | 37 | 1011.8 |
| 20260905004945 | 24 | 168 | 3.2 | 11.3 | 0.00 | 0.08 | 0.08 | 36 | 1011.8 |
| 20260905004844 | 24 | 267 | 4.8 | 11.3 | 0.00 | 0.08 | 0.08 | 37 | 1011.9 |
| 20260905004741 | 24 | 260 | 4.8 | 12.9 | 0.00 | 0.08 | 0.08 | 37 | 1011.9 |
| 20260905004636 | 24 | 256 | 4.8 | 12.9 | 0.00 | 0.08 | 0.08 | 37 | 1011.9 |
| 20260905004535 | 24 | 243 | 4.8 | 12.9 | 0.00 | 0.08 | 0.08 | 36 | 1011.8 |
| 20260905004436 | 24 | 240 | 3.2 | 12.9 | 0.00 | 0.08 | 0.08 | 36 | 1011.8 |
| 20260905004356 | 24 | 232 | 4.8 | 12.9 | 0.00 | 0.08 | 0.08 | 36 | 1011.8 |
| 20260905004335 | 24 | 208 | 4.8 | 12.9 | 0.00 | 0.08 | 0.08 | 36 | 1011.9 |
| 20260905004246 | 24 | 231 | 4.8 | 12.9 | 0.00 | 0.08 | 0.08 | 36 | 1011.9 |
| 20260905004130 | 24 | 246 | 4.8 | 12.9 | 0.00 | 0.08 | 0.08 | 36 | 1011.8 |
| 20260905004029 | 24 | 229 | 4.8 | 12.9 | 0.00 | 0.08 | 0.08 | 36 | 1011.8 |
| 20260905003929 | 24 | 250 | 4.8 | 12.9 | 0.00 | 0.08 | 0.08 | 36 | 1011.8 |
| 20260905003830 | 24 | 249 | 3.2 | 9.7 | 0.00 | 0.08 | 0.08 | 35 | 1011.8 |
| 20260905003634 | 24 | 233 | 3.2 | 8.0 | 0.00 | 0.08 | 0.08 | 36 | 1011.8 |
| 20260905003626 | 24 | 193 | 3.2 | 8.0 | 0.00 | 0.08 | 0.08 | 36 | 1011.8 |
| 20260905003524 | 24 | 235 | 3.2 | 8.0 | 0.00 | 0.08 | 0.08 | 36 | 1011.8 |
| 20260905003424 | 24 | 239 | 1.6 | 8.0 | 0.00 | 0.08 | 0.08 | 35 | 1011.8 |
| 20260905003323 | 24 | 233 | 1.6 | 8.0 | 0.00 | 0.08 | 0.08 | 35 | 1011.8 |
| 20260905003224 | 24 | 243 | 1.6 | 8.0 | 0.00 | 0.08 | 0.08 | 34 | 1011.8 |
| 20260905003135 | 24 | 224 | 1.6 | 8.0 | 0.00 | 0.08 | 0.08 | 34 | 1011.9 |
| 20260905003125 | 24 | 224 | 1.6 | 6.4 | 0.00 | 0.08 | 0.08 | 35 | 1011.8 |
| 20260905003118 | 24 | 163 | 1.6 | 8.0 | 0.00 | 0.08 | 0.08 | 35 | 1011.8 |
| 20260905003013 | 24 | 225 | 1.6 | 8.0 | 0.00 | 0.08 | 0.08 | 36 | 1011.8 |
| 20260905002817 | 24 | 224 | 1.6 | 6.4 | 0.00 | 0.08 | 0.08 | 35 | 1011.8 |
| 20260905002746 | 24 | 224 | 1.6 | 6.4 | 0.00 | 0.08 | 0.08 | 36 | 1011.8 |
| 20260905002612 | 24 | 224 | 1.6 | 6.4 | 0.00 | 0.08 | 0.08 | 35 | 1011.8 |
| 20260905002512 | 24 | 232 | 1.6 | 6.4 | 0.00 | 0.08 | 0.08 | 35 | 1011.8 |
| 20260905002411 | 24 | 138 | 3.2 | 6.4 | 0.00 | 0.08 | 0.08 | 35 | 1011.9 |
| 20260905002312 | 24 | 155 | 3.2 | 12.9 | 0.00 | 0.08 | 0.08 | 35 | 1011.8 |
| 20260905002211 | 24 | 211 | 3.2 | 12.9 | 0.00 | 0.08 | 0.08 | 34 | 1011.9 |
| 20260905002133 | 24 | 211 | 3.2 | 12.9 | 0.00 | 0.08 | 0.08 | 34 | 1011.9 |
| 20260905002106 | 24 | 218 | 3.2 | 12.9 | 0.00 | 0.08 | 0.08 | 35 | 1011.9 |
| 20260905002006 | 24 | 149 | 4.8 | 12.9 | 0.00 | 0.08 | 0.08 | 34 | 1011.9 |
| 20260905001909 | 24 | 165 | 4.8 | 12.9 | 0.00 | 0.08 | 0.08 | 35 | 1011.9 |
| 20260905001806 | 24 | 231 | 4.8 | 12.9 | 0.00 | 0.08 | 0.08 | 34 | 1011.9 |
| 20260905001706 | 24 | 233 | 4.8 | 12.9 | 0.00 | 0.08 | 0.08 | 34 | 1011.9 |
| 20260905001633 | 24 | 233 | 4.8 | 12.9 | 0.00 | 0.08 | 0.08 | 34 | 1011.9 |
| 20260905001559 | 24 | 233 | 4.8 | 12.9 | 0.00 | 0.08 | 0.08 | 33 | 1011.9 |
| 20260905001459 | 24 | 270 | 4.8 | 12.9 | 0.00 | 0.08 | 0.08 | 33 | 1012.0 |
| 20260905001359 | 24 | 270 | 4.8 | 12.9 | 0.00 | 0.08 | 0.08 | 33 | 1012.0 |
| 20260905001300 | 24 | 255 | 4.8 | 12.9 | 0.00 | 0.08 | 0.08 | 33 | 1012.0 |
| 20260905001200 | 24 | 253 | 4.8 | 12.9 | 0.00 | 0.08 | 0.08 | 33 | 1012.0 |
| 20260905001133 | 24 | 255 | 4.8 | 12.9 | 0.00 | 0.08 | 0.08 | 33 | 1012.0 |
| 20260905001058 | 24 | 233 | 3.2 | 12.9 | 0.00 | 0.08 | 0.08 | 33 | 1012.0 |
| 20260905000958 | 24 | 188 | 3.2 | 12.9 | 0.00 | 0.08 | 0.08 | 33 | 1012.0 |
| 20260905000906 | 24 | 195 | 4.8 | 14.5 | 0.00 | 0.08 | 0.08 | 33 | 1012.0 |
| 20260905000857 | 24 | 240 | 4.8 | 12.9 | 0.00 | 0.08 | 0.08 | 34 | 1012.0 |
| 20260905000756 | 24 | 191 | 4.8 | 12.9 | 0.00 | 0.08 | 0.08 | 33 | 1012.0 |
| 20260905000745 | 24 | 188 | 4.8 | 14.5 | 0.00 | 0.08 | 0.08 | 33 | 1012.0 |
| 20260905000556 | 24 | 241 | 4.8 | 14.5 | 0.00 | 0.08 | 0.08 | 33 | 1012.1 |
| 20260905000455 | 24 | 238 | 4.8 | 16.1 | 0.00 | 0.08 | 0.08 | 35 | 1012.1 |
| 20260905000355 | 24 | 228 | 6.4 | 16.1 | 0.00 | 0.08 | 0.08 | 34 | 1012.0 |
| 20260905000255 | 24 | 132 | 6.4 | 16.1 | 0.00 | 0.08 | 0.08 | 34 | 1012.0 |
| 20260905000155 | 24 | 253 | 6.4 | 16.1 | 0.00 | 0.08 | 0.08 | 35 | 1012.1 |
| 20260905000133 | 24 | 253 | 6.4 | 16.1 | 0.00 | 0.08 | 0.08 | 34 | 1012.1 |
| 20260905000053 | 24 | 253 | 6.4 | 16.1 | 0.00 | 0.08 | 0.08 | 34 | 1012.1 |
| 20260904235954 | 24 | 221 | 6.4 | 16.1 | 0.00 | 0.08 | 0.08 | 33 | 1012.0 |
| 20260904235858 | 25 | 216 | 6.4 | 16.1 | 0.00 | 0.08 | 0.08 | 33 | 1012.0 |
| 20260904235853 | 25 | 218 | 6.4 | 16.1 | 0.00 | 0.08 | 0.08 | 33 | 1012.0 |
| 20260904235754 | 25 | 208 | 6.4 | 16.1 | 0.00 | 0.08 | 0.08 | 33 | 1012.0 |
| 20260904235743 | 25 | 229 | 6.4 | 16.1 | 0.00 | 0.08 | 0.08 | 33 | 1012.0 |
| 20260904235553 | 25 | 241 | 6.4 | 16.1 | 0.00 | 0.08 | 0.08 | 34 | 1012.0 |
| 20260904235452 | 25 | 248 | 6.4 | 16.1 | 0.00 | 0.08 | 0.08 | 35 | 1012.0 |
| 20260904235352 | 25 | 132 | 6.4 | 17.7 | 0.00 | 0.08 | 0.08 | 34 | 1012.0 |
| 20260904235251 | 25 | 240 | 8.0 | 17.7 | 0.00 | 0.08 | 0.08 | 36 | 1012.1 |
| 20260904235130 | 25 | 242 | 8.0 | 17.7 | 0.00 | 0.08 | 0.08 | 37 | 1012.1 |
| 20260904235051 | 25 | 212 | 8.0 | 17.7 | 0.00 | 0.08 | 0.08 | 36 | 1012.1 |
| 20260904234951 | 25 | 238 | 8.0 | 17.7 | 0.00 | 0.08 | 0.08 | 35 | 1012.0 |
| 20260904234846 | 25 | 241 | 8.0 | 17.7 | 0.00 | 0.08 | 0.08 | 33 | 1012.1 |
| 20260904234746 | 25 | 176 | 8.0 | 17.7 | 0.00 | 0.08 | 0.08 | 33 | 1012.1 |
| 20260904234646 | 25 | 225 | 6.4 | 17.7 | 0.00 | 0.08 | 0.08 | 33 | 1012.0 |
| 20260904234624 | 25 | 224 | 6.4 | 17.7 | 0.00 | 0.08 | 0.08 | 33 | 1012.0 |
| 20260904234546 | 25 | 205 | 6.4 | 17.7 | 0.00 | 0.08 | 0.08 | 33 | 1012.1 |
| 20260904234446 | 25 | 271 | 4.8 | 17.7 | 0.00 | 0.08 | 0.08 | 33 | 1012.1 |
| 20260904234343 | 25 | 233 | 3.2 | 12.9 | 0.00 | 0.08 | 0.08 | 34 | 1012.1 |
| 20260904234244 | 25 | 204 | 3.2 | 12.9 | 0.00 | 0.08 | 0.08 | 36 | 1012.1 |
| 20260904234145 | 25 | 174 | 3.2 | 12.9 | 0.00 | 0.08 | 0.08 | 36 | 1012.1 |
| 20260904234118 | 25 | 235 | 3.2 | 12.9 | 0.00 | 0.08 | 0.08 | 36 | 1012.1 |
| 20260904234042 | 25 | 229 | 4.8 | 14.5 | 0.00 | 0.08 | 0.08 | 37 | 1012.1 |
| 20260904233939 | 25 | 232 | 4.8 | 16.1 | 0.00 | 0.08 | 0.08 | 37 | 1012.1 |
| 20260904233835 | 25 | 228 | 3.2 | 16.1 | 0.00 | 0.08 | 0.08 | 37 | 1012.1 |
| 20260904233734 | 25 | 232 | 3.2 | 16.1 | 0.00 | 0.08 | 0.08 | 39 | 1012.2 |
| 20260904233612 | 25 | 211 | 3.2 | 16.1 | 0.00 | 0.08 | 0.08 | 40 | 1012.2 |
| 20260904233533 | 25 | 270 | 4.8 | 16.1 | 0.00 | 0.08 | 0.08 | 40 | 1012.2 |
| 20260904233434 | 25 | 274 | 4.8 | 16.1 | 0.00 | 0.08 | 0.08 | 41 | 1012.2 |
| 20260904233327 | 25 | 139 | 4.8 | 16.1 | 0.00 | 0.08 | 0.08 | 41 | 1012.2 |
| 20260904233228 | 25 | 219 | 4.8 | 16.1 | 0.00 | 0.08 | 0.08 | 40 | 1012.2 |
| 20260904233128 | 25 | 239 | 4.8 | 16.1 | 0.00 | 0.08 | 0.08 | 40 | 1012.2 |
| 20260904233107 | 25 | 217 | 3.2 | 16.1 | 0.00 | 0.08 | 0.08 | 40 | 1012.2 |
| 20260904233028 | 25 | 253 | 3.2 | 9.7 | 0.00 | 0.08 | 0.08 | 41 | 1012.2 |
| 20260904232927 | 25 | 241 | 3.2 | 9.7 | 0.00 | 0.08 | 0.08 | 42 | 1012.1 |
| 20260904232827 | 25 | 111 | 1.6 | 9.7 | 0.00 | 0.08 | 0.08 | 41 | 1012.2 |
| 20260904232822 | 25 | 228 | 3.2 | 9.7 | 0.00 | 0.08 | 0.08 | 41 | 1012.2 |
| 20260904232721 | 25 | 228 | 3.2 | 9.7 | 0.00 | 0.08 | 0.08 | 41 | 1012.1 |
| 20260904232712 | 25 | 228 | 3.2 | 9.7 | 0.00 | 0.08 | 0.08 | 41 | 1012.2 |
| 20260904232521 | 25 | 224 | 1.6 | 9.7 | 0.00 | 0.08 | 0.08 | 40 | 1012.2 |
| 20260904232421 | 26 | 239 | 1.6 | 9.7 | 0.00 | 0.08 | 0.08 | 40 | 1012.2 |
| 20260904232321 | 25 | 228 | 1.6 | 6.4 | 0.00 | 0.08 | 0.08 | 42 | 1012.2 |
| 20260904232315 | 26 | 228 | 1.6 | 6.4 | 0.00 | 0.08 | 0.08 | 42 | 1012.2 |
| 20260904232217 | 25 | 228 | 1.6 | 4.8 | 0.00 | 0.08 | 0.08 | 42 | 1012.2 |
| 20260904232209 | 25 | 228 | 1.6 | 6.4 | 0.00 | 0.08 | 0.08 | 42 | 1012.2 |
| 20260904232015 | 25 | 256 | 1.6 | 6.4 | 0.00 | 0.08 | 0.08 | 43 | 1012.2 |
| 20260904231914 | 25 | 179 | 1.6 | 6.4 | 0.00 | 0.08 | 0.08 | 42 | 1012.2 |
| 20260904231809 | 25 | 311 | 1.6 | 6.4 | 0.00 | 0.08 | 0.08 | 41 | 1012.2 |
| 20260904231710 | 25 | 310 | 3.2 | 6.4 | 0.00 | 0.08 | 0.08 | 41 | 1012.2 |
| 20260904231609 | 25 | 321 | 1.6 | 6.4 | 0.00 | 0.08 | 0.08 | 42 | 1012.3 |
| 20260904231548 | 25 | 315 | 1.6 | 6.4 | 0.00 | 0.08 | 0.08 | 42 | 1012.3 |
| 20260904231511 | 25 | 356 | 1.6 | 6.4 | 0.00 | 0.08 | 0.08 | 43 | 1012.2 |
| 20260904231409 | 25 | 355 | 3.2 | 6.4 | 0.00 | 0.08 | 0.08 | 43 | 1012.2 |
| 20260904231305 | 25 | 169 | 1.6 | 6.4 | 0.00 | 0.08 | 0.08 | 42 | 1012.3 |
| 20260904231205 | 25 | 221 | 3.2 | 8.0 | 0.00 | 0.08 | 0.08 | 42 | 1012.3 |
| 20260904231104 | 25 | 235 | 3.2 | 11.3 | 0.00 | 0.08 | 0.08 | 42 | 1012.3 |
| 20260904231041 | 25 | 217 | 3.2 | 11.3 | 0.00 | 0.08 | 0.08 | 42 | 1012.3 |
| 20260904231004 | 25 | 104 | 3.2 | 11.3 | 0.00 | 0.08 | 0.08 | 42 | 1012.3 |
| 20260904230905 | 25 | 238 | 4.8 | 11.3 | 0.00 | 0.08 | 0.08 | 42 | 1012.3 |
| 20260904230757 | 25 | 223 | 4.8 | 12.9 | 0.00 | 0.08 | 0.08 | 43 | 1012.4 |
| 20260904230658 | 25 | 150 | 4.8 | 12.9 | 0.00 | 0.08 | 0.08 | 43 | 1012.4 |
| 20260904230536 | 25 | 225 | 4.8 | 12.9 | 0.00 | 0.08 | 0.08 | 43 | 1012.4 |
| 20260904230458 | 25 | 224 | 6.4 | 12.9 | 0.00 | 0.08 | 0.08 | 43 | 1012.4 |
| 20260904230357 | 25 | 173 | 6.4 | 14.5 | 0.00 | 0.08 | 0.08 | 44 | 1012.4 |
| 20260904230253 | 25 | 243 | 6.4 | 14.5 | 0.00 | 0.08 | 0.08 | 43 | 1012.4 |
| 20260904230152 | 25 | 241 | 6.4 | 14.5 | 0.00 | 0.08 | 0.08 | 42 | 1012.4 |
| 20260904230053 | 25 | 231 | 6.4 | 14.5 | 0.00 | 0.08 | 0.08 | 42 | 1012.4 |
| 20260904230043 | 25 | 241 | 6.4 | 14.5 | 0.00 | 0.08 | 0.08 | 42 | 1012.4 |
| 20260904225952 | 25 | 252 | 6.4 | 14.5 | 0.00 | 0.08 | 0.08 | 42 | 1012.5 |
| 20260904225851 | 25 | 193 | 6.4 | 14.5 | 0.00 | 0.08 | 0.08 | 42 | 1012.4 |
| 20260904225745 | 25 | 239 | 4.8 | 14.5 | 0.00 | 0.08 | 0.08 | 42 | 1012.4 |
| 20260904225650 | 25 | 214 | 4.8 | 14.5 | 0.00 | 0.08 | 0.08 | 42 | 1012.4 |
| 20260904225545 | 25 | 231 | 4.8 | 14.5 | 0.00 | 0.08 | 0.08 | 42 | 1012.5 |
| 20260904225525 | 25 | 242 | 4.8 | 14.5 | 0.00 | 0.08 | 0.08 | 42 | 1012.5 |
| 20260904225446 | 25 | 232 | 4.8 | 14.5 | 0.00 | 0.08 | 0.08 | 43 | 1012.5 |
| 20260904225345 | 25 | 216 | 4.8 | 12.9 | 0.00 | 0.08 | 0.08 | 44 | 1012.4 |
| 20260904225242 | 25 | 208 | 4.8 | 12.9 | 0.00 | 0.08 | 0.08 | 44 | 1012.5 |
| 20260904225141 | 25 | 232 | 4.8 | 12.9 | 0.00 | 0.08 | 0.08 | 43 | 1012.4 |
| 20260904225040 | 25 | 200 | 4.8 | 12.9 | 0.00 | 0.08 | 0.08 | 44 | 1012.4 |
| 20260904225028 | 25 | 236 | 4.8 | 12.9 | 0.00 | 0.08 | 0.08 | 44 | 1012.4 |
| 20260904224940 | 25 | 355 | 4.8 | 12.9 | 0.00 | 0.08 | 0.08 | 43 | 1012.5 |
| 20260904224839 | 25 | 215 | 4.8 | 12.9 | 0.00 | 0.08 | 0.08 | 44 | 1012.4 |
| 20260904224737 | 25 | 243 | 3.2 | 12.9 | 0.00 | 0.08 | 0.08 | 43 | 1012.5 |
| 20260904224633 | 25 | 256 | 3.2 | 12.9 | 0.00 | 0.08 | 0.08 | 43 | 1012.5 |
| 20260904224534 | 25 | 229 | 3.2 | 11.3 | 0.00 | 0.08 | 0.08 | 42 | 1012.5 |
| 20260904224512 | 25 | 210 | 3.2 | 9.7 | 0.00 | 0.08 | 0.08 | 42 | 1012.5 |
| 20260904224433 | 25 | 212 | 3.2 | 9.7 | 0.00 | 0.08 | 0.08 | 42 | 1012.5 |
| 20260904224334 | 25 | 217 | 3.2 | 14.5 | 0.00 | 0.08 | 0.08 | 43 | 1012.5 |
| 20260904224234 | 25 | 215 | 3.2 | 14.5 | 0.00 | 0.08 | 0.08 | 43 | 1012.5 |
| 20260904224131 | 25 | 245 | 3.2 | 14.5 | 0.00 | 0.08 | 0.08 | 44 | 1012.5 |
| 20260904224029 | 25 | 236 | 4.8 | 22.5 | 0.00 | 0.08 | 0.08 | 43 | 1012.5 |
| 20260904224006 | 25 | 198 | 4.8 | 22.5 | 0.00 | 0.08 | 0.08 | 44 | 1012.5 |
| 20260904223930 | 25 | 250 | 4.8 | 22.5 | 0.00 | 0.08 | 0.08 | 45 | 1012.5 |
| 20260904223827 | 25 | 233 | 4.8 | 22.5 | 0.00 | 0.08 | 0.08 | 44 | 1012.5 |
| 20260904223725 | 25 | 269 | 4.8 | 22.5 | 0.00 | 0.08 | 0.08 | 44 | 1012.5 |
| 20260904223622 | 25 | 249 | 4.8 | 22.5 | 0.00 | 0.08 | 0.08 | 45 | 1012.6 |
| 20260904223522 | 25 | 250 | 4.8 | 22.5 | 0.00 | 0.08 | 0.08 | 43 | 1012.6 |
| 20260904223501 | 25 | 250 | 4.8 | 22.5 | 0.00 | 0.08 | 0.08 | 43 | 1012.6 |
| 20260904223421 | 25 | 235 | 4.8 | 22.5 | 0.00 | 0.08 | 0.08 | 44 | 1012.6 |
| 20260904223321 | 25 | 217 | 4.8 | 22.5 | 0.00 | 0.08 | 0.08 | 43 | 1012.7 |
| 20260904223220 | 25 | 211 | 4.8 | 12.9 | 0.00 | 0.08 | 0.08 | 42 | 1012.7 |
| 20260904223216 | 25 | 233 | 4.8 | 22.5 | 0.00 | 0.08 | 0.08 | 42 | 1012.6 |
| 20260904223115 | 25 | 150 | 4.8 | 22.5 | 0.00 | 0.08 | 0.08 | 42 | 1012.7 |
| 20260904223105 | 25 | 193 | 4.8 | 12.9 | 0.00 | 0.08 | 0.08 | 42 | 1012.7 |
| 20260904222916 | 25 | 197 | 4.8 | 12.9 | 0.00 | 0.08 | 0.08 | 42 | 1012.7 |
| 20260904222815 | 25 | 228 | 4.8 | 12.9 | 0.00 | 0.08 | 0.08 | 42 | 1012.6 |
| 20260904222715 | 25 | 132 | 4.8 | 12.9 | 0.00 | 0.08 | 0.08 | 42 | 1012.7 |
| 20260904222615 | 25 | 248 | 4.8 | 12.9 | 0.00 | 0.08 | 0.08 | 43 | 1012.7 |
| 20260904222513 | 25 | 249 | 4.8 | 12.9 | 0.00 | 0.08 | 0.08 | 42 | 1012.7 |
| 20260904222459 | 25 | 248 | 4.8 | 12.9 | 0.00 | 0.08 | 0.08 | 42 | 1012.7 |
| 20260904222411 | 25 | 235 | 4.8 | 12.9 | 0.00 | 0.08 | 0.08 | 41 | 1012.7 |
| 20260904222309 | 25 | 221 | 4.8 | 12.9 | 0.00 | 0.08 | 0.08 | 42 | 1012.7 |
| 20260904222205 | 25 | 181 | 4.8 | 12.9 | 0.00 | 0.08 | 0.08 | 41 | 1012.7 |
| 20260904222104 | 25 | 150 | 4.8 | 12.9 | 0.00 | 0.08 | 0.08 | 42 | 1012.7 |
| 20260904222005 | 25 | 146 | 4.8 | 12.9 | 0.00 | 0.08 | 0.08 | 42 | 1012.6 |
| 20260904221954 | 25 | 188 | 4.8 | 12.9 | 0.00 | 0.08 | 0.08 | 42 | 1012.6 |
| 20260904221905 | 26 | 231 | 3.2 | 12.9 | 0.00 | 0.08 | 0.08 | 42 | 1012.7 |
| 20260904221803 | 26 | 223 | 3.2 | 11.3 | 0.00 | 0.08 | 0.08 | 42 | 1012.7 |
| 20260904221700 | 26 | 110 | 3.2 | 9.7 | 0.00 | 0.08 | 0.08 | 42 | 1012.7 |
| 20260904221600 | 26 | 156 | 3.2 | 9.7 | 0.00 | 0.08 | 0.08 | 43 | 1012.7 |
| 20260904221505 | 26 | 194 | 3.2 | 9.7 | 0.00 | 0.08 | 0.08 | 43 | 1012.7 |
| 20260904221455 | 26 | 200 | 3.2 | 9.7 | 0.00 | 0.08 | 0.08 | 43 | 1012.7 |
| 20260904221400 | 26 | 225 | 3.2 | 9.7 | 0.00 | 0.08 | 0.08 | 43 | 1012.7 |
| 20260904221257 | 26 | 233 | 3.2 | 9.7 | 0.00 | 0.08 | 0.08 | 42 | 1012.7 |
| 20260904221152 | 26 | 262 | 4.8 | 11.3 | 0.00 | 0.08 | 0.08 | 43 | 1012.6 |
| 20260904221052 | 25 | 248 | 4.8 | 12.9 | 0.00 | 0.08 | 0.08 | 43 | 1012.7 |
| 20260904220957 | 25 | 135 | 4.8 | 12.9 | 0.00 | 0.08 | 0.08 | 43 | 1012.6 |
| 20260904220951 | 25 | 136 | 4.8 | 12.9 | 0.00 | 0.08 | 0.08 | 43 | 1012.6 |
| 20260904220852 | 25 | 119 | 4.8 | 12.9 | 0.00 | 0.08 | 0.08 | 44 | 1012.6 |
| 20260904220752 | 25 | 134 | 6.4 | 12.9 | 0.00 | 0.08 | 0.08 | 43 | 1012.6 |
| 20260904220709 | 25 | 238 | 6.4 | 12.9 | 0.00 | 0.08 | 0.08 | 44 | 1012.7 |
| 20260904220648 | 25 | 143 | 6.4 | 12.9 | 0.00 | 0.08 | 0.08 | 44 | 1012.7 |
| 20260904220603 | 25 | 161 | 6.4 | 12.9 | 0.00 | 0.08 | 0.08 | 43 | 1012.7 |
| 20260904220446 | 25 | 248 | 6.4 | 12.9 | 0.00 | 0.08 | 0.08 | 44 | 1012.7 |
| 20260904220345 | 25 | 236 | 6.4 | 12.9 | 0.00 | 0.08 | 0.08 | 44 | 1012.7 |
| 20260904220246 | 25 | 183 | 6.4 | 14.5 | 0.00 | 0.08 | 0.08 | 44 | 1012.7 |
| 20260904220142 | 25 | 117 | 6.4 | 16.1 | 0.00 | 0.08 | 0.08 | 45 | 1012.8 |
| 20260904220040 | 25 | 163 | 8.0 | 17.7 | 0.00 | 0.08 | 0.08 | 45 | 1012.7 |
| 20260904215949 | 25 | 160 | 8.0 | 17.7 | 0.00 | 0.08 | 0.08 | 44 | 1012.7 |
| 20260904215940 | 25 | 138 | 8.0 | 17.7 | 0.00 | 0.08 | 0.08 | 44 | 1012.7 |
| 20260904215839 | 25 | 197 | 8.0 | 17.7 | 0.00 | 0.08 | 0.08 | 45 | 1012.7 |
| 20260904215740 | 25 | 228 | 8.0 | 17.7 | 0.00 | 0.08 | 0.08 | 45 | 1012.7 |
| 20260904215635 | 25 | 236 | 8.0 | 17.7 | 0.00 | 0.08 | 0.08 | 45 | 1012.7 |
| 20260904215534 | 25 | 259 | 8.0 | 17.7 | 0.00 | 0.08 | 0.08 | 44 | 1012.7 |
| 20260904215449 | 25 | 195 | 8.0 | 17.7 | 0.00 | 0.08 | 0.08 | 44 | 1012.7 |
| 20260904215434 | 25 | 246 | 8.0 | 17.7 | 0.00 | 0.08 | 0.08 | 44 | 1012.7 |
| 20260904215334 | 25 | 260 | 6.4 | 17.7 | 0.00 | 0.08 | 0.08 | 44 | 1012.7 |
| 20260904215234 | 25 | 243 | 6.4 | 17.7 | 0.00 | 0.08 | 0.08 | 44 | 1012.7 |
| 20260904215128 | 25 | 245 | 4.8 | 17.7 | 0.00 | 0.08 | 0.08 | 44 | 1012.7 |
| 20260904215027 | 25 | 146 | 4.8 | 14.5 | 0.00 | 0.08 | 0.08 | 43 | 1012.7 |
| 20260904214949 | 25 | 143 | 3.2 | 14.5 | 0.00 | 0.08 | 0.08 | 44 | 1012.7 |
| 20260904214928 | 25 | 149 | 3.2 | 14.5 | 0.00 | 0.08 | 0.08 | 44 | 1012.7 |
| 20260904214828 | 25 | 187 | 3.2 | 11.3 | 0.00 | 0.08 | 0.08 | 45 | 1012.7 |
| 20260904214728 | 25 | 141 | 3.2 | 11.3 | 0.00 | 0.08 | 0.08 | 44 | 1012.7 |
| 20260904214708 | 25 | 125 | 1.6 | 9.7 | 0.00 | 0.08 | 0.08 | 46 | 1012.7 |
| 20260904214621 | 25 | 200 | 1.6 | 9.7 | 0.00 | 0.08 | 0.08 | 44 | 1012.7 |
| 20260904214557 | 25 | 142 | 1.6 | 9.7 | 0.00 | 0.08 | 0.08 | 44 | 1012.6 |
| 20260904214421 | 25 | 145 | 1.6 | 9.7 | 0.00 | 0.08 | 0.08 | 46 | 1012.7 |
| 20260904214322 | 25 | 241 | 1.6 | 9.7 | 0.00 | 0.08 | 0.08 | 45 | 1012.6 |
| 20260904214222 | 25 | 214 | 1.6 | 9.7 | 0.00 | 0.08 | 0.08 | 45 | 1012.7 |
| 20260904214118 | 25 | 191 | 1.6 | 9.7 | 0.00 | 0.08 | 0.08 | 46 | 1012.7 |
| 20260904214016 | 25 | 235 | 3.2 | 9.7 | 0.00 | 0.08 | 0.08 | 46 | 1012.7 |
| 20260904213946 | 25 | 225 | 3.2 | 9.7 | 0.00 | 0.08 | 0.08 | 46 | 1012.7 |
| 20260904213915 | 25 | 219 | 3.2 | 9.7 | 0.00 | 0.08 | 0.08 | 46 | 1012.7 |
| 20260904213816 | 25 | 232 | 3.2 | 11.3 | 0.00 | 0.08 | 0.08 | 46 | 1012.7 |
| 20260904213716 | 25 | 226 | 4.8 | 11.3 | 0.00 | 0.08 | 0.08 | 47 | 1012.8 |
| 20260904213610 | 25 | 228 | 3.2 | 12.9 | 0.00 | 0.08 | 0.08 | 47 | 1012.8 |
| 20260904213510 | 25 | 230 | 4.8 | 12.9 | 0.00 | 0.08 | 0.08 | 47 | 1012.8 |
| 20260904213447 | 25 | 229 | 4.8 | 12.9 | 0.00 | 0.08 | 0.08 | 47 | 1012.8 |
| 20260904213409 | 25 | 245 | 3.2 | 12.9 | 0.00 | 0.08 | 0.08 | 47 | 1012.8 |
| 20260904213310 | 25 | 266 | 3.2 | 12.9 | 0.00 | 0.08 | 0.08 | 46 | 1012.8 |
| 20260904213210 | 25 | 232 | 3.2 | 12.9 | 0.00 | 0.08 | 0.08 | 47 | 1012.7 |
| 20260904213103 | 25 | 291 | 3.2 | 12.9 | 0.00 | 0.08 | 0.08 | 47 | 1012.8 |
| 20260904213004 | 25 | 222 | 3.2 | 12.9 | 0.00 | 0.08 | 0.08 | 47 | 1012.7 |
| 20260904212944 | 25 | 256 | 3.2 | 12.9 | 0.00 | 0.08 | 0.08 | 47 | 1012.7 |
| 20260904212904 | 25 | 123 | 3.2 | 12.9 | 0.00 | 0.08 | 0.08 | 47 | 1012.8 |
| 20260904212804 | 25 | 207 | 3.2 | 12.9 | 0.00 | 0.08 | 0.08 | 47 | 1012.8 |
| 20260904212704 | 25 | 233 | 3.2 | 11.3 | 0.00 | 0.08 | 0.08 | 47 | 1012.7 |
| 20260904212602 | 25 | 271 | 3.2 | 9.7 | 0.00 | 0.08 | 0.08 | 48 | 1012.7 |
| 20260904212501 | 25 | 252 | 3.2 | 9.7 | 0.00 | 0.08 | 0.08 | 49 | 1012.7 |
| 20260904212445 | 25 | 210 | 3.2 | 9.7 | 0.00 | 0.08 | 0.08 | 49 | 1012.7 |
| 20260904212402 | 25 | 321 | 3.2 | 9.7 | 0.00 | 0.08 | 0.08 | 48 | 1012.7 |
| 20260904212300 | 25 | 345 | 3.2 | 9.7 | 0.00 | 0.08 | 0.08 | 49 | 1012.7 |
| 20260904212158 | 25 | 315 | 3.2 | 9.7 | 0.00 | 0.08 | 0.08 | 48 | 1012.7 |
| 20260904212051 | 25 | 40 | 3.2 | 9.7 | 0.00 | 0.08 | 0.08 | 47 | 1012.8 |
| 20260904211958 | 25 | 103 | 3.2 | 9.7 | 0.00 | 0.08 | 0.08 | 47 | 1012.8 |
| 20260904211948 | 25 | 70 | 3.2 | 9.7 | 0.00 | 0.08 | 0.08 | 47 | 1012.8 |
| 20260904211852 | 25 | 236 | 3.2 | 9.7 | 0.00 | 0.08 | 0.08 | 47 | 1012.8 |
| 20260904211751 | 25 | 215 | 3.2 | 9.7 | 0.00 | 0.08 | 0.08 | 47 | 1012.8 |
| 20260904211652 | 25 | 212 | 1.6 | 8.0 | 0.00 | 0.08 | 0.08 | 47 | 1012.8 |
| 20260904211549 | 25 | 102 | 1.6 | 8.0 | 0.00 | 0.08 | 0.08 | 48 | 1012.8 |
| 20260904211449 | 25 | 114 | 1.6 | 8.0 | 0.00 | 0.08 | 0.08 | 49 | 1012.8 |
| 20260904211347 | 24 | 138 | 1.6 | 6.4 | 0.00 | 0.08 | 0.08 | 49 | 1012.8 |
| 20260904211248 | 24 | 136 | 3.2 | 9.7 | 0.00 | 0.08 | 0.08 | 49 | 1012.8 |
| 20260904211148 | 24 | 217 | 3.2 | 9.7 | 0.00 | 0.08 | 0.08 | 49 | 1012.7 |
| 20260904211040 | 24 | 230 | 3.2 | 9.7 | 0.00 | 0.08 | 0.08 | 49 | 1012.7 |
| 20260904210945 | 24 | 286 | 4.8 | 11.3 | 0.00 | 0.08 | 0.08 | 50 | 1012.8 |
| 20260904210939 | 24 | 287 | 4.8 | 11.3 | 0.00 | 0.08 | 0.08 | 50 | 1012.8 |
| 20260904210840 | 24 | 308 | 4.8 | 11.3 | 0.00 | 0.08 | 0.08 | 50 | 1012.8 |
| 20260904210741 | 24 | 195 | 4.8 | 11.3 | 0.00 | 0.08 | 0.08 | 50 | 1012.8 |
| 20260904210708 | 23 | 146 | 6.4 | 11.3 | 0.00 | 0.08 | 0.08 | 51 | 1012.9 |
| 20260904210639 | 24 | 242 | 4.8 | 11.3 | 0.00 | 0.08 | 0.08 | 50 | 1012.8 |
| 20260904210533 | 23 | 250 | 6.4 | 11.3 | 0.00 | 0.08 | 0.08 | 51 | 1012.9 |
| 20260904210434 | 23 | 114 | 6.4 | 12.9 | 0.00 | 0.08 | 0.08 | 51 | 1012.9 |
| 20260904210335 | 23 | 153 | 6.4 | 12.9 | 0.00 | 0.08 | 0.08 | 50 | 1012.9 |
| 20260904210234 | 23 | 231 | 6.4 | 12.9 | 0.00 | 0.08 | 0.08 | 50 | 1012.9 |
| 20260904210132 | 23 | 232 | 4.8 | 12.9 | 0.00 | 0.08 | 0.08 | 49 | 1012.9 |
| 20260904210026 | 24 | 248 | 4.8 | 12.9 | 0.00 | 0.08 | 0.08 | 49 | 1012.9 |
| 20260904205944 | 24 | 221 | 4.8 | 12.9 | 0.00 | 0.08 | 0.08 | 49 | 1012.9 |
| 20260904205925 | 24 | 242 | 4.8 | 12.9 | 0.00 | 0.08 | 0.08 | 49 | 1012.9 |
| 20260904205826 | 24 | 253 | 4.8 | 12.9 | 0.00 | 0.08 | 0.08 | 48 | 1012.9 |
| 20260904205727 | 24 | 214 | 4.8 | 14.5 | 0.00 | 0.08 | 0.08 | 48 | 1012.8 |
| 20260904205658 | 25 | 259 | 3.2 | 14.5 | 0.00 | 0.08 | 0.08 | 47 | 1012.8 |
| 20260904205623 | 24 | 172 | 4.8 | 14.5 | 0.00 | 0.08 | 0.08 | 48 | 1012.8 |
| 20260904205549 | 25 | 234 | 4.8 | 14.5 | 0.00 | 0.08 | 0.08 | 47 | 1012.8 |
| 20260904205418 | 25 | 236 | 3.2 | 14.5 | 0.00 | 0.08 | 0.08 | 48 | 1012.8 |
| 20260904205317 | 25 | 139 | 3.2 | 14.5 | 0.00 | 0.08 | 0.08 | 47 | 1012.8 |
| 20260904205217 | 25 | 232 | 3.2 | 14.5 | 0.00 | 0.08 | 0.08 | 47 | 1012.8 |
| 20260904205117 | 25 | 238 | 3.2 | 14.5 | 0.00 | 0.08 | 0.08 | 46 | 1012.9 |
| 20260904204932 | 25 | 239 | 3.2 | 14.5 | 0.00 | 0.08 | 0.08 | 45 | 1012.9 |
| 20260904204914 | 26 | 195 | 3.2 | 14.5 | 0.00 | 0.08 | 0.08 | 45 | 1012.9 |
| 20260904204814 | 26 | 214 | 3.2 | 12.9 | 0.00 | 0.08 | 0.08 | 45 | 1012.8 |
| 20260904204714 | 26 | 235 | 3.2 | 9.7 | 0.00 | 0.08 | 0.08 | 46 | 1012.8 |
| 20260904204652 | 25 | 121 | 3.2 | 16.1 | 0.00 | 0.08 | 0.08 | 47 | 1012.8 |
| 20260904204612 | 26 | 226 | 3.2 | 9.7 | 0.00 | 0.08 | 0.08 | 46 | 1012.8 |
| 20260904204539 | 25 | 240 | 3.2 | 16.1 | 0.00 | 0.08 | 0.08 | 47 | 1012.8 |
| 20260904204405 | 25 | 138 | 3.2 | 16.1 | 0.00 | 0.08 | 0.08 | 47 | 1012.8 |
| 20260904204305 | 25 | 135 | 4.8 | 16.1 | 0.00 | 0.08 | 0.08 | 47 | 1012.8 |
| 20260904204206 | 25 | 20 | 4.8 | 16.1 | 0.00 | 0.08 | 0.08 | 47 | 1012.9 |
| 20260904204141 | 25 | 129 | 4.8 | 16.1 | 0.00 | 0.08 | 0.08 | 48 | 1012.9 |
| 20260904204105 | 25 | 175 | 4.8 | 16.1 | 0.00 | 0.08 | 0.08 | 48 | 1012.9 |
| 20260904203904 | 25 | 239 | 4.8 | 16.1 | 0.00 | 0.08 | 0.08 | 49 | 1012.9 |
| 20260904203800 | 24 | 143 | 4.8 | 16.1 | 0.00 | 0.08 | 0.08 | 49 | 1012.9 |
| 20260904203700 | 24 | 146 | 3.2 | 16.1 | 0.00 | 0.08 | 0.08 | 49 | 1012.9 |
| 20260904203559 | 24 | 143 | 3.2 | 16.1 | 0.00 | 0.08 | 0.08 | 49 | 1012.9 |
| 20260904203454 | 24 | 153 | 3.2 | 11.3 | 0.00 | 0.08 | 0.08 | 49 | 1012.9 |
| 20260904203414 | 24 | 108 | 3.2 | 11.3 | 0.00 | 0.08 | 0.08 | 49 | 1013.0 |
| 20260904203353 | 24 | 49 | 3.2 | 11.3 | 0.00 | 0.08 | 0.08 | 50 | 1013.0 |
| 20260904203255 | 24 | 238 | 3.2 | 11.3 | 0.00 | 0.08 | 0.08 | 50 | 1012.9 |
| 20260904203154 | 24 | 186 | 3.2 | 11.3 | 0.00 | 0.08 | 0.08 | 50 | 1012.9 |
| 20260904203134 | 24 | 43 | 3.2 | 9.7 | 0.00 | 0.08 | 0.08 | 50 | 1012.9 |
| 20260904203052 | 24 | 183 | 1.6 | 11.3 | 0.00 | 0.08 | 0.08 | 50 | 1012.9 |
| 20260904203019 | 24 | 206 | 3.2 | 9.7 | 0.00 | 0.08 | 0.08 | 50 | 1012.9 |
| 20260904202848 | 24 | 43 | 3.2 | 9.7 | 0.00 | 0.08 | 0.08 | 50 | 1012.9 |
| 20260904202747 | 24 | 146 | 3.2 | 9.7 | 0.00 | 0.08 | 0.08 | 51 | 1012.9 |
| 20260904202649 | 23 | 147 | 3.2 | 9.7 | 0.00 | 0.08 | 0.08 | 51 | 1012.9 |
| 20260904202548 | 23 | 146 | 3.2 | 9.7 | 0.00 | 0.08 | 0.08 | 50 | 1012.9 |
| 20260904202444 | 23 | 146 | 3.2 | 9.7 | 0.00 | 0.08 | 0.08 | 50 | 1012.9 |
| 20260904202403 | 23 | 146 | 3.2 | 9.7 | 0.00 | 0.08 | 0.08 | 50 | 1013.0 |
| 20260904202342 | 23 | 146 | 3.2 | 9.7 | 0.00 | 0.08 | 0.08 | 51 | 1013.0 |
| 20260904202242 | 23 | 148 | 3.2 | 9.7 | 0.00 | 0.08 | 0.08 | 51 | 1012.9 |
| 20260904202143 | 23 | 204 | 3.2 | 9.7 | 0.00 | 0.08 | 0.08 | 51 | 1012.9 |
| 20260904202041 | 23 | 252 | 3.2 | 9.7 | 0.00 | 0.08 | 0.08 | 51 | 1013.0 |
| 20260904201940 | 23 | 174 | 1.6 | 9.7 | 0.00 | 0.08 | 0.08 | 51 | 1012.9 |
| 20260904201905 | 23 | 215 | 1.6 | 8.0 | 0.00 | 0.08 | 0.08 | 51 | 1013.0 |
| 20260904201840 | 23 | 226 | 1.6 | 8.0 | 0.00 | 0.08 | 0.08 | 52 | 1013.0 |
| 20260904201740 | 23 | 284 | 3.2 | 8.0 | 0.00 | 0.08 | 0.08 | 52 | 1012.9 |
| 20260904201638 | 23 | 284 | 3.2 | 8.0 | 0.00 | 0.08 | 0.08 | 53 | 1013.0 |
| 20260904201536 | 23 | 285 | 3.2 | 9.7 | 0.00 | 0.08 | 0.08 | 53 | 1013.0 |
| 20260904201432 | 23 | 145 | 3.2 | 9.7 | 0.00 | 0.08 | 0.08 | 52 | 1013.0 |
| 20260904201354 | 23 | 148 | 3.2 | 9.7 | 0.00 | 0.08 | 0.08 | 52 | 1013.0 |
| 20260904201330 | 23 | 139 | 3.2 | 9.7 | 0.00 | 0.08 | 0.08 | 52 | 1013.0 |
| 20260904201230 | 23 | 148 | 3.2 | 9.7 | 0.00 | 0.08 | 0.08 | 53 | 1013.0 |
| 20260904201129 | 23 | 222 | 3.2 | 9.7 | 0.00 | 0.08 | 0.08 | 54 | 1013.0 |
| 20260904201107 | 23 | 243 | 3.2 | 9.7 | 0.00 | 0.08 | 0.08 | 53 | 1013.0 |
| 20260904201029 | 23 | 235 | 3.2 | 9.7 | 0.00 | 0.08 | 0.08 | 54 | 1013.0 |
| 20260904200958 | 23 | 226 | 3.2 | 9.7 | 0.00 | 0.08 | 0.08 | 53 | 1013.0 |
| 20260904200824 | 23 | 236 | 3.2 | 9.7 | 0.00 | 0.08 | 0.08 | 52 | 1013.0 |
| 20260904200724 | 23 | 228 | 3.2 | 9.7 | 0.00 | 0.08 | 0.08 | 52 | 1012.9 |
| 20260904200624 | 23 | 143 | 3.2 | 9.7 | 0.00 | 0.08 | 0.08 | 53 | 1013.0 |
| 20260904200523 | 23 | 248 | 1.6 | 9.7 | 0.00 | 0.08 | 0.08 | 53 | 1013.0 |
| 20260904200421 | 23 | 211 | 1.6 | 9.7 | 0.00 | 0.08 | 0.08 | 53 | 1013.0 |
| 20260904200338 | 23 | 255 | 1.6 | 9.7 | 0.00 | 0.08 | 0.08 | 53 | 1013.0 |
| 20260904200322 | 23 | 239 | 1.6 | 9.7 | 0.00 | 0.08 | 0.08 | 53 | 1013.0 |
| 20260904200222 | 23 | 232 | 1.6 | 9.7 | 0.00 | 0.08 | 0.08 | 54 | 1013.0 |
| 20260904200120 | 23 | 219 | 1.6 | 4.8 | 0.00 | 0.08 | 0.08 | 53 | 1013.0 |
| 20260904200018 | 23 | 215 | 1.6 | 4.8 | 0.00 | 0.08 | 0.08 | 53 | 1013.0 |
| 20260904195912 | 23 | 185 | 1.6 | 4.8 | 0.00 | 0.08 | 0.08 | 53 | 1013.0 |
| 20260904195833 | 23 | 280 | 1.6 | 4.8 | 0.00 | 0.08 | 0.08 | 54 | 1013.0 |
| 20260904195812 | 23 | 311 | 1.6 | 4.8 | 0.00 | 0.08 | 0.08 | 55 | 1013.0 |
| 20260904195712 | 23 | 332 | 1.6 | 4.8 | 0.00 | 0.08 | 0.08 | 55 | 1013.1 |
| 20260904195612 | 23 | 334 | 1.6 | 4.8 | 0.00 | 0.08 | 0.08 | 55 | 1013.1 |
| 20260904195511 | 23 | 335 | 1.6 | 4.8 | 0.00 | 0.08 | 0.08 | 54 | 1013.1 |
| 20260904195407 | 23 | 330 | 1.6 | 4.8 | 0.00 | 0.08 | 0.08 | 53 | 1013.0 |
| 20260904195326 | 23 | 330 | 1.6 | 4.8 | 0.00 | 0.08 | 0.08 | 54 | 1013.0 |
| 20260904195306 | 23 | 326 | 1.6 | 4.8 | 0.00 | 0.08 | 0.08 | 55 | 1013.1 |
| 20260904195206 | 23 | 328 | 1.6 | 4.8 | 0.00 | 0.08 | 0.08 | 55 | 1013.1 |
| 20260904195106 | 23 | 330 | 1.6 | 4.8 | 0.00 | 0.08 | 0.08 | 54 | 1013.1 |
| 20260904195005 | 23 | 321 | 1.6 | 4.8 | 0.00 | 0.08 | 0.08 | 54 | 1013.1 |
| 20260904194905 | 23 | 321 | 1.6 | 6.4 | 0.00 | 0.08 | 0.08 | 53 | 1013.1 |
| 20260904194833 | 23 | 321 | 1.6 | 8.0 | 0.00 | 0.08 | 0.08 | 53 | 1013.1 |
| 20260904194803 | 23 | 321 | 1.6 | 9.7 | 0.00 | 0.08 | 0.08 | 53 | 1013.1 |
| 20260904194704 | 23 | 321 | 1.6 | 9.7 | 0.00 | 0.08 | 0.08 | 52 | 1013.2 |
| 20260904194601 | 23 | 321 | 3.2 | 9.7 | 0.00 | 0.08 | 0.08 | 52 | 1013.1 |
| 20260904194459 | 23 | 321 | 3.2 | 9.7 | 0.00 | 0.08 | 0.08 | 52 | 1013.2 |
| 20260904194400 | 24 | 321 | 3.2 | 9.7 | 0.00 | 0.08 | 0.08 | 52 | 1013.2 |
| 20260904194314 | 24 | 321 | 3.2 | 9.7 | 0.00 | 0.08 | 0.08 | 52 | 1013.2 |
| 20260904194258 | 24 | 321 | 3.2 | 9.7 | 0.00 | 0.08 | 0.08 | 52 | 1013.2 |
| 20260904194158 | 23 | 228 | 3.2 | 9.7 | 0.00 | 0.08 | 0.08 | 53 | 1013.2 |
| 20260904194056 | 23 | 228 | 3.2 | 9.7 | 0.00 | 0.08 | 0.08 | 52 | 1013.3 |
| 20260904193953 | 23 | 228 | 3.2 | 9.7 | 0.00 | 0.08 | 0.08 | 53 | 1013.3 |
| 20260904193851 | 23 | 172 | 3.2 | 9.7 | 0.00 | 0.08 | 0.08 | 52 | 1013.3 |
| 20260904193811 | 23 | 193 | 1.6 | 8.0 | 0.00 | 0.08 | 0.08 | 52 | 1013.2 |
| 20260904193752 | 23 | 208 | 1.6 | 8.0 | 0.00 | 0.08 | 0.08 | 52 | 1013.2 |
| 20260904193653 | 24 | 219 | 1.6 | 11.3 | 0.00 | 0.08 | 0.08 | 52 | 1013.2 |
| 20260904193550 | 24 | 229 | 1.6 | 11.3 | 0.00 | 0.08 | 0.08 | 51 | 1013.3 |
| 20260904193447 | 24 | 221 | 1.6 | 11.3 | 0.00 | 0.08 | 0.08 | 54 | 1013.3 |
| 20260904193342 | 24 | 287 | 1.6 | 11.3 | 0.00 | 0.08 | 0.08 | 53 | 1013.3 |
| 20260904193303 | 24 | 287 | 1.6 | 11.3 | 0.00 | 0.08 | 0.08 | 54 | 1013.3 |
| 20260904193242 | 24 | 300 | 1.6 | 11.3 | 0.00 | 0.08 | 0.08 | 54 | 1013.3 |
| 20260904193145 | 24 | 298 | 1.6 | 11.3 | 0.00 | 0.08 | 0.08 | 53 | 1013.3 |
| 20260904193041 | 24 | 284 | 1.6 | 11.3 | 0.00 | 0.08 | 0.08 | 54 | 1013.3 |
| 20260904192941 | 24 | 284 | 1.6 | 11.3 | 0.00 | 0.08 | 0.08 | 53 | 1013.3 |
| 20260904192842 | 24 | 283 | 1.6 | 11.3 | 0.00 | 0.08 | 0.08 | 52 | 1013.3 |
| 20260904192757 | 24 | 283 | 1.6 | 11.3 | 0.00 | 0.08 | 0.08 | 52 | 1013.3 |
| 20260904192740 | 24 | 281 | 1.6 | 11.3 | 0.00 | 0.08 | 0.08 | 52 | 1013.3 |
| 20260904192637 | 24 | 212 | 1.6 | 8.0 | 0.00 | 0.08 | 0.08 | 51 | 1013.3 |
| 20260904192538 | 24 | 314 | 1.6 | 6.4 | 0.00 | 0.08 | 0.08 | 53 | 1013.3 |
| 20260904192435 | 24 | 29 | 1.6 | 6.4 | 0.00 | 0.08 | 0.08 | 52 | 1013.3 |
| 20260904192336 | 24 | 148 | 1.6 | 6.4 | 0.00 | 0.08 | 0.08 | 51 | 1013.3 |
| 20260904192252 | 24 | 212 | 1.6 | 6.4 | 0.00 | 0.08 | 0.08 | 53 | 1013.3 |
| 20260904192234 | 24 | 225 | 1.6 | 6.4 | 0.00 | 0.08 | 0.08 | 53 | 1013.3 |
| 20260904192132 | 23 | 229 | 1.6 | 9.7 | 0.00 | 0.08 | 0.08 | 52 | 1013.3 |
| 20260904192031 | 24 | 243 | 1.6 | 9.7 | 0.00 | 0.08 | 0.08 | 53 | 1013.3 |
| 20260904191930 | 24 | 219 | 1.6 | 9.7 | 0.00 | 0.08 | 0.08 | 53 | 1013.4 |
| 20260904191828 | 24 | 211 | 1.6 | 9.7 | 0.00 | 0.08 | 0.08 | 54 | 1013.4 |
| 20260904191728 | 23 | 211 | 3.2 | 9.7 | 0.00 | 0.08 | 0.08 | 55 | 1013.4 |
| 20260904191628 | 23 | 201 | 3.2 | 9.7 | 0.00 | 0.08 | 0.08 | 55 | 1013.4 |
| 20260904191526 | 23 | 148 | 3.2 | 9.7 | 0.00 | 0.08 | 0.08 | 55 | 1013.4 |
| 20260904191423 | 23 | 148 | 3.2 | 9.7 | 0.00 | 0.08 | 0.08 | 54 | 1013.4 |
| 20260904191317 | 23 | 205 | 3.2 | 9.7 | 0.00 | 0.08 | 0.08 | 54 | 1013.4 |
| 20260904191239 | 23 | 237 | 3.2 | 9.7 | 0.00 | 0.08 | 0.08 | 54 | 1013.4 |
| 20260904191218 | 23 | 238 | 3.2 | 9.7 | 0.00 | 0.08 | 0.08 | 54 | 1013.4 |
| 20260904191117 | 23 | 232 | 3.2 | 11.3 | 0.00 | 0.08 | 0.08 | 57 | 1013.4 |
| 20260904191018 | 23 | 257 | 3.2 | 11.3 | 0.00 | 0.08 | 0.08 | 57 | 1013.4 |
| 20260904190918 | 23 | 225 | 3.2 | 11.3 | 0.00 | 0.08 | 0.08 | 57 | 1013.4 |
| 20260904190812 | 23 | 210 | 3.2 | 11.3 | 0.00 | 0.08 | 0.08 | 56 | 1013.4 |
| 20260904190732 | 23 | 232 | 1.6 | 11.3 | 0.00 | 0.08 | 0.08 | 58 | 1013.4 |
| 20260904190713 | 23 | 311 | 1.6 | 11.3 | 0.00 | 0.08 | 0.08 | 58 | 1013.4 |
| 20260904190612 | 23 | 311 | 1.6 | 11.3 | 0.00 | 0.08 | 0.08 | 58 | 1013.4 |
| 20260904190511 | 23 | 222 | 1.6 | 11.3 | 0.00 | 0.08 | 0.08 | 59 | 1013.4 |
| 20260904190448 | 23 | 325 | 3.2 | 11.3 | 0.00 | 0.08 | 0.08 | 56 | 1013.4 |
| 20260904190411 | 23 | 342 | 3.2 | 11.3 | 0.00 | 0.08 | 0.08 | 57 | 1013.4 |
| 20260904190305 | 23 | 12 | 3.2 | 11.3 | 0.00 | 0.08 | 0.08 | 56 | 1013.4 |
| 20260904190206 | 23 | 314 | 1.6 | 11.3 | 0.00 | 0.08 | 0.08 | 56 | 1013.4 |
| 20260904190105 | 23 | 266 | 3.2 | 8.0 | 0.00 | 0.08 | 0.08 | 59 | 1013.5 |
| 20260904190006 | 23 | 154 | 3.2 | 8.0 | 0.00 | 0.08 | 0.08 | 60 | 1013.4 |
| 20260904185905 | 23 | 221 | 3.2 | 8.0 | 0.00 | 0.08 | 0.08 | 61 | 1013.4 |
| 20260904185800 | 22 | 239 | 3.2 | 8.0 | 0.00 | 0.08 | 0.08 | 60 | 1013.4 |
| 20260904185721 | 22 | 307 | 3.2 | 8.0 | 0.00 | 0.08 | 0.08 | 60 | 1013.4 |
| 20260904185701 | 22 | 307 | 4.8 | 12.9 | 0.00 | 0.08 | 0.08 | 60 | 1013.4 |
| 20260904185600 | 22 | 321 | 4.8 | 12.9 | 0.00 | 0.08 | 0.08 | 59 | 1013.5 |
| 20260904185500 | 22 | 52 | 4.8 | 12.9 | 0.00 | 0.08 | 0.08 | 58 | 1013.5 |
| 20260904185359 | 22 | 74 | 4.8 | 12.9 | 0.00 | 0.08 | 0.08 | 58 | 1013.5 |
| 20260904185257 | 22 | 72 | 4.8 | 12.9 | 0.00 | 0.08 | 0.08 | 58 | 1013.5 |
| 20260904185214 | 22 | 138 | 4.8 | 12.9 | 0.00 | 0.08 | 0.08 | 59 | 1013.5 |
| 20260904185159 | 22 | 158 | 4.8 | 12.9 | 0.00 | 0.08 | 0.08 | 59 | 1013.5 |
| 20260904185057 | 22 | 239 | 3.2 | 12.9 | 0.00 | 0.08 | 0.08 | 58 | 1013.5 |
| 20260904184955 | 23 | 136 | 3.2 | 12.9 | 0.00 | 0.08 | 0.08 | 58 | 1013.6 |
| 20260904184857 | 23 | 212 | 3.2 | 12.9 | 0.00 | 0.08 | 0.08 | 58 | 1013.6 |
| 20260904184747 | 23 | 217 | 3.2 | 12.9 | 0.00 | 0.08 | 0.08 | 58 | 1013.5 |
| 20260904184709 | 23 | 204 | 3.2 | 11.3 | 0.00 | 0.08 | 0.08 | 58 | 1013.5 |
| 20260904184648 | 23 | 208 | 3.2 | 11.3 | 0.00 | 0.08 | 0.08 | 58 | 1013.5 |
| 20260904184548 | 23 | 153 | 1.6 | 9.7 | 0.00 | 0.08 | 0.08 | 58 | 1013.6 |
| 20260904184448 | 23 | 131 | 1.6 | 9.7 | 0.00 | 0.08 | 0.08 | 58 | 1013.5 |
| 20260904184347 | 22 | 195 | 1.6 | 9.7 | 0.00 | 0.08 | 0.08 | 59 | 1013.6 |
| 20260904184248 | 22 | 149 | 3.2 | 9.7 | 0.00 | 0.08 | 0.08 | 58 | 1013.6 |
| 20260904184202 | 22 | 149 | 3.2 | 9.7 | 0.00 | 0.08 | 0.08 | 58 | 1013.6 |
| 20260904184147 | 22 | 149 | 3.2 | 9.7 | 0.00 | 0.08 | 0.08 | 58 | 1013.6 |
| 20260904184046 | 22 | 193 | 3.2 | 9.7 | 0.00 | 0.08 | 0.08 | 59 | 1013.6 |
| 20260904183943 | 22 | 193 | 3.2 | 9.7 | 0.00 | 0.08 | 0.08 | 59 | 1013.6 |
| 20260904183918 | 22 | 146 | 1.6 | 9.7 | 0.00 | 0.08 | 0.08 | 63 | 1013.6 |
| 20260904183842 | 22 | 146 | 1.6 | 9.7 | 0.00 | 0.08 | 0.08 | 62 | 1013.6 |
| 20260904183808 | 22 | 148 | 1.6 | 9.7 | 0.00 | 0.08 | 0.08 | 63 | 1013.6 |
| 20260904183635 | 21 | 146 | 1.6 | 9.7 | 0.00 | 0.08 | 0.08 | 63 | 1013.6 |
| 20260904183536 | 21 | 165 | 1.6 | 9.7 | 0.00 | 0.08 | 0.08 | 63 | 1013.7 |
| 20260904183436 | 21 | 228 | 1.6 | 9.7 | 0.00 | 0.08 | 0.08 | 62 | 1013.6 |
| 20260904183335 | 21 | 203 | 0.0 | 4.8 | 0.00 | 0.08 | 0.08 | 63 | 1013.6 |
| 20260904183229 | 21 | 163 | 0.0 | 3.2 | 0.00 | 0.08 | 0.08 | 62 | 1013.7 |
| 20260904183151 | 21 | 165 | 1.6 | 6.4 | 0.00 | 0.08 | 0.08 | 62 | 1013.7 |
| 20260904183129 | 21 | 253 | 1.6 | 6.4 | 0.00 | 0.08 | 0.08 | 62 | 1013.7 |
| 20260904183029 | 21 | 253 | 1.6 | 8.0 | 0.00 | 0.08 | 0.08 | 63 | 1013.7 |
| 20260904182930 | 21 | 243 | 1.6 | 9.7 | 0.00 | 0.08 | 0.08 | 64 | 1013.7 |
| 20260904182829 | 21 | 242 | 1.6 | 9.7 | 0.00 | 0.08 | 0.08 | 64 | 1013.7 |
| 20260904182728 | 21 | 242 | 1.6 | 9.7 | 0.00 | 0.08 | 0.08 | 64 | 1013.7 |
| 20260904182648 | 21 | 241 | 1.6 | 9.7 | 0.00 | 0.08 | 0.08 | 64 | 1013.6 |
| 20260904182633 | 22 | 176 | 1.6 | 9.7 | 0.00 | 0.08 | 0.08 | 62 | 1013.7 |
| 20260904182627 | 21 | 242 | 1.6 | 9.7 | 0.00 | 0.08 | 0.08 | 64 | 1013.6 |
| 20260904182528 | 21 | 240 | 1.6 | 9.7 | 0.00 | 0.08 | 0.08 | 63 | 1013.6 |
| 20260904182517 | 21 | 242 | 1.6 | 9.7 | 0.00 | 0.08 | 0.08 | 63 | 1013.7 |
| 20260904182323 | 21 | 173 | 1.6 | 9.7 | 0.00 | 0.08 | 0.08 | 64 | 1013.6 |
| 20260904182220 | 22 | 194 | 1.6 | 9.7 | 0.00 | 0.08 | 0.08 | 62 | 1013.6 |
| 20260904182120 | 22 | 231 | 1.6 | 9.7 | 0.00 | 0.08 | 0.08 | 62 | 1013.7 |
| 20260904182019 | 22 | 243 | 0.0 | 9.7 | 0.00 | 0.08 | 0.08 | 64 | 1013.6 |
| 20260904181920 | 22 | 233 | 0.0 | 3.2 | 0.00 | 0.08 | 0.08 | 64 | 1013.6 |
| 20260904181817 | 22 | 233 | 0.0 | 3.2 | 0.00 | 0.08 | 0.08 | 64 | 1013.6 |
| 20260904181712 | 22 | 232 | 1.6 | 4.8 | 0.00 | 0.08 | 0.08 | 63 | 1013.6 |
| 20260904181647 | 22 | 233 | 1.6 | 4.8 | 0.00 | 0.08 | 0.08 | 63 | 1013.6 |
| 20260904181611 | 22 | 232 | 1.6 | 4.8 | 0.00 | 0.08 | 0.08 | 63 | 1013.6 |
| 20260904181512 | 22 | 233 | 1.6 | 4.8 | 0.00 | 0.08 | 0.08 | 64 | 1013.6 |
| 20260904181411 | 22 | 232 | 1.6 | 4.8 | 0.00 | 0.08 | 0.08 | 64 | 1013.6 |
| 20260904181311 | 22 | 232 | 1.6 | 4.8 | 0.00 | 0.08 | 0.08 | 64 | 1013.6 |
| 20260904181210 | 22 | 233 | 3.2 | 4.8 | 0.00 | 0.08 | 0.08 | 64 | 1013.7 |
| 20260904181154 | 22 | 113 | 3.2 | 9.7 | 0.00 | 0.08 | 0.08 | 63 | 1013.6 |
| 20260904181148 | 22 | 232 | 3.2 | 4.8 | 0.00 | 0.08 | 0.08 | 64 | 1013.7 |
| 20260904181110 | 22 | 119 | 3.2 | 4.8 | 0.00 | 0.08 | 0.08 | 62 | 1013.6 |
| 20260904181026 | 22 | 118 | 3.2 | 6.4 | 0.00 | 0.08 | 0.08 | 62 | 1013.6 |
| 20260904180908 | 22 | 105 | 3.2 | 9.7 | 0.00 | 0.08 | 0.08 | 62 | 1013.7 |
| 20260904180805 | 22 | 130 | 3.2 | 9.7 | 0.00 | 0.08 | 0.08 | 61 | 1013.7 |
| 20260904180757 | 22 | 131 | 3.2 | 9.7 | 0.00 | 0.08 | 0.08 | 63 | 1013.6 |
| 20260904180602 | 22 | 201 | 3.2 | 9.7 | 0.00 | 0.08 | 0.08 | 63 | 1013.6 |
| 20260904180501 | 22 | 124 | 3.2 | 9.7 | 0.00 | 0.08 | 0.08 | 63 | 1013.6 |
| 20260904180402 | 22 | 103 | 3.2 | 9.7 | 0.00 | 0.08 | 0.08 | 63 | 1013.7 |
| 20260904180300 | 22 | 103 | 3.2 | 9.7 | 0.00 | 0.08 | 0.08 | 63 | 1013.7 |
| 20260904180145 | 21 | 142 | 3.2 | 9.7 | 0.00 | 0.08 | 0.08 | 65 | 1013.7 |
| 20260904180058 | 21 | 121 | 1.6 | 9.7 | 0.00 | 0.08 | 0.08 | 65 | 1013.7 |
| 20260904175957 | 21 | 145 | 1.6 | 9.7 | 0.00 | 0.08 | 0.08 | 66 | 1013.7 |
| 20260904175855 | 21 | 113 | 3.2 | 8.0 | 0.00 | 0.08 | 0.08 | 66 | 1013.7 |
| 20260904175753 | 21 | 245 | 3.2 | 9.7 | 0.00 | 0.08 | 0.08 | 65 | 1013.7 |
| 20260904175649 | 21 | 235 | 3.2 | 9.7 | 0.00 | 0.08 | 0.08 | 67 | 1013.7 |
| 20260904175548 | 21 | 155 | 3.2 | 9.7 | 0.00 | 0.08 | 0.08 | 67 | 1013.7 |
| 20260904175447 | 21 | 117 | 3.2 | 9.7 | 0.00 | 0.08 | 0.08 | 68 | 1013.7 |
| 20260904175347 | 20 | 150 | 3.2 | 9.7 | 0.00 | 0.08 | 0.08 | 68 | 1013.7 |
| 20260904175247 | 20 | 134 | 1.6 | 9.7 | 0.00 | 0.08 | 0.08 | 68 | 1013.8 |
| 20260904175150 | 20 | 226 | 1.6 | 9.7 | 0.00 | 0.08 | 0.08 | 68 | 1013.7 |
| 20260904175045 | 20 | 141 | 1.6 | 9.7 | 0.00 | 0.08 | 0.08 | 68 | 1013.8 |
| 20260904174943 | 20 | 142 | 1.6 | 9.7 | 0.00 | 0.08 | 0.08 | 68 | 1013.8 |
| 20260904174844 | 20 | 149 | 1.6 | 9.7 | 0.00 | 0.08 | 0.08 | 68 | 1013.8 |
| 20260904174741 | 20 | 205 | 1.6 | 8.0 | 0.00 | 0.08 | 0.08 | 68 | 1013.8 |
| 20260904174704 | 20 | 225 | 1.6 | 8.0 | 0.00 | 0.08 | 0.08 | 69 | 1013.8 |
| 20260904174644 | 20 | 224 | 1.6 | 8.0 | 0.00 | 0.08 | 0.08 | 69 | 1013.8 |
| 20260904174540 | 20 | 131 | 1.6 | 8.0 | 0.00 | 0.08 | 0.08 | 68 | 1013.8 |
| 20260904174440 | 20 | 131 | 1.6 | 8.0 | 0.00 | 0.08 | 0.08 | 68 | 1013.8 |
| 20260904174338 | 20 | 120 | 1.6 | 8.0 | 0.00 | 0.08 | 0.08 | 68 | 1013.8 |
| 20260904174235 | 20 | 120 | 1.6 | 8.0 | 0.00 | 0.08 | 0.08 | 68 | 1013.7 |
| 20260904174136 | 20 | 88 | 1.6 | 8.0 | 0.00 | 0.08 | 0.08 | 68 | 1013.7 |
| 20260904174034 | 20 | 165 | 1.6 | 8.0 | 0.00 | 0.08 | 0.08 | 68 | 1013.8 |
| 20260904173931 | 20 | 165 | 1.6 | 8.0 | 0.00 | 0.08 | 0.08 | 69 | 1013.8 |
| 20260904173832 | 20 | 158 | 1.6 | 6.4 | 0.00 | 0.08 | 0.08 | 69 | 1013.7 |
| 20260904173729 | 20 | 150 | 1.6 | 6.4 | 0.00 | 0.08 | 0.08 | 70 | 1013.8 |
| 20260904173644 | 20 | 160 | 1.6 | 4.8 | 0.00 | 0.08 | 0.08 | 72 | 1013.8 |
| 20260904173630 | 20 | 143 | 1.6 | 4.8 | 0.00 | 0.08 | 0.08 | 72 | 1013.8 |
| 20260904173528 | 20 | 191 | 1.6 | 4.8 | 0.00 | 0.08 | 0.08 | 73 | 1013.8 |
| 20260904173427 | 19 | 208 | 1.6 | 4.8 | 0.00 | 0.08 | 0.08 | 73 | 1013.8 |
| 20260904173325 | 19 | 208 | 1.6 | 4.8 | 0.00 | 0.08 | 0.08 | 72 | 1013.8 |
| 20260904173223 | 19 | 233 | 3.2 | 4.8 | 0.00 | 0.08 | 0.08 | 73 | 1013.8 |
| 20260904173142 | 19 | 233 | 3.2 | 4.8 | 0.00 | 0.08 | 0.08 | 72 | 1013.8 |
| 20260904173117 | 19 | 231 | 3.2 | 4.8 | 0.00 | 0.08 | 0.08 | 72 | 1013.7 |
| 20260904173018 | 18 | 223 | 3.2 | 6.4 | 0.00 | 0.08 | 0.08 | 74 | 1013.7 |
| 20260904172918 | 18 | 228 | 3.2 | 6.4 | 0.00 | 0.08 | 0.08 | 74 | 1013.7 |
| 20260904172817 | 18 | 232 | 3.2 | 6.4 | 0.00 | 0.08 | 0.08 | 74 | 1013.8 |
| 20260904172716 | 18 | 231 | 3.2 | 6.4 | 0.00 | 0.08 | 0.08 | 73 | 1013.7 |
| 20260904172640 | 18 | 208 | 3.2 | 8.0 | 0.00 | 0.08 | 0.08 | 73 | 1013.7 |
| 20260904172612 | 18 | 228 | 4.8 | 8.0 | 0.00 | 0.08 | 0.08 | 73 | 1013.7 |
| 20260904172511 | 18 | 207 | 4.8 | 8.0 | 0.00 | 0.08 | 0.08 | 73 | 1013.7 |
| 20260904172412 | 18 | 225 | 4.8 | 8.0 | 0.00 | 0.08 | 0.08 | 73 | 1013.7 |
| 20260904172311 | 18 | 221 | 4.8 | 8.0 | 0.00 | 0.08 | 0.08 | 73 | 1013.7 |
| 20260904172211 | 18 | 234 | 4.8 | 8.0 | 0.00 | 0.08 | 0.08 | 73 | 1013.6 |
| 20260904172144 | 18 | 231 | 3.2 | 8.0 | 0.00 | 0.08 | 0.08 | 73 | 1013.6 |
| 20260904172107 | 18 | 229 | 3.2 | 8.0 | 0.00 | 0.08 | 0.08 | 73 | 1013.7 |
| 20260904172006 | 18 | 235 | 3.2 | 8.0 | 0.00 | 0.08 | 0.08 | 73 | 1013.6 |
| 20260904171906 | 19 | 139 | 3.2 | 8.0 | 0.00 | 0.08 | 0.08 | 73 | 1013.6 |
| 20260904171806 | 19 | 212 | 3.2 | 8.0 | 0.00 | 0.08 | 0.08 | 72 | 1013.6 |
| 20260904171705 | 19 | 253 | 3.2 | 8.0 | 0.00 | 0.08 | 0.08 | 72 | 1013.6 |
| 20260904171641 | 19 | 193 | 3.2 | 8.0 | 0.00 | 0.08 | 0.08 | 72 | 1013.6 |
| 20260904171602 | 19 | 236 | 1.6 | 8.0 | 0.00 | 0.08 | 0.08 | 72 | 1013.6 |
| 20260904171501 | 19 | 243 | 1.6 | 8.0 | 0.00 | 0.08 | 0.08 | 73 | 1013.6 |
| 20260904171407 | 20 | 183 | 1.6 | 4.8 | 0.00 | 0.08 | 0.08 | 71 | 1013.6 |
| 20260904171401 | 20 | 226 | 1.6 | 4.8 | 0.00 | 0.08 | 0.08 | 72 | 1013.6 |
| 20260904171301 | 20 | 226 | 1.6 | 4.8 | 0.00 | 0.08 | 0.08 | 72 | 1013.6 |
| 20260904171159 | 20 | 197 | 1.6 | 4.8 | 0.00 | 0.08 | 0.08 | 72 | 1013.6 |
| 20260904171058 | 20 | 226 | 1.6 | 4.8 | 0.00 | 0.08 | 0.08 | 71 | 1013.5 |
| 20260904170957 | 20 | 149 | 1.6 | 4.8 | 0.00 | 0.08 | 0.08 | 72 | 1013.6 |
| 20260904170858 | 20 | 149 | 1.6 | 6.4 | 0.00 | 0.08 | 0.08 | 72 | 1013.6 |
| 20260904170756 | 20 | 149 | 1.6 | 6.4 | 0.00 | 0.08 | 0.08 | 72 | 1013.5 |
| 20260904170656 | 20 | 150 | 1.6 | 6.4 | 0.00 | 0.08 | 0.08 | 72 | 1013.6 |
| 20260904170636 | 20 | 139 | 1.6 | 8.0 | 0.00 | 0.08 | 0.08 | 72 | 1013.6 |
| 20260904170555 | 20 | 122 | 3.2 | 8.0 | 0.00 | 0.08 | 0.08 | 73 | 1013.6 |
| 20260904170457 | 19 | 201 | 3.2 | 9.7 | 0.00 | 0.08 | 0.08 | 73 | 1013.6 |
| 20260904170356 | 19 | 184 | 3.2 | 9.7 | 0.00 | 0.08 | 0.08 | 74 | 1013.6 |
| 20260904170254 | 19 | 115 | 3.2 | 9.7 | 0.00 | 0.08 | 0.08 | 75 | 1013.5 |
| 20260904170133 | 19 | 115 | 3.2 | 9.7 | 0.00 | 0.08 | 0.08 | 73 | 1013.6 |
| 20260904170053 | 19 | 108 | 3.2 | 9.7 | 0.00 | 0.08 | 0.08 | 73 | 1013.6 |
| 20260904165954 | 19 | 115 | 3.2 | 9.7 | 0.00 | 0.08 | 0.08 | 73 | 1013.6 |
| 20260904165853 | 18 | 134 | 3.2 | 9.7 | 0.00 | 0.08 | 0.08 | 74 | 1013.6 |
| 20260904165752 | 18 | 160 | 3.2 | 9.7 | 0.00 | 0.08 | 0.08 | 74 | 1013.6 |
| 20260904165652 | 18 | 111 | 1.6 | 9.7 | 0.00 | 0.08 | 0.08 | 74 | 1013.5 |
| 20260904165631 | 18 | 106 | 1.6 | 9.7 | 0.00 | 0.08 | 0.08 | 74 | 1013.5 |
| 20260904165552 | 19 | 134 | 1.6 | 9.7 | 0.00 | 0.08 | 0.08 | 74 | 1013.6 |
| 20260904165453 | 19 | 139 | 1.6 | 6.4 | 0.00 | 0.08 | 0.08 | 75 | 1013.6 |
| 20260904165356 | 19 | 140 | 1.6 | 6.4 | 0.00 | 0.08 | 0.08 | 75 | 1013.5 |
| 20260904165351 | 19 | 229 | 1.6 | 6.4 | 0.00 | 0.08 | 0.08 | 74 | 1013.5 |
| 20260904165251 | 19 | 232 | 1.6 | 6.4 | 0.00 | 0.08 | 0.08 | 75 | 1013.5 |
| 20260904165242 | 19 | 139 | 1.6 | 6.4 | 0.00 | 0.08 | 0.08 | 75 | 1013.5 |
| 20260904165052 | 19 | 158 | 1.6 | 6.4 | 0.00 | 0.08 | 0.08 | 76 | 1013.5 |
| 20260904164951 | 18 | 158 | 1.6 | 8.0 | 0.00 | 0.08 | 0.08 | 76 | 1013.5 |
| 20260904164850 | 18 | 231 | 1.6 | 8.0 | 0.00 | 0.08 | 0.08 | 75 | 1013.5 |
| 20260904164750 | 18 | 230 | 1.6 | 8.0 | 0.00 | 0.08 | 0.08 | 76 | 1013.4 |
| 20260904164650 | 19 | 230 | 1.6 | 8.0 | 0.00 | 0.08 | 0.08 | 75 | 1013.5 |
| 20260904164625 | 19 | 231 | 1.6 | 8.0 | 0.00 | 0.08 | 0.08 | 75 | 1013.5 |
| 20260904164548 | 19 | 231 | 1.6 | 8.0 | 0.00 | 0.08 | 0.08 | 76 | 1013.4 |
| 20260904164445 | 19 | 231 | 1.6 | 8.0 | 0.00 | 0.08 | 0.08 | 76 | 1013.4 |
| 20260904164342 | 19 | 246 | 1.6 | 8.0 | 0.00 | 0.08 | 0.08 | 77 | 1013.4 |
| 20260904164240 | 18 | 246 | 3.2 | 9.7 | 0.00 | 0.08 | 0.08 | 77 | 1013.4 |
| 20260904164143 | 18 | 146 | 3.2 | 9.7 | 0.00 | 0.08 | 0.08 | 77 | 1013.4 |
| 20260904164119 | 18 | 155 | 3.2 | 9.7 | 0.00 | 0.08 | 0.08 | 77 | 1013.4 |
| 20260904164040 | 18 | 110 | 1.6 | 9.7 | 0.00 | 0.08 | 0.08 | 77 | 1013.4 |
| 20260904163939 | 18 | 155 | 1.6 | 9.7 | 0.00 | 0.08 | 0.08 | 78 | 1013.4 |
| 20260904163833 | 18 | 143 | 1.6 | 9.7 | 0.00 | 0.08 | 0.08 | 78 | 1013.4 |
| 20260904163812 | 17 | 129 | 1.6 | 6.4 | 0.00 | 0.08 | 0.08 | 80 | 1013.4 |
| 20260904163734 | 18 | 129 | 1.6 | 9.7 | 0.00 | 0.08 | 0.08 | 79 | 1013.4 |
| 20260904163707 | 18 | 129 | 3.2 | 9.7 | 0.00 | 0.08 | 0.08 | 79 | 1013.4 |
| 20260904163657 | 18 | 122 | 3.2 | 9.7 | 0.00 | 0.08 | 0.08 | 79 | 1013.4 |
| 20260904163534 | 18 | 109 | 3.2 | 9.7 | 0.00 | 0.08 | 0.08 | 79 | 1013.4 |
| 20260904163444 | 18 | 146 | 1.6 | 9.7 | 0.00 | 0.08 | 0.08 | 79 | 1013.4 |
| 20260904163330 | 18 | 135 | 1.6 | 9.7 | 0.00 | 0.08 | 0.08 | 80 | 1013.5 |
| 20260904163229 | 17 | 137 | 1.6 | 6.4 | 0.00 | 0.08 | 0.08 | 80 | 1013.5 |
| 20260904163217 | 17 | 128 | 1.6 | 6.4 | 0.00 | 0.08 | 0.08 | 80 | 1013.5 |
| 20260904163030 | 17 | 228 | 1.6 | 6.4 | 0.00 | 0.08 | 0.08 | 79 | 1013.4 |
| 20260904162927 | 17 | 242 | 1.6 | 6.4 | 0.00 | 0.08 | 0.08 | 80 | 1013.5 |
| 20260904162828 | 17 | 215 | 1.6 | 12.9 | 0.00 | 0.08 | 0.08 | 81 | 1013.3 |
| 20260904162824 | 17 | 150 | 1.6 | 6.4 | 0.00 | 0.08 | 0.08 | 80 | 1013.5 |
| 20260904162722 | 17 | 222 | 1.6 | 6.4 | 0.00 | 0.08 | 0.08 | 80 | 1013.4 |
| 20260904162711 | 17 | 148 | 1.6 | 12.9 | 0.00 | 0.08 | 0.08 | 81 | 1013.4 |
| 20260904162521 | 17 | 137 | 1.6 | 12.9 | 0.00 | 0.08 | 0.08 | 81 | 1013.3 |
| 20260904162422 | 17 | 153 | 1.6 | 12.9 | 0.00 | 0.08 | 0.08 | 81 | 1013.3 |
| 20260904162316 | 17 | 154 | 1.6 | 12.9 | 0.00 | 0.08 | 0.08 | 80 | 1013.3 |
| 20260904162216 | 17 | 154 | 1.6 | 12.9 | 0.00 | 0.08 | 0.08 | 80 | 1013.3 |
| 20260904162115 | 17 | 134 | 3.2 | 12.9 | 0.00 | 0.08 | 0.08 | 79 | 1013.3 |
| 20260904162055 | 17 | 134 | 3.2 | 12.9 | 0.00 | 0.08 | 0.08 | 79 | 1013.3 |
| 20260904162016 | 17 | 236 | 3.2 | 12.9 | 0.00 | 0.08 | 0.08 | 80 | 1013.3 |
| 20260904161915 | 17 | 238 | 3.2 | 12.9 | 0.00 | 0.08 | 0.08 | 79 | 1013.3 |
| 20260904161818 | 18 | 231 | 3.2 | 12.9 | 0.00 | 0.08 | 0.08 | 80 | 1013.3 |
| 20260904161810 | 18 | 194 | 3.2 | 12.9 | 0.00 | 0.08 | 0.08 | 78 | 1013.3 |
| 20260904161709 | 18 | 232 | 3.2 | 12.9 | 0.00 | 0.08 | 0.08 | 78 | 1013.3 |
| 20260904161700 | 18 | 235 | 3.2 | 12.9 | 0.00 | 0.08 | 0.08 | 79 | 1013.3 |
| 20260904161510 | 18 | 226 | 3.2 | 12.9 | 0.00 | 0.08 | 0.08 | 80 | 1013.2 |
| 20260904161409 | 18 | 226 | 3.2 | 12.9 | 0.00 | 0.08 | 0.08 | 81 | 1013.3 |
| 20260904161304 | 18 | 226 | 3.2 | 12.9 | 0.00 | 0.08 | 0.08 | 80 | 1013.2 |
| 20260904161205 | 18 | 225 | 3.2 | 12.9 | 0.00 | 0.08 | 0.08 | 80 | 1013.3 |
| 20260904161103 | 18 | 190 | 4.8 | 12.9 | 0.00 | 0.08 | 0.08 | 80 | 1013.2 |
| 20260904161043 | 18 | 248 | 4.8 | 12.9 | 0.00 | 0.08 | 0.08 | 80 | 1013.2 |
| 20260904161004 | 18 | 207 | 3.2 | 12.9 | 0.00 | 0.08 | 0.08 | 81 | 1013.2 |
| 20260904160903 | 17 | 167 | 3.2 | 9.7 | 0.00 | 0.08 | 0.08 | 81 | 1013.2 |
| 20260904160800 | 17 | 200 | 3.2 | 8.0 | 0.00 | 0.08 | 0.08 | 81 | 1013.2 |
| 20260904160701 | 17 | 143 | 3.2 | 8.0 | 0.00 | 0.08 | 0.08 | 81 | 1013.1 |
| 20260904160600 | 17 | 168 | 3.2 | 8.0 | 0.00 | 0.08 | 0.08 | 81 | 1013.2 |
| 20260904160537 | 17 | 210 | 3.2 | 8.0 | 0.00 | 0.08 | 0.08 | 82 | 1013.2 |
| 20260904160459 | 17 | 124 | 3.2 | 8.0 | 0.00 | 0.08 | 0.08 | 82 | 1013.2 |
| 20260904160357 | 17 | 129 | 3.2 | 8.0 | 0.00 | 0.08 | 0.08 | 83 | 1013.2 |
| 20260904160252 | 17 | 152 | 3.2 | 8.0 | 0.00 | 0.08 | 0.08 | 83 | 1013.2 |
| 20260904160152 | 17 | 139 | 3.2 | 8.0 | 0.00 | 0.08 | 0.08 | 83 | 1013.2 |
| 20260904160053 | 17 | 144 | 3.2 | 8.0 | 0.00 | 0.08 | 0.08 | 83 | 1013.2 |
| 20260904160043 | 17 | 137 | 3.2 | 8.0 | 0.00 | 0.08 | 0.08 | 83 | 1013.2 |
| 20260904155951 | 17 | 136 | 3.2 | 8.0 | 0.00 | 0.08 | 0.08 | 83 | 1013.2 |
| 20260904155852 | 17 | 177 | 4.8 | 8.0 | 0.00 | 0.08 | 0.08 | 83 | 1013.2 |
| 20260904155746 | 17 | 179 | 4.8 | 9.7 | 0.00 | 0.08 | 0.08 | 83 | 1013.2 |
| 20260904155647 | 17 | 225 | 3.2 | 9.7 | 0.00 | 0.08 | 0.08 | 84 | 1013.3 |
| 20260904155545 | 17 | 195 | 4.8 | 9.7 | 0.00 | 0.08 | 0.08 | 85 | 1013.2 |
| 20260904155525 | 17 | 205 | 4.8 | 9.7 | 0.00 | 0.08 | 0.08 | 85 | 1013.2 |
| 20260904155446 | 17 | 212 | 4.8 | 9.7 | 0.00 | 0.08 | 0.08 | 85 | 1013.2 |
| 20260904155346 | 17 | 211 | 4.8 | 9.7 | 0.00 | 0.08 | 0.08 | 84 | 1013.2 |
| 20260904155249 | 16 | 242 | 4.8 | 9.7 | 0.00 | 0.08 | 0.08 | 84 | 1013.2 |
| 20260904155241 | 17 | 211 | 4.8 | 9.7 | 0.00 | 0.08 | 0.08 | 84 | 1013.3 |
| 20260904155144 | 17 | 229 | 4.8 | 9.7 | 0.00 | 0.08 | 0.08 | 84 | 1013.2 |
| 20260904155129 | 16 | 239 | 4.8 | 9.7 | 0.00 | 0.08 | 0.08 | 84 | 1013.2 |
| 20260904154940 | 16 | 217 | 4.8 | 9.7 | 0.00 | 0.08 | 0.08 | 84 | 1013.2 |
| 20260904154843 | 16 | 215 | 4.8 | 9.7 | 0.00 | 0.08 | 0.08 | 84 | 1013.2 |
| 20260904154735 | 16 | 236 | 4.8 | 9.7 | 0.00 | 0.08 | 0.08 | 85 | 1013.2 |
| 20260904154639 | 16 | 174 | 4.8 | 9.7 | 0.00 | 0.08 | 0.08 | 85 | 1013.2 |
| 20260904154534 | 16 | 224 | 4.8 | 9.7 | 0.00 | 0.08 | 0.08 | 84 | 1013.2 |
| 20260904154512 | 16 | 214 | 4.8 | 9.7 | 0.00 | 0.08 | 0.08 | 85 | 1013.2 |
| 20260904154434 | 16 | 154 | 3.2 | 8.0 | 0.00 | 0.08 | 0.08 | 85 | 1013.2 |
| 20260904154333 | 16 | 129 | 4.8 | 8.0 | 0.00 | 0.08 | 0.08 | 84 | 1013.2 |
| 20260904154229 | 16 | 238 | 4.8 | 9.7 | 0.00 | 0.08 | 0.08 | 85 | 1013.2 |
| 20260904154128 | 16 | 205 | 3.2 | 9.7 | 0.00 | 0.08 | 0.08 | 84 | 1013.2 |
| 20260904154028 | 16 | 190 | 3.2 | 9.7 | 0.00 | 0.08 | 0.08 | 84 | 1013.2 |
| 20260904154006 | 16 | 217 | 3.2 | 9.7 | 0.00 | 0.08 | 0.08 | 84 | 1013.2 |
| 20260904153927 | 16 | 224 | 3.2 | 9.7 | 0.00 | 0.08 | 0.08 | 84 | 1013.2 |
| 20260904153828 | 16 | 175 | 3.2 | 9.7 | 0.00 | 0.08 | 0.08 | 85 | 1013.1 |
| 20260904153723 | 16 | 152 | 3.2 | 9.7 | 0.00 | 0.08 | 0.08 | 85 | 1013.1 |
| 20260904153621 | 16 | 117 | 3.2 | 9.7 | 0.00 | 0.08 | 0.08 | 85 | 1013.2 |
| 20260904153522 | 16 | 134 | 3.2 | 9.7 | 0.00 | 0.08 | 0.08 | 85 | 1013.2 |
| 20260904153501 | 16 | 167 | 3.2 | 9.7 | 0.00 | 0.08 | 0.08 | 84 | 1013.2 |
| 20260904153422 | 16 | 188 | 3.2 | 9.7 | 0.00 | 0.08 | 0.08 | 84 | 1013.2 |
| 20260904153321 | 16 | 210 | 3.2 | 9.7 | 0.00 | 0.08 | 0.08 | 85 | 1013.1 |
| 20260904153216 | 16 | 260 | 3.2 | 9.7 | 0.00 | 0.08 | 0.08 | 86 | 1013.2 |
| 20260904153115 | 16 | 129 | 3.2 | 9.7 | 0.00 | 0.08 | 0.08 | 86 | 1013.1 |
| 20260904153016 | 16 | 143 | 3.2 | 9.7 | 0.00 | 0.08 | 0.08 | 86 | 1013.1 |
| 20260904152954 | 16 | 135 | 3.2 | 9.7 | 0.00 | 0.08 | 0.08 | 86 | 1013.1 |
| 20260904152916 | 16 | 136 | 3.2 | 9.7 | 0.00 | 0.08 | 0.08 | 86 | 1013.1 |
| 20260904152815 | 16 | 226 | 4.8 | 9.7 | 0.00 | 0.08 | 0.08 | 85 | 1013.1 |
| 20260904152712 | 16 | 233 | 4.8 | 9.7 | 0.00 | 0.08 | 0.08 | 85 | 1013.1 |
| 20260904152610 | 16 | 183 | 4.8 | 9.7 | 0.00 | 0.08 | 0.08 | 85 | 1013.1 |
| 20260904152513 | 16 | 197 | 4.8 | 9.7 | 0.00 | 0.08 | 0.08 | 86 | 1013.1 |
| 20260904152503 | 16 | 159 | 4.8 | 11.3 | 0.00 | 0.08 | 0.08 | 86 | 1013.1 |
| 20260904152410 | 16 | 113 | 4.8 | 11.3 | 0.00 | 0.08 | 0.08 | 86 | 1013.1 |
| 20260904152309 | 16 | 134 | 4.8 | 11.3 | 0.00 | 0.08 | 0.08 | 86 | 1013.1 |
| 20260904152205 | 16 | 163 | 4.8 | 11.3 | 0.00 | 0.08 | 0.08 | 86 | 1013.0 |
| 20260904152104 | 16 | 212 | 4.8 | 11.3 | 0.00 | 0.08 | 0.08 | 86 | 1013.0 |
| 20260904152003 | 16 | 122 | 4.8 | 11.3 | 0.00 | 0.08 | 0.08 | 86 | 1013.0 |
| 20260904151943 | 16 | 225 | 4.8 | 11.3 | 0.00 | 0.08 | 0.08 | 86 | 1013.0 |
| 20260904151904 | 16 | 225 | 4.8 | 11.3 | 0.00 | 0.08 | 0.08 | 86 | 1013.0 |
| 20260904151803 | 16 | 129 | 3.2 | 11.3 | 0.00 | 0.08 | 0.08 | 86 | 1013.1 |
| 20260904151703 | 16 | 225 | 3.2 | 11.3 | 0.00 | 0.08 | 0.08 | 86 | 1013.1 |
| 20260904151601 | 16 | 208 | 3.2 | 11.3 | 0.00 | 0.08 | 0.08 | 86 | 1013.1 |
| 20260904151501 | 16 | 95 | 3.2 | 11.3 | 0.00 | 0.08 | 0.08 | 86 | 1013.1 |
| 20260904151436 | 16 | 190 | 3.2 | 9.7 | 0.00 | 0.08 | 0.08 | 86 | 1013.1 |
| 20260904151400 | 16 | 203 | 3.2 | 9.7 | 0.00 | 0.08 | 0.08 | 87 | 1013.1 |
| 20260904151258 | 16 | 226 | 3.2 | 9.7 | 0.00 | 0.08 | 0.08 | 86 | 1013.1 |
| 20260904151152 | 16 | 129 | 3.2 | 6.4 | 0.00 | 0.08 | 0.08 | 87 | 1013.1 |
| 20260904151051 | 16 | 224 | 3.2 | 6.4 | 0.00 | 0.08 | 0.08 | 87 | 1013.1 |
| 20260904150952 | 16 | 217 | 3.2 | 6.4 | 0.00 | 0.08 | 0.08 | 87 | 1013.2 |
| 20260904150931 | 16 | 149 | 3.2 | 6.4 | 0.00 | 0.08 | 0.08 | 87 | 1013.2 |
| 20260904150852 | 16 | 141 | 3.2 | 6.4 | 0.00 | 0.08 | 0.08 | 87 | 1013.1 |
| 20260904150751 | 16 | 194 | 3.2 | 6.4 | 0.00 | 0.08 | 0.08 | 87 | 1013.1 |
| 20260904150652 | 16 | 183 | 3.2 | 6.4 | 0.00 | 0.08 | 0.08 | 87 | 1013.1 |
| 20260904150549 | 16 | 231 | 3.2 | 9.7 | 0.00 | 0.08 | 0.08 | 87 | 1013.1 |
| 20260904150448 | 16 | 211 | 3.2 | 9.7 | 0.00 | 0.08 | 0.08 | 87 | 1013.1 |
| 20260904150427 | 16 | 215 | 3.2 | 9.7 | 0.00 | 0.08 | 0.08 | 87 | 1013.1 |
| 20260904150348 | 16 | 221 | 3.2 | 9.7 | 0.00 | 0.08 | 0.08 | 87 | 1013.0 |
| 20260904150246 | 16 | 210 | 3.2 | 9.7 | 0.00 | 0.08 | 0.08 | 88 | 1013.1 |
| 20260904150143 | 16 | 148 | 3.2 | 9.7 | 0.00 | 0.08 | 0.08 | 88 | 1013.0 |
| 20260904150040 | 16 | 149 | 3.2 | 9.7 | 0.00 | 0.08 | 0.08 | 88 | 1013.1 |
| 20260904145939 | 16 | 160 | 3.2 | 9.7 | 0.00 | 0.08 | 0.08 | 88 | 1013.0 |
| 20260904145919 | 16 | 149 | 3.2 | 9.7 | 0.00 | 0.08 | 0.08 | 88 | 1013.0 |
| 20260904145841 | 16 | 158 | 3.2 | 9.7 | 0.00 | 0.08 | 0.08 | 88 | 1013.0 |
| 20260904145740 | 16 | 218 | 3.2 | 9.7 | 0.00 | 0.08 | 0.08 | 88 | 1013.1 |
| 20260904145634 | 16 | 229 | 1.6 | 9.7 | 0.00 | 0.08 | 0.08 | 88 | 1013.0 |
| 20260904145533 | 16 | 231 | 1.6 | 8.0 | 0.00 | 0.08 | 0.08 | 89 | 1013.0 |
| 20260904145412 | 16 | 143 | 1.6 | 4.8 | 0.00 | 0.08 | 0.08 | 90 | 1013.0 |
| 20260904145333 | 16 | 144 | 1.6 | 4.8 | 0.00 | 0.08 | 0.08 | 90 | 1013.0 |
| 20260904145234 | 15 | 104 | 1.6 | 4.8 | 0.00 | 0.08 | 0.08 | 90 | 1013.0 |
| 20260904145129 | 15 | 135 | 1.6 | 4.8 | 0.00 | 0.08 | 0.08 | 90 | 1013.0 |
| 20260904145027 | 15 | 138 | 0.0 | 4.8 | 0.00 | 0.08 | 0.08 | 90 | 1013.0 |
| 20260904144927 | 15 | 138 | 1.6 | 4.8 | 0.00 | 0.08 | 0.08 | 90 | 1013.0 |
| 20260904144909 | 15 | 138 | 0.0 | 4.8 | 0.00 | 0.08 | 0.08 | 90 | 1013.0 |
| 20260904144827 | 15 | 135 | 0.0 | 4.8 | 0.00 | 0.08 | 0.08 | 91 | 1013.0 |
| 20260904144728 | 15 | 139 | 0.0 | 4.8 | 0.00 | 0.08 | 0.08 | 91 | 1013.0 |
| 20260904144624 | 15 | 139 | 1.6 | 4.8 | 0.00 | 0.08 | 0.08 | 90 | 1013.0 |
| 20260904144522 | 15 | 138 | 1.6 | 4.8 | 0.00 | 0.08 | 0.08 | 90 | 1013.0 |
| 20260904144422 | 15 | 133 | 1.6 | 4.8 | 0.00 | 0.08 | 0.08 | 90 | 1013.0 |
| 20260904144401 | 15 | 186 | 1.6 | 4.8 | 0.00 | 0.08 | 0.08 | 90 | 1013.0 |
| 20260904144321 | 15 | 211 | 1.6 | 6.4 | 0.00 | 0.08 | 0.08 | 91 | 1013.0 |
| 20260904144222 | 15 | 186 | 1.6 | 6.4 | 0.00 | 0.08 | 0.08 | 91 | 1012.9 |
| 20260904144125 | 15 | 235 | 1.6 | 6.4 | 0.00 | 0.08 | 0.08 | 91 | 1012.9 |
| 20260904144118 | 15 | 186 | 1.6 | 6.4 | 0.00 | 0.08 | 0.08 | 90 | 1012.9 |
| 20260904144015 | 15 | 188 | 1.6 | 6.4 | 0.00 | 0.08 | 0.08 | 91 | 1012.9 |
| 20260904144005 | 15 | 196 | 1.6 | 6.4 | 0.00 | 0.08 | 0.08 | 91 | 1012.9 |
| 20260904143816 | 15 | 235 | 1.6 | 6.4 | 0.00 | 0.08 | 0.08 | 90 | 1012.9 |
| 20260904143715 | 15 | 225 | 1.6 | 6.4 | 0.00 | 0.08 | 0.08 | 90 | 1012.9 |
| 20260904143624 | 15 | 236 | 0.0 | 6.4 | 0.00 | 0.08 | 0.08 | 90 | 1012.8 |
| 20260904143612 | 15 | 203 | 0.0 | 6.4 | 0.00 | 0.08 | 0.08 | 90 | 1012.9 |
| 20260904143510 | 15 | 236 | 0.0 | 6.4 | 0.00 | 0.08 | 0.08 | 91 | 1012.8 |
| 20260904143410 | 15 | 236 | 0.0 | 6.4 | 0.00 | 0.08 | 0.08 | 90 | 1012.8 |
| 20260904143310 | 15 | 245 | 0.0 | 3.2 | 0.00 | 0.08 | 0.08 | 90 | 1012.8 |
| 20260904143210 | 15 | 190 | 0.0 | 3.2 | 0.00 | 0.08 | 0.08 | 90 | 1012.8 |
| 20260904143110 | 15 | 186 | 0.0 | 3.2 | 0.00 | 0.08 | 0.08 | 90 | 1012.8 |
| 20260904143008 | 15 | 186 | 0.0 | 3.2 | 0.00 | 0.08 | 0.08 | 90 | 1012.8 |
| 20260904142907 | 15 | 186 | 0.0 | 3.2 | 0.00 | 0.08 | 0.08 | 90 | 1012.7 |
| 20260904142856 | 15 | 186 | 0.0 | 3.2 | 0.00 | 0.08 | 0.08 | 90 | 1012.7 |
| 20260904142805 | 15 | 186 | 0.0 | 3.2 | 0.00 | 0.08 | 0.08 | 90 | 1012.7 |
| 20260904142705 | 15 | 186 | 1.6 | 3.2 | 0.00 | 0.08 | 0.08 | 90 | 1012.7 |
| 20260904142558 | 15 | 186 | 1.6 | 3.2 | 0.00 | 0.08 | 0.08 | 90 | 1012.7 |
| 20260904142458 | 15 | 186 | 1.6 | 3.2 | 0.00 | 0.08 | 0.08 | 90 | 1012.6 |
| 20260904142357 | 15 | 186 | 1.6 | 3.2 | 0.00 | 0.08 | 0.08 | 90 | 1012.6 |
| 20260904142337 | 15 | 211 | 1.6 | 3.2 | 0.00 | 0.08 | 0.08 | 90 | 1012.6 |
| 20260904142257 | 15 | 211 | 1.6 | 3.2 | 0.00 | 0.08 | 0.08 | 90 | 1012.6 |
| 20260904142159 | 15 | 136 | 1.6 | 9.7 | 0.00 | 0.08 | 0.08 | 90 | 1012.5 |
| 20260904142055 | 15 | 136 | 1.6 | 11.3 | 0.00 | 0.08 | 0.08 | 90 | 1012.5 |
| 20260904141955 | 15 | 134 | 1.6 | 11.3 | 0.00 | 0.08 | 0.08 | 90 | 1012.5 |
| 20260904141831 | 15 | 134 | 3.2 | 11.3 | 0.00 | 0.08 | 0.08 | 90 | 1012.5 |
| 20260904141753 | 15 | 134 | 3.2 | 11.3 | 0.00 | 0.08 | 0.08 | 90 | 1012.4 |
| 20260904141652 | 15 | 129 | 3.2 | 11.3 | 0.00 | 0.08 | 0.08 | 90 | 1012.4 |
| 20260904141547 | 15 | 143 | 3.2 | 11.3 | 0.00 | 0.08 | 0.08 | 90 | 1012.4 |
| 20260904141448 | 15 | 258 | 3.2 | 11.3 | 0.00 | 0.08 | 0.08 | 90 | 1012.4 |
| 20260904141348 | 15 | 193 | 3.2 | 11.3 | 0.00 | 0.08 | 0.08 | 90 | 1012.4 |
| 20260904141326 | 15 | 155 | 3.2 | 11.3 | 0.00 | 0.08 | 0.08 | 90 | 1012.4 |
| 20260904141311 | 15 | 231 | 3.2 | 8.0 | 0.00 | 0.08 | 0.08 | 90 | 1012.3 |
| 20260904141248 | 15 | 120 | 3.2 | 11.3 | 0.00 | 0.08 | 0.08 | 90 | 1012.4 |
| 20260904141158 | 15 | 222 | 3.2 | 8.0 | 0.00 | 0.08 | 0.08 | 90 | 1012.4 |
| 20260904141040 | 15 | 131 | 3.2 | 8.0 | 0.00 | 0.08 | 0.08 | 90 | 1012.4 |
| 20260904140940 | 15 | 222 | 3.2 | 8.0 | 0.00 | 0.08 | 0.08 | 90 | 1012.4 |
| 20260904140931 | 15 | 193 | 3.2 | 8.0 | 0.00 | 0.08 | 0.08 | 90 | 1012.3 |
| 20260904140804 | 15 | 216 | 1.6 | 6.4 | 0.00 | 0.08 | 0.08 | 90 | 1012.3 |
| 20260904140740 | 15 | 207 | 3.2 | 8.0 | 0.00 | 0.08 | 0.08 | 90 | 1012.3 |
| 20260904140650 | 15 | 192 | 3.2 | 8.0 | 0.00 | 0.08 | 0.08 | 90 | 1012.3 |
| 20260904140536 | 15 | 231 | 3.2 | 8.0 | 0.00 | 0.08 | 0.08 | 90 | 1012.3 |
| 20260904140435 | 15 | 210 | 1.6 | 6.4 | 0.00 | 0.08 | 0.08 | 90 | 1012.2 |
| 20260904140423 | 15 | 215 | 1.6 | 6.4 | 0.00 | 0.08 | 0.08 | 90 | 1012.2 |
| 20260904140237 | 15 | 193 | 1.6 | 6.4 | 0.00 | 0.08 | 0.08 | 90 | 1012.3 |
| 20260904140133 | 15 | 200 | 1.6 | 4.8 | 0.00 | 0.08 | 0.08 | 90 | 1012.2 |
| 20260904140032 | 15 | 211 | 0.0 | 4.8 | 0.00 | 0.08 | 0.08 | 90 | 1012.3 |
| 20260904135932 | 15 | 179 | 0.0 | 3.2 | 0.00 | 0.08 | 0.08 | 90 | 1012.2 |
| 20260904135807 | 15 | 190 | 0.0 | 3.2 | 0.00 | 0.08 | 0.08 | 90 | 1012.3 |
| 20260904135730 | 15 | 190 | 0.0 | 4.8 | 0.00 | 0.08 | 0.08 | 90 | 1012.3 |
| 20260904135627 | 15 | 190 | 1.6 | 4.8 | 0.00 | 0.08 | 0.08 | 90 | 1012.3 |
| 20260904135522 | 15 | 190 | 0.0 | 4.8 | 0.00 | 0.08 | 0.08 | 90 | 1012.3 |
| 20260904135422 | 15 | 190 | 0.0 | 4.8 | 0.00 | 0.08 | 0.08 | 90 | 1012.3 |
| 20260904135321 | 15 | 190 | 1.6 | 4.8 | 0.00 | 0.08 | 0.08 | 89 | 1012.2 |
| 20260904135300 | 15 | 190 | 1.6 | 4.8 | 0.00 | 0.08 | 0.08 | 89 | 1012.2 |
| 20260904135223 | 15 | 190 | 1.6 | 4.8 | 0.00 | 0.08 | 0.08 | 89 | 1012.2 |
| 20260904135121 | 15 | 190 | 1.6 | 4.8 | 0.00 | 0.08 | 0.08 | 89 | 1012.2 |
| 20260904135022 | 15 | 190 | 1.6 | 4.8 | 0.00 | 0.08 | 0.08 | 89 | 1012.2 |
| 20260904134919 | 15 | 190 | 1.6 | 4.8 | 0.00 | 0.08 | 0.08 | 89 | 1012.2 |
| 20260904134820 | 15 | 190 | 1.6 | 4.8 | 0.00 | 0.08 | 0.08 | 89 | 1012.2 |
| 20260904134754 | 15 | 190 | 0.0 | 4.8 | 0.00 | 0.08 | 0.08 | 89 | 1012.2 |
| 20260904134718 | 15 | 191 | 0.0 | 4.8 | 0.00 | 0.08 | 0.08 | 89 | 1012.2 |
| 20260904134615 | 15 | 225 | 1.6 | 4.8 | 0.00 | 0.08 | 0.08 | 89 | 1012.1 |
| 20260904134509 | 15 | 225 | 1.6 | 4.8 | 0.00 | 0.08 | 0.08 | 89 | 1012.2 |
| 20260904134411 | 15 | 225 | 1.6 | 4.8 | 0.00 | 0.08 | 0.08 | 89 | 1012.2 |
| 20260904134310 | 15 | 226 | 1.6 | 4.8 | 0.00 | 0.08 | 0.08 | 89 | 1012.1 |
| 20260904134249 | 15 | 226 | 1.6 | 4.8 | 0.00 | 0.08 | 0.08 | 89 | 1012.1 |
| 20260904134210 | 15 | 226 | 1.6 | 4.8 | 0.00 | 0.08 | 0.08 | 89 | 1012.2 |
| 20260904134110 | 15 | 211 | 1.6 | 4.8 | 0.00 | 0.08 | 0.08 | 89 | 1012.1 |
| 20260904134005 | 15 | 136 | 1.6 | 4.8 | 0.00 | 0.08 | 0.08 | 89 | 1012.1 |
| 20260904133903 | 15 | 136 | 1.6 | 4.8 | 0.00 | 0.08 | 0.08 | 89 | 1012.1 |
| 20260904133803 | 15 | 136 | 3.2 | 8.0 | 0.00 | 0.08 | 0.08 | 89 | 1012.1 |
| 20260904133747 | 15 | 135 | 3.2 | 8.0 | 0.00 | 0.08 | 0.08 | 89 | 1012.1 |
| 20260904133703 | 15 | 136 | 1.6 | 8.0 | 0.00 | 0.08 | 0.08 | 89 | 1012.1 |
| 20260904133559 | 15 | 197 | 1.6 | 8.0 | 0.00 | 0.08 | 0.08 | 89 | 1012.0 |
| 20260904133456 | 15 | 229 | 1.6 | 8.0 | 0.00 | 0.08 | 0.08 | 89 | 1012.0 |
| 20260904133355 | 15 | 238 | 1.6 | 8.0 | 0.00 | 0.08 | 0.08 | 89 | 1012.0 |
| 20260904133232 | 15 | 147 | 1.6 | 8.0 | 0.00 | 0.08 | 0.08 | 88 | 1012.0 |
| 20260904133223 | 15 | 241 | 3.2 | 11.3 | 0.00 | 0.08 | 0.08 | 88 | 1011.9 |
| 20260904133156 | 15 | 146 | 1.6 | 8.0 | 0.00 | 0.08 | 0.08 | 88 | 1011.9 |
| 20260904133107 | 15 | 201 | 1.6 | 8.0 | 0.00 | 0.08 | 0.08 | 88 | 1012.0 |
| 20260904132951 | 15 | 239 | 3.2 | 8.0 | 0.00 | 0.08 | 0.08 | 88 | 1012.0 |
| 20260904132851 | 15 | 239 | 3.2 | 11.3 | 0.00 | 0.08 | 0.08 | 88 | 1012.0 |
| 20260904132836 | 15 | 207 | 3.2 | 11.3 | 0.00 | 0.08 | 0.08 | 88 | 1011.9 |
| 20260904132651 | 15 | 242 | 3.2 | 11.3 | 0.00 | 0.08 | 0.08 | 88 | 1012.0 |
| 20260904132547 | 15 | 242 | 3.2 | 11.3 | 0.00 | 0.08 | 0.08 | 88 | 1011.9 |
| 20260904132446 | 15 | 242 | 3.2 | 11.3 | 0.00 | 0.08 | 0.08 | 88 | 1011.9 |
| 20260904132345 | 15 | 212 | 3.2 | 11.3 | 0.00 | 0.08 | 0.08 | 88 | 1011.9 |
| 20260904132220 | 15 | 212 | 3.2 | 11.3 | 0.00 | 0.08 | 0.08 | 88 | 1011.8 |
| 20260904132145 | 15 | 231 | 3.2 | 11.3 | 0.00 | 0.08 | 0.08 | 88 | 1011.9 |
| 20260904132041 | 15 | 259 | 3.2 | 11.3 | 0.00 | 0.08 | 0.08 | 88 | 1011.8 |
| 20260904131940 | 15 | 229 | 3.2 | 11.3 | 0.00 | 0.08 | 0.08 | 88 | 1011.8 |
| 20260904131840 | 15 | 144 | 3.2 | 8.0 | 0.00 | 0.08 | 0.08 | 88 | 1011.8 |
| 20260904131739 | 16 | 222 | 3.2 | 8.0 | 0.00 | 0.08 | 0.08 | 88 | 1011.8 |
| 20260904131727 | 16 | 212 | 3.2 | 8.0 | 0.00 | 0.08 | 0.08 | 88 | 1011.8 |
| 20260904131638 | 16 | 236 | 3.2 | 8.0 | 0.00 | 0.08 | 0.08 | 88 | 1011.8 |
| 20260904131540 | 16 | 239 | 3.2 | 8.0 | 0.00 | 0.08 | 0.08 | 88 | 1011.8 |
| 20260904131429 | 16 | 221 | 3.2 | 8.0 | 0.00 | 0.08 | 0.08 | 88 | 1011.8 |
| 20260904131329 | 16 | 242 | 3.2 | 8.0 | 0.00 | 0.08 | 0.08 | 88 | 1011.8 |
| 20260904131231 | 16 | 238 | 3.2 | 8.0 | 0.00 | 0.08 | 0.08 | 88 | 1011.8 |
| 20260904131209 | 16 | 229 | 3.2 | 8.0 | 0.00 | 0.08 | 0.08 | 88 | 1011.8 |
| 20260904131130 | 16 | 231 | 3.2 | 8.0 | 0.00 | 0.08 | 0.08 | 88 | 1011.8 |
| 20260904131030 | 16 | 233 | 3.2 | 8.0 | 0.00 | 0.08 | 0.08 | 88 | 1011.8 |
| 20260904130926 | 16 | 203 | 3.2 | 6.4 | 0.00 | 0.08 | 0.08 | 89 | 1011.8 |
| 20260904130826 | 16 | 193 | 3.2 | 6.4 | 0.00 | 0.08 | 0.08 | 89 | 1011.7 |
| 20260904130726 | 16 | 155 | 1.6 | 6.4 | 0.00 | 0.08 | 0.08 | 89 | 1011.7 |
| 20260904130703 | 16 | 200 | 1.6 | 6.4 | 0.00 | 0.08 | 0.08 | 89 | 1011.7 |
| 20260904130625 | 16 | 212 | 1.6 | 6.4 | 0.00 | 0.08 | 0.08 | 89 | 1011.7 |
| 20260904130524 | 16 | 198 | 1.6 | 6.4 | 0.00 | 0.08 | 0.08 | 88 | 1011.7 |
| 20260904130417 | 16 | 226 | 1.6 | 6.4 | 0.00 | 0.08 | 0.08 | 88 | 1011.7 |
| 20260904130318 | 16 | 226 | 1.6 | 6.4 | 0.00 | 0.08 | 0.08 | 88 | 1011.7 |
| 20260904130220 | 16 | 228 | 1.6 | 6.4 | 0.00 | 0.08 | 0.08 | 88 | 1011.7 |
| 20260904130209 | 16 | 228 | 3.2 | 6.4 | 0.00 | 0.08 | 0.08 | 88 | 1011.7 |
| 20260904130117 | 16 | 229 | 3.2 | 6.4 | 0.00 | 0.08 | 0.08 | 88 | 1011.7 |
| 20260904130019 | 16 | 208 | 3.2 | 6.4 | 0.00 | 0.08 | 0.08 | 88 | 1011.7 |
| 20260904125911 | 16 | 210 | 3.2 | 9.7 | 0.00 | 0.08 | 0.08 | 88 | 1011.7 |
| 20260904125812 | 16 | 129 | 3.2 | 9.7 | 0.00 | 0.08 | 0.08 | 88 | 1011.7 |
| 20260904125712 | 16 | 138 | 4.8 | 9.7 | 0.00 | 0.08 | 0.08 | 88 | 1011.7 |
| 20260904125651 | 16 | 138 | 4.8 | 9.7 | 0.00 | 0.08 | 0.08 | 88 | 1011.7 |
| 20260904125613 | 16 | 137 | 4.8 | 14.5 | 0.00 | 0.08 | 0.08 | 88 | 1011.7 |
| 20260904125511 | 16 | 221 | 4.8 | 14.5 | 0.00 | 0.08 | 0.08 | 88 | 1011.7 |
| 20260904125412 | 16 | 228 | 4.8 | 14.5 | 0.00 | 0.08 | 0.08 | 88 | 1011.7 |
| 20260904125310 | 16 | 228 | 4.8 | 14.5 | 0.00 | 0.08 | 0.08 | 88 | 1011.8 |
| 20260904125214 | 16 | 232 | 4.8 | 14.5 | 0.00 | 0.08 | 0.08 | 88 | 1011.8 |
| 20260904125145 | 16 | 238 | 4.8 | 14.5 | 0.00 | 0.08 | 0.08 | 88 | 1011.8 |
| 20260904125108 | 16 | 162 | 4.8 | 14.5 | 0.00 | 0.08 | 0.08 | 88 | 1011.7 |
| 20260904125006 | 16 | 194 | 3.2 | 14.5 | 0.00 | 0.08 | 0.08 | 88 | 1011.7 |
| 20260904124859 | 16 | 231 | 3.2 | 14.5 | 0.00 | 0.08 | 0.08 | 88 | 1011.7 |
| 20260904124800 | 16 | 231 | 3.2 | 14.5 | 0.00 | 0.08 | 0.08 | 88 | 1011.7 |
| 20260904124700 | 16 | 248 | 3.2 | 14.5 | 0.00 | 0.08 | 0.08 | 88 | 1011.7 |
| 20260904124638 | 16 | 258 | 3.2 | 14.5 | 0.00 | 0.08 | 0.08 | 88 | 1011.7 |
| 20260904124600 | 16 | 231 | 3.2 | 8.0 | 0.00 | 0.08 | 0.08 | 88 | 1011.7 |
| 20260904124459 | 16 | 198 | 1.6 | 8.0 | 0.00 | 0.08 | 0.08 | 89 | 1011.7 |
| 20260904124355 | 16 | 228 | 1.6 | 6.4 | 0.00 | 0.08 | 0.08 | 89 | 1011.6 |
| 20260904124256 | 16 | 269 | 3.2 | 6.4 | 0.00 | 0.08 | 0.08 | 89 | 1011.6 |
| 20260904124156 | 16 | 212 | 3.2 | 11.3 | 0.00 | 0.08 | 0.08 | 89 | 1011.6 |
| 20260904124133 | 16 | 225 | 3.2 | 11.3 | 0.00 | 0.08 | 0.08 | 89 | 1011.6 |
| 20260904124056 | 16 | 222 | 3.2 | 11.3 | 0.00 | 0.08 | 0.08 | 89 | 1011.7 |
| 20260904123954 | 16 | 217 | 3.2 | 11.3 | 0.00 | 0.08 | 0.08 | 89 | 1011.6 |
| 20260904123852 | 16 | 219 | 3.2 | 11.3 | 0.00 | 0.08 | 0.08 | 89 | 1011.6 |
| 20260904123752 | 16 | 160 | 3.2 | 11.3 | 0.00 | 0.08 | 0.08 | 89 | 1011.6 |
| 20260904123627 | 16 | 190 | 3.2 | 11.3 | 0.00 | 0.08 | 0.08 | 89 | 1011.6 |
| 20260904123550 | 16 | 195 | 3.2 | 11.3 | 0.00 | 0.08 | 0.08 | 89 | 1011.6 |
| 20260904123447 | 16 | 218 | 3.2 | 11.3 | 0.00 | 0.08 | 0.08 | 89 | 1011.6 |
| 20260904123348 | 16 | 205 | 3.2 | 11.3 | 0.00 | 0.08 | 0.08 | 89 | 1011.6 |
| 20260904123246 | 16 | 214 | 3.2 | 11.3 | 0.00 | 0.08 | 0.08 | 89 | 1011.6 |
| 20260904123146 | 16 | 205 | 3.2 | 9.7 | 0.00 | 0.08 | 0.08 | 89 | 1011.6 |
| 20260904123120 | 16 | 225 | 3.2 | 9.7 | 0.00 | 0.08 | 0.08 | 89 | 1011.6 |
| 20260904123043 | 16 | 233 | 3.2 | 9.7 | 0.00 | 0.08 | 0.08 | 89 | 1011.6 |
| 20260904122941 | 16 | 136 | 3.2 | 9.7 | 0.00 | 0.08 | 0.08 | 89 | 1011.6 |
| 20260904122837 | 16 | 214 | 3.2 | 9.7 | 0.00 | 0.08 | 0.08 | 89 | 1011.5 |
| 20260904122735 | 16 | 193 | 3.2 | 9.7 | 0.00 | 0.08 | 0.08 | 89 | 1011.5 |
| 20260904122639 | 16 | 235 | 3.2 | 9.7 | 0.00 | 0.08 | 0.08 | 89 | 1011.5 |
| 20260904122613 | 16 | 236 | 3.2 | 9.7 | 0.00 | 0.08 | 0.08 | 89 | 1011.6 |
| 20260904122536 | 16 | 235 | 3.2 | 9.7 | 0.00 | 0.08 | 0.08 | 89 | 1011.6 |
| 20260904122435 | 16 | 235 | 3.2 | 9.7 | 0.00 | 0.08 | 0.08 | 89 | 1011.5 |
| 20260904122329 | 16 | 135 | 3.2 | 9.7 | 0.00 | 0.08 | 0.08 | 89 | 1011.5 |
| 20260904122229 | 16 | 242 | 3.2 | 9.7 | 0.00 | 0.08 | 0.08 | 89 | 1011.5 |
| 20260904122129 | 16 | 226 | 3.2 | 9.7 | 0.00 | 0.08 | 0.08 | 89 | 1011.5 |
| 20260904122108 | 16 | 259 | 3.2 | 9.7 | 0.00 | 0.08 | 0.08 | 89 | 1011.5 |
| 20260904122029 | 16 | 198 | 3.2 | 9.7 | 0.00 | 0.08 | 0.08 | 89 | 1011.5 |
| 20260904121929 | 16 | 205 | 3.2 | 9.7 | 0.00 | 0.08 | 0.08 | 89 | 1011.5 |
| 20260904121833 | 16 | 243 | 3.2 | 11.3 | 0.00 | 0.08 | 0.08 | 89 | 1011.5 |
| 20260904121728 | 16 | 226 | 3.2 | 11.3 | 0.00 | 0.08 | 0.08 | 89 | 1011.5 |
| 20260904121627 | 16 | 217 | 3.2 | 11.3 | 0.00 | 0.08 | 0.08 | 89 | 1011.5 |
| 20260904121602 | 16 | 166 | 4.8 | 11.3 | 0.00 | 0.08 | 0.08 | 89 | 1011.5 |
| 20260904121525 | 16 | 166 | 4.8 | 11.3 | 0.00 | 0.08 | 0.08 | 89 | 1011.5 |
| 20260904121423 | 16 | 211 | 3.2 | 11.3 | 0.00 | 0.08 | 0.08 | 89 | 1011.5 |
| 20260904121327 | 16 | 252 | 3.2 | 11.3 | 0.00 | 0.08 | 0.08 | 89 | 1011.5 |
| 20260904121320 | 16 | 212 | 3.2 | 11.3 | 0.00 | 0.08 | 0.08 | 89 | 1011.5 |
| 20260904121220 | 16 | 224 | 3.2 | 11.3 | 0.00 | 0.08 | 0.08 | 89 | 1011.5 |
| 20260904121212 | 16 | 145 | 3.2 | 11.3 | 0.00 | 0.08 | 0.08 | 89 | 1011.5 |
| 20260904121018 | 16 | 229 | 3.2 | 11.3 | 0.00 | 0.08 | 0.08 | 90 | 1011.5 |
| 20260904120917 | 16 | 214 | 3.2 | 8.0 | 0.00 | 0.08 | 0.08 | 90 | 1011.5 |
| 20260904120814 | 16 | 214 | 3.2 | 8.0 | 0.00 | 0.08 | 0.08 | 90 | 1011.5 |
| 20260904120712 | 16 | 161 | 3.2 | 8.0 | 0.00 | 0.08 | 0.08 | 89 | 1011.5 |
| 20260904120612 | 16 | 169 | 3.2 | 6.4 | 0.00 | 0.08 | 0.08 | 90 | 1011.5 |
| 20260904120550 | 16 | 210 | 3.2 | 6.4 | 0.00 | 0.08 | 0.08 | 90 | 1011.5 |
| 20260904120512 | 16 | 193 | 3.2 | 11.3 | 0.00 | 0.08 | 0.08 | 89 | 1011.4 |
| 20260904120411 | 16 | 219 | 3.2 | 11.3 | 0.00 | 0.08 | 0.08 | 89 | 1011.4 |
| 20260904120311 | 16 | 219 | 3.2 | 11.3 | 0.00 | 0.08 | 0.08 | 89 | 1011.5 |
| 20260904120211 | 16 | 255 | 3.2 | 11.3 | 0.00 | 0.08 | 0.08 | 90 | 1011.4 |
| 20260904120108 | 16 | 238 | 3.2 | 11.3 | 0.00 | 0.08 | 0.08 | 90 | 1011.4 |
| 20260904120057 | 16 | 211 | 3.2 | 11.3 | 0.00 | 0.08 | 0.08 | 90 | 1011.4 |
| 20260904120008 | 16 | 212 | 4.8 | 11.3 | 0.00 | 0.08 | 0.08 | 90 | 1011.4 |
| 20260904115905 | 16 | 148 | 4.8 | 11.3 | 0.00 | 0.08 | 0.08 | 89 | 1011.4 |
| 20260904115801 | 16 | 242 | 4.8 | 11.3 | 0.00 | 0.08 | 0.08 | 89 | 1011.4 |
| 20260904115700 | 16 | 211 | 4.8 | 11.3 | 0.00 | 0.08 | 0.08 | 89 | 1011.4 |
| 20260904115559 | 16 | 260 | 4.8 | 11.3 | 0.00 | 0.08 | 0.08 | 89 | 1011.4 |
| 20260904115539 | 16 | 242 | 4.8 | 11.3 | 0.00 | 0.08 | 0.08 | 89 | 1011.4 |
| 20260904115500 | 16 | 241 | 4.8 | 9.7 | 0.00 | 0.08 | 0.08 | 90 | 1011.4 |
| 20260904115359 | 16 | 199 | 4.8 | 9.7 | 0.00 | 0.08 | 0.08 | 90 | 1011.4 |
| 20260904115254 | 16 | 236 | 4.8 | 8.0 | 0.00 | 0.08 | 0.08 | 90 | 1011.4 |
| 20260904115154 | 16 | 233 | 4.8 | 8.0 | 0.00 | 0.08 | 0.08 | 90 | 1011.4 |
| 20260904115054 | 16 | 231 | 4.8 | 9.7 | 0.00 | 0.08 | 0.08 | 90 | 1011.4 |
| 20260904115032 | 16 | 243 | 4.8 | 9.7 | 0.00 | 0.08 | 0.08 | 90 | 1011.4 |
| 20260904114953 | 16 | 233 | 3.2 | 9.7 | 0.00 | 0.08 | 0.08 | 90 | 1011.4 |
| 20260904114854 | 16 | 192 | 3.2 | 9.7 | 0.00 | 0.08 | 0.08 | 90 | 1011.4 |
| 20260904114750 | 16 | 169 | 3.2 | 9.7 | 0.00 | 0.08 | 0.08 | 90 | 1011.4 |
| 20260904114649 | 16 | 217 | 3.2 | 9.7 | 0.00 | 0.08 | 0.08 | 91 | 1011.5 |
| 20260904114548 | 16 | 179 | 3.2 | 9.7 | 0.00 | 0.08 | 0.08 | 90 | 1011.5 |
| 20260904114527 | 16 | 150 | 3.2 | 9.7 | 0.00 | 0.08 | 0.08 | 90 | 1011.5 |
| 20260904114448 | 16 | 134 | 3.2 | 9.7 | 0.00 | 0.08 | 0.08 | 90 | 1011.5 |
| 20260904114347 | 16 | 226 | 3.2 | 9.7 | 0.00 | 0.08 | 0.08 | 90 | 1011.4 |
| 20260904114246 | 16 | 219 | 1.6 | 6.4 | 0.00 | 0.08 | 0.08 | 91 | 1011.5 |
| 20260904114241 | 16 | 233 | 3.2 | 9.7 | 0.00 | 0.08 | 0.08 | 90 | 1011.5 |
| 20260904114142 | 16 | 250 | 1.6 | 9.7 | 0.00 | 0.08 | 0.08 | 91 | 1011.5 |
| 20260904114131 | 16 | 207 | 1.6 | 8.0 | 0.00 | 0.08 | 0.08 | 91 | 1011.5 |
| 20260904113941 | 16 | 222 | 1.6 | 6.4 | 0.00 | 0.08 | 0.08 | 91 | 1011.5 |
| 20260904113841 | 16 | 218 | 1.6 | 6.4 | 0.00 | 0.08 | 0.08 | 91 | 1011.4 |
| 20260904113741 | 16 | 238 | 1.6 | 4.8 | 0.00 | 0.08 | 0.08 | 91 | 1011.4 |
| 20260904113737 | 16 | 236 | 1.6 | 6.4 | 0.00 | 0.08 | 0.08 | 91 | 1011.4 |
| 20260904113637 | 16 | 237 | 1.6 | 6.4 | 0.00 | 0.08 | 0.08 | 90 | 1011.4 |
| 20260904113625 | 16 | 240 | 1.6 | 4.8 | 0.00 | 0.08 | 0.08 | 91 | 1011.4 |
| 20260904113436 | 16 | 233 | 0.0 | 4.8 | 0.00 | 0.08 | 0.08 | 91 | 1011.4 |
| 20260904113336 | 16 | 232 | 0.0 | 3.2 | 0.00 | 0.08 | 0.08 | 91 | 1011.4 |
| 20260904113232 | 16 | 232 | 0.0 | 3.2 | 0.00 | 0.08 | 0.08 | 91 | 1011.4 |
| 20260904113130 | 16 | 232 | 1.6 | 6.4 | 0.00 | 0.08 | 0.08 | 91 | 1011.4 |
| 20260904113008 | 16 | 215 | 1.6 | 6.4 | 0.00 | 0.08 | 0.08 | 91 | 1011.4 |
| 20260904112929 | 16 | 216 | 1.6 | 6.4 | 0.00 | 0.08 | 0.08 | 91 | 1011.4 |
| 20260904112834 | 16 | 210 | 1.6 | 6.4 | 0.00 | 0.08 | 0.08 | 91 | 1011.4 |
| 20260904112736 | 16 | 172 | 3.2 | 9.7 | 0.00 | 0.08 | 0.08 | 91 | 1011.3 |
| 20260904112730 | 16 | 210 | 1.6 | 8.0 | 0.00 | 0.08 | 0.08 | 91 | 1011.3 |
| 20260904112627 | 16 | 210 | 1.6 | 8.0 | 0.00 | 0.08 | 0.08 | 91 | 1011.3 |
| 20260904112528 | 16 | 172 | 3.2 | 9.7 | 0.00 | 0.08 | 0.08 | 91 | 1011.3 |
| 20260904112426 | 16 | 172 | 3.2 | 9.7 | 0.00 | 0.08 | 0.08 | 91 | 1011.3 |
| 20260904112324 | 16 | 172 | 3.2 | 9.7 | 0.00 | 0.08 | 0.08 | 91 | 1011.3 |
| 20260904112219 | 16 | 190 | 3.2 | 9.7 | 0.00 | 0.08 | 0.08 | 91 | 1011.4 |
| 20260904112118 | 16 | 211 | 3.2 | 9.7 | 0.00 | 0.08 | 0.08 | 91 | 1011.3 |
| 20260904112018 | 16 | 228 | 3.2 | 9.7 | 0.00 | 0.08 | 0.08 | 91 | 1011.3 |
| 20260904111956 | 16 | 248 | 3.2 | 9.7 | 0.00 | 0.08 | 0.08 | 91 | 1011.4 |
| 20260904111918 | 16 | 185 | 3.2 | 9.7 | 0.00 | 0.08 | 0.08 | 91 | 1011.3 |
| 20260904111818 | 16 | 188 | 3.2 | 9.7 | 0.00 | 0.08 | 0.08 | 91 | 1011.3 |
| 20260904111715 | 16 | 239 | 3.2 | 9.7 | 0.00 | 0.08 | 0.08 | 91 | 1011.3 |
| 20260904111611 | 16 | 239 | 3.2 | 9.7 | 0.00 | 0.08 | 0.08 | 91 | 1011.3 |
| 20260904111511 | 16 | 229 | 3.2 | 8.0 | 0.00 | 0.08 | 0.08 | 91 | 1011.3 |
| 20260904111455 | 16 | 229 | 3.2 | 8.0 | 0.00 | 0.08 | 0.08 | 91 | 1011.3 |
| 20260904111411 | 16 | 229 | 3.2 | 8.0 | 0.00 | 0.08 | 0.08 | 91 | 1011.3 |
| 20260904111311 | 16 | 217 | 3.2 | 8.0 | 0.00 | 0.08 | 0.08 | 91 | 1011.3 |
| 20260904111207 | 16 | 230 | 3.2 | 8.0 | 0.00 | 0.08 | 0.08 | 91 | 1011.3 |
| 20260904111105 | 16 | 232 | 3.2 | 8.0 | 0.00 | 0.08 | 0.08 | 91 | 1011.3 |
| 20260904111006 | 16 | 205 | 3.2 | 6.4 | 0.00 | 0.08 | 0.08 | 91 | 1011.3 |
| 20260904110955 | 16 | 226 | 3.2 | 6.4 | 0.00 | 0.08 | 0.08 | 91 | 1011.3 |
| 20260904110906 | 16 | 199 | 3.2 | 6.4 | 0.00 | 0.08 | 0.08 | 91 | 1011.3 |
| 20260904110805 | 16 | 222 | 3.2 | 9.7 | 0.00 | 0.08 | 0.08 | 91 | 1011.3 |
| 20260904110704 | 16 | 228 | 3.2 | 9.7 | 0.00 | 0.08 | 0.08 | 91 | 1011.2 |
| 20260904110600 | 16 | 256 | 3.2 | 9.7 | 0.00 | 0.08 | 0.08 | 91 | 1011.3 |
| 20260904110502 | 16 | 148 | 3.2 | 9.7 | 0.00 | 0.08 | 0.08 | 91 | 1011.2 |
| 20260904110452 | 16 | 167 | 3.2 | 9.7 | 0.00 | 0.08 | 0.08 | 91 | 1011.2 |
| 20260904110400 | 16 | 181 | 3.2 | 9.7 | 0.00 | 0.08 | 0.08 | 91 | 1011.2 |
| 20260904110259 | 16 | 222 | 4.8 | 9.7 | 0.00 | 0.08 | 0.08 | 91 | 1011.2 |
| 20260904110156 | 16 | 236 | 4.8 | 9.7 | 0.00 | 0.08 | 0.08 | 91 | 1011.2 |
| 20260904110054 | 16 | 233 | 4.8 | 9.7 | 0.00 | 0.08 | 0.08 | 91 | 1011.1 |
| 20260904105959 | 16 | 188 | 4.8 | 9.7 | 0.00 | 0.08 | 0.08 | 91 | 1011.2 |
| 20260904105953 | 16 | 187 | 4.8 | 9.7 | 0.00 | 0.08 | 0.08 | 91 | 1011.2 |
| 20260904105853 | 16 | 243 | 3.2 | 9.7 | 0.00 | 0.08 | 0.08 | 92 | 1011.2 |
| 20260904105753 | 16 | 233 | 3.2 | 6.4 | 0.00 | 0.08 | 0.08 | 92 | 1011.2 |
| 20260904105655 | 16 | 212 | 3.2 | 6.4 | 0.00 | 0.08 | 0.08 | 92 | 1011.2 |
| 20260904105551 | 16 | 226 | 3.2 | 6.4 | 0.00 | 0.08 | 0.08 | 92 | 1011.1 |
| 20260904105455 | 16 | 197 | 3.2 | 6.4 | 0.00 | 0.08 | 0.08 | 92 | 1011.1 |
| 20260904105449 | 16 | 203 | 3.2 | 6.4 | 0.00 | 0.08 | 0.08 | 92 | 1011.1 |
| 20260904105350 | 16 | 240 | 3.2 | 6.4 | 0.00 | 0.08 | 0.08 | 92 | 1011.2 |
| 20260904105248 | 16 | 217 | 3.2 | 8.0 | 0.00 | 0.08 | 0.08 | 92 | 1011.1 |
| 20260904105145 | 16 | 163 | 3.2 | 8.0 | 0.00 | 0.08 | 0.08 | 92 | 1011.1 |
| 20260904105042 | 16 | 146 | 1.6 | 8.0 | 0.00 | 0.08 | 0.08 | 92 | 1011.1 |
| 20260904104950 | 16 | 214 | 3.2 | 8.0 | 0.00 | 0.08 | 0.08 | 92 | 1011.1 |
| 20260904104941 | 16 | 194 | 3.2 | 8.0 | 0.00 | 0.08 | 0.08 | 92 | 1011.1 |
| 20260904104842 | 16 | 218 | 3.2 | 8.0 | 0.00 | 0.08 | 0.08 | 92 | 1011.1 |
| 20260904104741 | 16 | 236 | 3.2 | 8.0 | 0.00 | 0.08 | 0.08 | 92 | 1011.1 |
| 20260904104637 | 16 | 221 | 3.2 | 8.0 | 0.00 | 0.08 | 0.08 | 92 | 1011.1 |
| 20260904104536 | 16 | 166 | 3.2 | 8.0 | 0.00 | 0.08 | 0.08 | 92 | 1011.2 |
| 20260904104453 | 16 | 235 | 3.2 | 8.0 | 0.00 | 0.08 | 0.08 | 92 | 1011.1 |
| 20260904104435 | 16 | 233 | 3.2 | 8.0 | 0.00 | 0.08 | 0.08 | 92 | 1011.1 |
| 20260904104336 | 16 | 226 | 3.2 | 9.7 | 0.00 | 0.08 | 0.08 | 92 | 1011.1 |
| 20260904104235 | 16 | 236 | 3.2 | 9.7 | 0.00 | 0.08 | 0.08 | 92 | 1011.1 |
| 20260904104216 | 16 | 219 | 3.2 | 9.7 | 0.00 | 0.08 | 0.08 | 92 | 1011.1 |
| 20260904104137 | 16 | 232 | 4.8 | 9.7 | 0.00 | 0.08 | 0.08 | 92 | 1011.1 |
| 20260904104101 | 16 | 222 | 4.8 | 9.7 | 0.00 | 0.08 | 0.08 | 92 | 1011.1 |
| 20260904103934 | 16 | 215 | 3.2 | 9.7 | 0.00 | 0.08 | 0.08 | 92 | 1011.1 |
| 20260904103832 | 16 | 197 | 3.2 | 9.7 | 0.00 | 0.08 | 0.08 | 92 | 1011.1 |
| 20260904103730 | 16 | 233 | 3.2 | 9.7 | 0.00 | 0.08 | 0.08 | 92 | 1011.1 |
| 20260904103624 | 16 | 188 | 3.2 | 9.7 | 0.00 | 0.08 | 0.08 | 92 | 1011.1 |
| 20260904103523 | 16 | 238 | 4.8 | 12.9 | 0.00 | 0.08 | 0.08 | 92 | 1011.0 |
| 20260904103449 | 16 | 233 | 3.2 | 12.9 | 0.00 | 0.08 | 0.08 | 92 | 1011.1 |
| 20260904103424 | 16 | 232 | 3.2 | 12.9 | 0.00 | 0.08 | 0.08 | 92 | 1011.1 |
| 20260904103324 | 16 | 222 | 3.2 | 12.9 | 0.00 | 0.08 | 0.08 | 92 | 1011.1 |
| 20260904103223 | 16 | 214 | 3.2 | 12.9 | 0.00 | 0.08 | 0.08 | 92 | 1011.1 |
| 20260904103118 | 16 | 233 | 3.2 | 12.9 | 0.00 | 0.08 | 0.08 | 92 | 1011.0 |
| 20260904103017 | 16 | 238 | 3.2 | 12.9 | 0.00 | 0.08 | 0.08 | 92 | 1011.1 |
| 20260904102948 | 16 | 222 | 3.2 | 12.9 | 0.00 | 0.08 | 0.08 | 92 | 1011.1 |
| 20260904102917 | 16 | 239 | 3.2 | 12.9 | 0.00 | 0.08 | 0.08 | 92 | 1011.1 |
| 20260904102818 | 16 | 232 | 3.2 | 12.9 | 0.00 | 0.08 | 0.08 | 92 | 1011.1 |
| 20260904102720 | 16 | 238 | 3.2 | 12.9 | 0.00 | 0.08 | 0.08 | 92 | 1011.1 |
| 20260904102711 | 15 | 199 | 3.2 | 8.0 | 0.00 | 0.08 | 0.08 | 92 | 1011.0 |
| 20260904102614 | 16 | 187 | 3.2 | 12.9 | 0.00 | 0.08 | 0.08 | 92 | 1011.1 |
| 20260904102559 | 15 | 223 | 3.2 | 8.0 | 0.00 | 0.08 | 0.08 | 92 | 1011.0 |
| 20260904102412 | 15 | 214 | 3.2 | 8.0 | 0.00 | 0.08 | 0.08 | 91 | 1011.0 |
| 20260904102312 | 15 | 240 | 3.2 | 8.0 | 0.00 | 0.08 | 0.08 | 91 | 1011.0 |
| 20260904102211 | 15 | 225 | 3.2 | 8.0 | 0.00 | 0.08 | 0.08 | 91 | 1011.1 |
| 20260904102106 | 15 | 198 | 3.2 | 11.3 | 0.00 | 0.08 | 0.08 | 91 | 1011.1 |
| 20260904102006 | 15 | 233 | 3.2 | 11.3 | 0.00 | 0.08 | 0.08 | 91 | 1011.0 |
| 20260904101949 | 15 | 215 | 3.2 | 11.3 | 0.00 | 0.08 | 0.08 | 91 | 1011.0 |
| 20260904101906 | 15 | 218 | 3.2 | 11.3 | 0.00 | 0.08 | 0.08 | 91 | 1011.0 |
| 20260904101805 | 15 | 239 | 3.2 | 11.3 | 0.00 | 0.08 | 0.08 | 91 | 1011.0 |
| 20260904101706 | 15 | 234 | 3.2 | 11.3 | 0.00 | 0.08 | 0.08 | 91 | 1011.0 |
| 20260904101604 | 15 | 211 | 3.2 | 11.3 | 0.00 | 0.08 | 0.08 | 91 | 1011.0 |
| 20260904101505 | 15 | 211 | 3.2 | 11.3 | 0.00 | 0.08 | 0.08 | 91 | 1010.9 |
| 20260904101448 | 15 | 212 | 3.2 | 11.3 | 0.00 | 0.08 | 0.08 | 91 | 1010.9 |
| 20260904101403 | 15 | 172 | 3.2 | 11.3 | 0.00 | 0.08 | 0.08 | 91 | 1011.0 |
| 20260904101301 | 15 | 228 | 1.6 | 11.3 | 0.00 | 0.08 | 0.08 | 91 | 1010.9 |
| 20260904101200 | 15 | 204 | 1.6 | 11.3 | 0.00 | 0.08 | 0.08 | 91 | 1011.0 |
| 20260904101057 | 15 | 236 | 1.6 | 4.8 | 0.00 | 0.08 | 0.08 | 91 | 1010.9 |
| 20260904100949 | 15 | 221 | 1.6 | 4.8 | 0.00 | 0.08 | 0.08 | 91 | 1010.9 |
| 20260904100857 | 15 | 221 | 1.6 | 4.8 | 0.00 | 0.08 | 0.08 | 91 | 1010.9 |
| 20260904100755 | 15 | 221 | 1.6 | 6.4 | 0.00 | 0.08 | 0.08 | 91 | 1010.9 |
| 20260904100653 | 15 | 221 | 1.6 | 6.4 | 0.00 | 0.08 | 0.08 | 91 | 1010.9 |
| 20260904100550 | 15 | 203 | 3.2 | 8.0 | 0.00 | 0.08 | 0.08 | 91 | 1011.0 |
| 20260904100448 | 15 | 239 | 3.2 | 8.0 | 0.00 | 0.08 | 0.08 | 91 | 1011.0 |
| 20260904100348 | 15 | 161 | 3.2 | 8.0 | 0.00 | 0.08 | 0.08 | 91 | 1011.0 |
| 20260904100248 | 15 | 161 | 3.2 | 8.0 | 0.00 | 0.08 | 0.08 | 91 | 1011.0 |
| 20260904100207 | 15 | 205 | 3.2 | 8.0 | 0.00 | 0.08 | 0.08 | 91 | 1011.0 |
| 20260904100147 | 15 | 211 | 3.2 | 8.0 | 0.00 | 0.08 | 0.08 | 91 | 1011.0 |
| 20260904100059 | 15 | 211 | 3.2 | 8.0 | 0.00 | 0.08 | 0.08 | 91 | 1011.0 |
| 20260904095942 | 15 | 201 | 3.2 | 8.0 | 0.00 | 0.08 | 0.08 | 91 | 1011.0 |
| 20260904095842 | 15 | 233 | 3.2 | 8.0 | 0.00 | 0.08 | 0.08 | 91 | 1011.0 |
| 20260904095742 | 15 | 218 | 3.2 | 8.0 | 0.00 | 0.08 | 0.08 | 91 | 1010.9 |
| 20260904095642 | 15 | 222 | 3.2 | 8.0 | 0.00 | 0.08 | 0.08 | 91 | 1011.0 |
| 20260904095535 | 15 | 210 | 1.6 | 8.0 | 0.00 | 0.08 | 0.08 | 91 | 1010.9 |
| 20260904095448 | 15 | 155 | 1.6 | 6.4 | 0.00 | 0.08 | 0.08 | 91 | 1010.9 |
| 20260904095435 | 15 | 156 | 1.6 | 6.4 | 0.00 | 0.08 | 0.08 | 91 | 1010.9 |
| 20260904095336 | 15 | 211 | 1.6 | 6.4 | 0.00 | 0.08 | 0.08 | 91 | 1010.9 |
| 20260904095234 | 15 | 213 | 1.6 | 6.4 | 0.00 | 0.08 | 0.08 | 91 | 1010.9 |
| 20260904095134 | 15 | 214 | 1.6 | 6.4 | 0.00 | 0.08 | 0.08 | 91 | 1010.9 |
| 20260904095030 | 15 | 219 | 1.6 | 6.4 | 0.00 | 0.08 | 0.08 | 91 | 1010.9 |
| 20260904094929 | 15 | 219 | 1.6 | 6.4 | 0.00 | 0.08 | 0.08 | 91 | 1010.9 |
| 20260904094830 | 15 | 219 | 1.6 | 6.4 | 0.00 | 0.08 | 0.08 | 91 | 1010.9 |
| 20260904094730 | 15 | 233 | 1.6 | 6.4 | 0.00 | 0.08 | 0.08 | 91 | 1010.9 |
| 20260904094629 | 15 | 233 | 3.2 | 6.4 | 0.00 | 0.08 | 0.08 | 91 | 1010.9 |
| 20260904094526 | 15 | 233 | 3.2 | 6.4 | 0.00 | 0.08 | 0.08 | 91 | 1010.9 |
| 20260904094426 | 15 | 229 | 3.2 | 6.4 | 0.00 | 0.08 | 0.08 | 91 | 1010.9 |
| 20260904094326 | 15 | 229 | 3.2 | 6.4 | 0.00 | 0.08 | 0.08 | 91 | 1010.9 |
| 20260904094224 | 15 | 212 | 3.2 | 6.4 | 0.00 | 0.08 | 0.08 | 91 | 1010.9 |
| 20260904094121 | 15 | 225 | 3.2 | 6.4 | 0.00 | 0.08 | 0.08 | 91 | 1011.0 |
| 20260904094018 | 15 | 232 | 3.2 | 6.4 | 0.00 | 0.08 | 0.08 | 91 | 1010.9 |
| 20260904093937 | 15 | 226 | 3.2 | 6.4 | 0.00 | 0.08 | 0.08 | 91 | 1010.9 |
| 20260904093917 | 15 | 225 | 3.2 | 6.4 | 0.00 | 0.08 | 0.08 | 91 | 1010.9 |
| 20260904093818 | 15 | 219 | 1.6 | 6.4 | 0.00 | 0.08 | 0.08 | 91 | 1010.9 |
| 20260904093718 | 15 | 227 | 1.6 | 6.4 | 0.00 | 0.08 | 0.08 | 91 | 1010.9 |
| 20260904093615 | 15 | 226 | 1.6 | 6.4 | 0.00 | 0.08 | 0.08 | 91 | 1011.0 |
| 20260904093509 | 15 | 214 | 1.6 | 4.8 | 0.00 | 0.08 | 0.08 | 91 | 1011.0 |
| 20260904093429 | 15 | 228 | 1.6 | 4.8 | 0.00 | 0.08 | 0.08 | 91 | 1011.0 |
| 20260904093410 | 15 | 203 | 1.6 | 4.8 | 0.00 | 0.08 | 0.08 | 91 | 1011.0 |
| 20260904093309 | 15 | 168 | 1.6 | 4.8 | 0.00 | 0.08 | 0.08 | 91 | 1010.9 |
| 20260904093210 | 15 | 224 | 1.6 | 4.8 | 0.00 | 0.08 | 0.08 | 91 | 1010.9 |
| 20260904093109 | 15 | 215 | 1.6 | 4.8 | 0.00 | 0.08 | 0.08 | 91 | 1010.9 |
| 20260904093005 | 15 | 218 | 1.6 | 4.8 | 0.00 | 0.08 | 0.08 | 91 | 1011.0 |
| 20260904092926 | 15 | 218 | 1.6 | 4.8 | 0.00 | 0.08 | 0.08 | 91 | 1011.0 |
| 20260904092904 | 15 | 218 | 1.6 | 4.8 | 0.00 | 0.08 | 0.08 | 91 | 1010.9 |
| 20260904092803 | 15 | 181 | 1.6 | 4.8 | 0.00 | 0.08 | 0.08 | 91 | 1010.9 |
| 20260904092704 | 15 | 226 | 1.6 | 4.8 | 0.00 | 0.08 | 0.08 | 91 | 1010.9 |
| 20260904092603 | 15 | 143 | 1.6 | 4.8 | 0.00 | 0.08 | 0.08 | 91 | 1010.9 |
| 20260904092501 | 15 | 231 | 1.6 | 4.8 | 0.00 | 0.08 | 0.08 | 91 | 1010.9 |
| 20260904092418 | 15 | 203 | 1.6 | 6.4 | 0.00 | 0.08 | 0.08 | 91 | 1010.9 |
| 20260904092401 | 15 | 233 | 1.6 | 6.4 | 0.00 | 0.08 | 0.08 | 91 | 1010.9 |
| 20260904092301 | 15 | 236 | 1.6 | 6.4 | 0.00 | 0.08 | 0.08 | 91 | 1010.9 |
| 20260904092200 | 15 | 236 | 1.6 | 6.4 | 0.00 | 0.08 | 0.08 | 91 | 1010.9 |
| 20260904092057 | 15 | 236 | 1.6 | 6.4 | 0.00 | 0.08 | 0.08 | 91 | 1010.8 |
| 20260904091957 | 15 | 236 | 1.6 | 6.4 | 0.00 | 0.08 | 0.08 | 91 | 1010.8 |
| 20260904091913 | 15 | 236 | 1.6 | 6.4 | 0.00 | 0.08 | 0.08 | 91 | 1010.8 |
| 20260904091855 | 15 | 237 | 1.6 | 6.4 | 0.00 | 0.08 | 0.08 | 91 | 1010.8 |
| 20260904091756 | 15 | 236 | 1.6 | 6.4 | 0.00 | 0.08 | 0.08 | 91 | 1010.8 |
| 20260904091654 | 15 | 236 | 1.6 | 6.4 | 0.00 | 0.08 | 0.08 | 91 | 1010.8 |
| 20260904091629 | 15 | 236 | 1.6 | 4.8 | 0.00 | 0.08 | 0.08 | 91 | 1010.9 |
| 20260904091551 | 15 | 236 | 1.6 | 6.4 | 0.00 | 0.08 | 0.08 | 91 | 1010.8 |
| 20260904091517 | 15 | 236 | 1.6 | 6.4 | 0.00 | 0.08 | 0.08 | 91 | 1010.9 |
| 20260904091345 | 15 | 236 | 1.6 | 4.8 | 0.00 | 0.08 | 0.08 | 91 | 1010.9 |
| 20260904091245 | 15 | 226 | 1.6 | 4.8 | 0.00 | 0.08 | 0.08 | 91 | 1010.9 |
| 20260904091146 | 15 | 208 | 1.6 | 4.8 | 0.00 | 0.08 | 0.08 | 91 | 1010.9 |
| 20260904091045 | 15 | 203 | 1.6 | 4.8 | 0.00 | 0.08 | 0.08 | 91 | 1010.9 |
| 20260904090946 | 15 | 214 | 1.6 | 4.8 | 0.00 | 0.08 | 0.08 | 91 | 1010.9 |
| 20260904090843 | 15 | 200 | 1.6 | 4.8 | 0.00 | 0.08 | 0.08 | 91 | 1010.9 |
| 20260904090744 | 15 | 200 | 1.6 | 4.8 | 0.00 | 0.08 | 0.08 | 91 | 1011.0 |
| 20260904090642 | 15 | 231 | 1.6 | 4.8 | 0.00 | 0.08 | 0.08 | 91 | 1011.0 |
| 20260904090539 | 15 | 226 | 1.6 | 4.8 | 0.00 | 0.08 | 0.08 | 91 | 1011.0 |
| 20260904090433 | 15 | 210 | 1.6 | 4.8 | 0.00 | 0.08 | 0.08 | 91 | 1011.0 |
| 20260904090333 | 15 | 210 | 1.6 | 4.8 | 0.00 | 0.08 | 0.08 | 91 | 1011.0 |
| 20260904090233 | 15 | 210 | 1.6 | 4.8 | 0.00 | 0.08 | 0.08 | 91 | 1011.0 |
| 20260904090134 | 15 | 210 | 1.6 | 4.8 | 0.00 | 0.08 | 0.08 | 91 | 1011.0 |
| 20260904090034 | 15 | 210 | 1.6 | 4.8 | 0.00 | 0.08 | 0.08 | 91 | 1011.0 |
| 20260904085934 | 15 | 219 | 1.6 | 4.8 | 0.00 | 0.08 | 0.08 | 91 | 1011.0 |
| 20260904085832 | 15 | 219 | 1.6 | 4.8 | 0.00 | 0.08 | 0.08 | 91 | 1011.0 |
| 20260904085731 | 15 | 214 | 1.6 | 4.8 | 0.00 | 0.08 | 0.08 | 91 | 1011.0 |
| 20260904085629 | 15 | 214 | 1.6 | 4.8 | 0.00 | 0.08 | 0.08 | 91 | 1011.1 |
| 20260904085527 | 15 | 211 | 1.6 | 3.2 | 0.00 | 0.08 | 0.08 | 91 | 1011.0 |
| 20260904085428 | 15 | 200 | 1.6 | 3.2 | 0.00 | 0.08 | 0.08 | 91 | 1011.0 |
| 20260904085325 | 15 | 200 | 1.6 | 3.2 | 0.00 | 0.08 | 0.08 | 91 | 1011.0 |
| 20260904085224 | 15 | 210 | 0.0 | 3.2 | 0.00 | 0.08 | 0.08 | 91 | 1011.0 |
| 20260904085124 | 15 | 205 | 0.0 | 3.2 | 0.00 | 0.08 | 0.08 | 91 | 1011.1 |
| 20260904085021 | 15 | 186 | 0.0 | 3.2 | 0.00 | 0.08 | 0.08 | 90 | 1011.1 |
| 20260904084922 | 15 | 228 | 0.0 | 3.2 | 0.00 | 0.08 | 0.08 | 91 | 1011.1 |
| 20260904084836 | 15 | 205 | 0.0 | 1.6 | 0.00 | 0.08 | 0.08 | 91 | 1011.1 |
| 20260904084819 | 15 | 204 | 0.0 | 1.6 | 0.00 | 0.08 | 0.08 | 91 | 1011.1 |
| 20260904084720 | 15 | 204 | 0.0 | 1.6 | 0.00 | 0.08 | 0.08 | 91 | 1011.1 |
| 20260904084618 | 15 | 204 | 0.0 | 1.6 | 0.00 | 0.08 | 0.08 | 91 | 1011.1 |
| 20260904084516 | 15 | 205 | 0.0 | 1.6 | 0.00 | 0.08 | 0.08 | 91 | 1011.1 |
| 20260904084412 | 15 | 204 | 0.0 | 1.6 | 0.00 | 0.08 | 0.08 | 91 | 1011.1 |
| 20260904084343 | 15 | 204 | 0.0 | 1.6 | 0.00 | 0.08 | 0.08 | 91 | 1011.1 |
| 20260904084312 | 15 | 204 | 0.0 | 1.6 | 0.00 | 0.08 | 0.08 | 91 | 1011.1 |
| 20260904084211 | 15 | 204 | 0.0 | 1.6 | 0.00 | 0.08 | 0.08 | 91 | 1011.1 |
| 20260904084112 | 15 | 204 | 0.0 | 3.2 | 0.00 | 0.08 | 0.08 | 91 | 1011.1 |
| 20260904084048 | 15 | 204 | 1.6 | 3.2 | 0.00 | 0.08 | 0.08 | 91 | 1011.1 |
| 20260904084009 | 15 | 205 | 0.0 | 3.2 | 0.00 | 0.08 | 0.08 | 91 | 1011.1 |
| 20260904083938 | 15 | 204 | 1.6 | 3.2 | 0.00 | 0.08 | 0.08 | 91 | 1011.1 |
| 20260904083808 | 15 | 204 | 1.6 | 3.2 | 0.00 | 0.08 | 0.08 | 91 | 1011.1 |
| 20260904083708 | 15 | 204 | 1.6 | 3.2 | 0.00 | 0.08 | 0.08 | 91 | 1011.1 |
| 20260904083606 | 15 | 204 | 1.6 | 3.2 | 0.00 | 0.08 | 0.08 | 91 | 1011.1 |
| 20260904083507 | 15 | 205 | 1.6 | 3.2 | 0.00 | 0.08 | 0.08 | 91 | 1011.1 |
| 20260904083404 | 15 | 205 | 1.6 | 3.2 | 0.00 | 0.08 | 0.08 | 91 | 1011.1 |
| 20260904083331 | 15 | 204 | 1.6 | 3.2 | 0.00 | 0.08 | 0.08 | 91 | 1011.1 |
| 20260904083302 | 15 | 205 | 1.6 | 3.2 | 0.00 | 0.08 | 0.08 | 91 | 1011.1 |
| 20260904083201 | 15 | 204 | 1.6 | 3.2 | 0.00 | 0.08 | 0.08 | 91 | 1011.1 |
| 20260904083100 | 15 | 200 | 0.0 | 3.2 | 0.00 | 0.08 | 0.08 | 91 | 1011.1 |
| 20260904083032 | 15 | 212 | 0.0 | 3.2 | 0.03 | 0.08 | 0.08 | 91 | 1011.1 |
| 20260904082957 | 15 | 225 | 0.0 | 3.2 | 0.00 | 0.08 | 0.08 | 91 | 1011.1 |
| 20260904082926 | 15 | 224 | 0.0 | 3.2 | 0.00 | 0.08 | 0.08 | 91 | 1011.1 |
| 20260904082755 | 15 | 212 | 0.0 | 3.2 | 0.03 | 0.08 | 0.08 | 91 | 1011.1 |
| 20260904082655 | 15 | 212 | 0.0 | 3.2 | 0.03 | 0.08 | 0.08 | 91 | 1011.1 |
| 20260904082554 | 15 | 226 | 0.0 | 3.2 | 0.03 | 0.08 | 0.08 | 91 | 1011.1 |
| 20260904082450 | 15 | 226 | 0.0 | 3.2 | 0.03 | 0.08 | 0.08 | 91 | 1011.1 |
| 20260904082352 | 15 | 226 | 0.0 | 3.2 | 0.03 | 0.08 | 0.08 | 91 | 1011.2 |
| 20260904082306 | 15 | 226 | 1.6 | 3.2 | 0.03 | 0.08 | 0.08 | 91 | 1011.1 |
| 20260904082249 | 15 | 226 | 1.6 | 3.2 | 0.03 | 0.08 | 0.08 | 91 | 1011.1 |
| 20260904082150 | 15 | 226 | 1.6 | 3.2 | 0.03 | 0.08 | 0.08 | 91 | 1011.1 |